     2              OBSERVATION DATA    GPS                 RINEX VERSION / TYPE
teqc 1997Jun30 19970702                                     PGM / RUN BY / DATE
                                                            COMMENT
Original Marker Name: SNT0                                  COMMENT
Campaign Name: HMC San Gabriel Valley 1993-1996             COMMENT
4-Character Station Name: SNT0                              COMMENT
6-Character Antenna Code: DMRCHT                            COMMENT
Vertical Measurement Point: BPA                             COMMENT
Vertical Offset to Rinex Ref. Point: 0.0000                 COMMENT
Radial Measurement Point: RRP                               COMMENT
Radial Offset to Rinex Ref. Point: 0.0000                   COMMENT
Antenna Height from Field Measurement: 0.0610 m             COMMENT
Additional Antenna Identification Info.:                    COMMENT
Turborogue and Ashtech Choke Ring                           COMMENT
Original XYZ: 0.0000 0.0000 0.0000                          COMMENT
New XYZ position is based on association with SCEC monument COMMENT
E1D0Q3C7+0011. Position of that monument is believed to be  COMMENT
valid to within 1 m horizontally; vertical accuracy         COMMENT
should be no worse than 3-times this value.                 COMMENT
                                                            COMMENT
Revised Rinex header created by UCSD GPS archive for        COMMENT
GSAC on 12-Apr-1999 (1999:102) 20:58:31 GMT                 COMMENT
For assistance contact dagnew@ucsd.edu or hjohnson@ucsd.edu COMMENT
                                                            COMMENT
SA TUZE                                                     MARKER NAME
GAL HARVEY MUDD COLLEGE                                     OBSERVER / AGENCY
S/N UNKNOWN TURBOROGUE SNR-8000 3.2                         REC # / TYPE / VERS
329 DORNE-MARGOL. TYPE T                                    ANT # / TYPE
 -2474432.0000 -4676644.0000  3550554.0000                  APPROX POSITION XYZ
        0.0610        0.0000        0.0000                  ANTENNA: DELTA H/E/N
     1     1     0                                          WAVELENGTH FACT L1/2
     5    L1    L2    C1    P2    P1                        # / TYPES OF OBSERV
     0                                                      INTERVAL
  1996     5    16     0     0    0.000000                  TIME OF FIRST OBS
  1996     5    16    23    59   30.000000                  TIME OF LAST OBS
     0                                                      # OF SATELLITES
                                                            END OF HEADER
 96  5 16  0  0  0.0000000  0  7G16G 6G 5G24G17G23G26
  -1491419.26144  -1162141.50444  21296759.2144   21296761.8274
  -9879208.16644  -7698080.04744  20644765.6804   20644767.8224
  12653152.63044   9859596.05344  22747932.8534   22747936.0774
  13903507.84444  10833897.90544  24391839.6674   24391844.1614
 -13926511.73344 -10851802.05044  22471208.8264   22471212.5244
  -3408042.61044  -2655604.55744  24322178.8954   24322183.4064
  -2953886.10344  -2301723.23044  24375366.5884   24375372.5184
 96  5 16  0  0 30.0000000  0  7G16G 6G 5G24G17G23G26
  -1446941.74744  -1127483.69744  21305223.1144   21305225.7184
  -9917134.09644  -7727632.71244  20637548.6554   20637550.7444
  12754620.47844   9938661.86844  22767241.6214   22767244.7104
  13981154.78744  10894401.97844  24406615.5264   24406619.1464
 -13989701.96744 -10901041.15744  22459184.0994   22459187.4634
  -3513420.79144  -2737717.13844  24302125.7444   24302131.5504
  -3034102.41644  -2364229.33144  24360102.0954   24360107.6964
 96  5 16  0  1  0.0000000  0  7G16G 6G 5G24G17G23G26
  -1401976.78444  -1092446.06044  21313779.7234   21313782.4454
  -9954796.38744  -7756979.94044  20630381.7734   20630383.8704
  12856260.51344  10017861.85144  22786583.2124   22786586.4854
  14058791.50244  10954898.09744  24421389.2804   24421392.6754
 -14052688.54044 -10950121.55744  22447198.1384   22447201.6394
  -3618685.26144  -2819741.15344  24282094.4904   24282101.7214
  -3114306.10144  -2426725.61244  24344839.7834   24344844.9934
 96  5 16  0  1 30.0000000  0  7G16G 6G 5G24G17G23G26
  -1356489.11644  -1057001.12244  21322435.7484   21322438.4114
  -9992197.00144  -7786123.26844  20623264.6554   20623266.7304
  12958079.18544  10097201.03144  22805958.7394   22805962.1474
  14136412.05444  11015381.60744  24436160.0604   24436165.0354
 -14115467.39644 -10999040.09844  22435251.7234   22435255.7314
  -3723813.19944  -2901658.77044  24262089.0474   24262095.7744
  -3194476.53344  -2489195.99444  24329583.7834   24329587.8454
 96  5 16  0  2  0.0000000  0  7G16G 6G 5G24G17G23G26
  -1310504.43444  -1021168.90244  21331186.3534   21331189.0944
 -10029360.41344  -7815081.76344  20616192.7834   20616194.7924
  13060032.80744  10176645.36944  22825359.9024   22825363.0194
  14213968.48444  11075815.15444  24450918.5434   24450921.9374
 -14178064.25744 -11047816.82744  22423339.8934   22423343.4864
  -3828839.02444  -2983496.78344  24242103.0804   24242108.4714
  -3274650.53544  -2551669.16144  24314327.0574   24314330.1014
 96  5 16  0  2 30.0000000  0  7G16G 6G 5G24G17G23G26
  -1263993.58044   -984926.67844  21340037.0274   21340039.6644
 -10066264.04844  -7843837.83344  20609170.1784   20609172.2174
  13162142.62444  10256211.42044  22844790.8074   22844794.2434
  14291465.80844  11136202.64144  24465665.8734   24465668.7444
 -14240457.77344 -11096435.12244  22411466.7794   22411470.2054
  -3933747.64544  -3065243.52044  24222139.3964   24222144.3884
  -3354813.81344  -2614133.98544  24299072.2814   24299077.4704
 96  5 16  0  3  0.0000000  0  7G 6G16G 5G24G17G23G26
 -10102908.53744  -7872391.97044  20602197.0364   20602199.0904
  -1216949.39944   -948268.87644  21348989.2814   21348992.0334
  13264431.08644  10335916.66744  22864255.7034   22864259.2434
  14368882.78944  11196527.52744  24480397.8834   24480401.3984
 -14302660.51944 -11144904.75644  22399629.9634   22399633.4814
  -4038559.67544  -3146914.97144  24202194.3364   24202200.3474
  -3434962.38844  -2676587.33044  24283820.4624   24283824.8424
 96  5 16  0  3 30.0000000  0  7G 6G16G 5G24G17G23G26
 -10139281.30844  -7900734.37944  20595275.5724   20595277.5524
  -1169365.54044   -911190.54444  21358044.1864   21358046.8104
  13366923.64244  10415780.95444  22883759.5294   22883762.7484
  14446238.45444  11256804.63644  24495118.1674   24495121.5824
 -14364653.02644 -11193210.56544  22387833.1934   22387836.8874
  -4143274.65244  -3228510.81644  24182267.5664   24182273.0414
  -3515089.41844  -2739023.90844  24268573.0204   24268577.4954
 96  5 16  0  4  0.0000000  0  7G 6G16G 5G24G17G23G26
 -10175368.98844  -7928854.64344  20588408.2874   20588410.2514
  -1121255.07444   -873701.87144  21367199.3264   21367201.8524
  13469633.05044  10495814.21044  22903304.5354   22903307.9274
  14523555.81844  11317051.90444  24509830.9944   24509834.0164
 -14426427.47944 -11241346.45744  22376077.8954   22376081.4454
  -4247915.91844  -3310049.20444  24162354.8394   24162359.2024
  -3595198.18844  -2801446.25844  24253328.7684   24253331.9994
 96  5 16  0  4 30.0000000  0  7G 6G16G 5G24G17G23G26
 -10211171.70544  -7956752.85444  20581595.1624   20581597.2144
  -1072619.55744   -835804.06844  21376454.4234   21376456.9684
  13572584.93244  10576036.41744  22922895.5484   22922898.7104
  14600847.02044  11377278.80744  24524538.9974   24524543.6554
 -14487978.33944 -11289308.10144  22364365.1694   22364368.5914
  -4352482.60044  -3391529.51044  24142456.3614   24142464.5524
  -3675274.90944  -2863843.60644  24238090.4244   24238095.1524
 96  5 16  0  5  0.0000000  0  7G 6G16G 5G24G17G23G26
 -10246703.46944  -7984439.93544  20574833.7104   20574835.7904
  -1023488.64244   -797520.24344  21385803.6684   21385806.2234
  13675766.56044  10656437.64044  22942530.4074   22942533.6034
  14678118.99144  11437490.65644  24539243.4184   24539247.6954
 -14549306.07044 -11337095.86844  22352694.8094   22352698.3534
  -4456972.85144  -3472950.28744  24122572.4294   24122579.0024
  -3755322.22544  -2926218.04844  24222857.9414   24222863.3934
 96  5 16  0  5 30.0000000  0  7G 6G16G 5G24G17G23G26
 -10281935.28344  -8011893.29044  20568129.3174   20568131.2854
   -973860.10544   -758848.65644  21395247.6774   21395250.4124
  13779161.28644  10737004.90744  22962205.7324   22962208.8584
  14755397.85844  11497707.91244  24553949.1644   24553953.0114
 -14610382.53244 -11384687.85244  22341072.3574   22341076.2314
  -4561351.52344  -3554284.07244  24102709.7134   24102713.9714
  -3835311.80044  -2988547.47644  24207636.2784   24207640.5464
 96  5 16  0  6  0.0000000  0  7G 6G16G 5G24G17G23G26
 -10316869.01544  -8039114.37244  20561481.6864   20561483.6154
   -923751.99944   -719803.38244  21404782.9024   21404785.6974
  13882733.24544  10817710.28644  22981914.8804   22981918.5904
  14832643.32544  11557899.16244  24568648.7464   24568653.3524
 -14671223.26744 -11432096.13944  22329494.6514   22329498.2724
  -4665622.52144  -3635533.99344  24082867.4384   24082870.8334
  -3915246.89244  -3050834.46944  24192425.2874   24192427.8854
 96  5 16  0  6 30.0000000  0  7G 6G16G 5G24G17G23G26
 -10351498.08344  -8066098.05644  20554891.9794   20554894.0384
   -873158.61744   -680379.97044  21414410.5014   21414413.0534
  13986459.35344  10898535.77744  23001653.3164   23001656.4154
  14909842.39744  11618054.24244  24583339.2874   24583342.4594
 -14731825.06344 -11479318.24844  22317962.4764   22317966.3144
  -4769753.51744  -3716674.81544  24063051.7934   24063056.2384
  -3995120.46844  -3113073.53544  24177225.7944   24177228.8714
 96  5 16  0  7  0.0000000  0  7G 6G16G 5G24G17G23G26
 -10385806.04844  -8092831.52744  20548363.3914   20548365.4244
   -822072.39244   -640572.52444  21424131.8854   21424134.4574
  14090310.73644  10979458.87844  23021415.6184   23021418.8154
  14986990.59244  11678169.68944  24598020.0024   24598024.8034
 -14792188.15544 -11526354.36444  22306475.6614   22306479.2554
  -4873743.81244  -3797705.99844  24043262.8924   24043267.1314
  -4074936.45044  -3175267.72744  24162037.2674   24162040.4434
 96  5 16  0  7 30.0000000  0  7G 6G16G 5G24G17G23G26
 -10419798.33044  -8119319.01144  20541894.8084   20541896.7754
   -770488.43544   -600377.23544  21433948.0664   21433950.5264
  14194279.18644  11060473.20744  23041200.2214   23041203.7904
  15064068.66144  11738230.50844  24612687.5354   24612690.5124
 -14852327.42744 -11573216.08444  22295031.5384   22295035.0094
  -4977619.01844  -3878647.51244  24023495.8734   24023501.3264
  -4154710.48044  -3237429.23444  24146856.7004   24146861.3144
 96  5 16  0  8  0.0000000  0  7G 6G16G 5G24G17G23G26
 -10453480.09444  -8145564.53844  20535485.3544   20535487.4824
   -718386.83944   -559778.59244  21443862.6804   21443865.3584
  14298384.35344  11141594.06744  23061010.8144   23061014.0174
  15141083.91944  11798242.34944  24627342.9044   24627348.2274
 -14912246.22144 -11619906.01344  22283629.2624   22283632.4664
  -5081372.30044  -3959494.02744  24003752.1354   24003757.0584
  -4234443.67844  -3299558.92344  24131683.9314   24131688.6554
 96  5 16  0  8 30.0000000  0  7G 6G16G 5G24G17G23G26
 -10486839.77044  -8171559.08544  20529137.3134   20529139.2934
   -665748.61144   -518761.79344  21453879.3174   21453881.9444
  14402646.88544  11222837.54744  23080851.3394   23080854.5564
  15218080.72944  11858239.81644  24641995.1024   24641998.8904
 -14971939.18244 -11666419.97144  22272270.1024   22272273.5084
  -5184984.66044  -4040230.73744  23984035.1684   23984040.7554
  -4314115.69844  -3361640.93444  24116522.7934   24116525.8454
 96  5 16  0  9  0.0000000  0  7G 6G16G 5G24G17G23G26
 -10519901.91344  -8197321.78944  20522845.7194   20522847.6614
   -612600.42944   -477347.62744  21463993.0664   21463995.7914
  14507064.66644  11304201.99444  23100721.4294   23100724.4024
  15295052.13244  11918217.50044  24656642.3234   24656647.1084
 -15031425.80944 -11712773.15544  22260950.1274   22260953.7834
  -5288474.01644  -4120871.58844  23964341.6904   23964347.2714
  -4393733.17044  -3423680.44044  24101371.8914   24101377.7234
 96  5 16  0  9 30.0000000  0  7G 6G16G 5G24G17G23G26
 -10552675.88544  -8222859.94544  20516609.0784   20516611.0654
   -558954.20144   -435545.37444  21474201.6554   21474204.3674
  14611654.52844  11385700.54544  23120624.2764   23120627.4324
  15372001.84944  11978178.27944  24671285.5504   24671289.3064
 -15090708.97844 -11758967.80444  22249668.8984   22249672.0664
  -5391802.65944  -4201387.23844  23944678.7194   23944683.6554
  -4473274.56544  -3485660.68144  24086235.7634   24086239.1954
 96  5 16  0 10  0.0000000  0  7G 6G16G 5G24G17G23G26
 -10585171.39644  -8248181.11744  20510425.4374   20510427.3784
   -504834.69544   -393374.33544  21484500.2244   21484502.8544
  14716394.21944  11467315.83044  23140555.6204   23140559.5914
  15448918.57344  12038113.35444  24685922.2074   24685926.7584
 -15149795.61144 -11805009.30044  22238424.9614   22238428.7034
  -5494969.88544  -4281777.08244  23925046.4944   23925051.9454
  -4552736.79544  -3547579.23044  24071114.3854   24071117.4104
 96  5 16  0 10 30.0000000  0  7G 6G16G 5G24G17G23G26
 -10617372.55744  -8273272.92844  20504297.7534   20504299.6154
   -450244.27844   -350836.35044  21494888.3554   21494891.1924
  14821294.31544  11549056.11344  23160517.4044   23160520.5664
  15525804.16044  12098024.16644  24700553.0444   24700556.2854
 -15208651.57444 -11850871.05044  22227225.0824   22227228.8794
  -5597967.19544  -4362034.54444  23905446.5824   23905452.2954
  -4632087.68344  -3609410.99844  24056014.1594   24056017.3264
 96  5 16  0 11  0.0000000  0  7G 6G16G 5G24G17G23G26
 -10649295.13744  -8298147.65944  20498223.1234   20498225.0484
   -395209.19344   -307951.87044  21505361.1414   21505363.8364
  14926331.12844  11630902.92444  23180505.2494   23180509.9064
  15602617.36944  12157878.58244  24715170.0904   24715173.7354
 -15267285.14344 -11896559.51144  22216067.4334   22216070.7464
  -5700811.73744  -4442172.97544  23885875.8144   23885882.0804
  -4711338.03044  -3671164.44244  24040933.3974   24040936.5294
 96  5 16  0 11 30.0000000  0  7G 6G16G 5G24G17G23G26
 -10680922.85644  -8322792.62644  20492204.5214   20492206.4604
   -339711.58744   -264706.98544  21515922.1074   21515924.7004
  15031515.56144  11712864.76844  23200521.1864   23200525.2004
  15679368.91944  12217684.93244  24729775.6434   24729778.8904
 -15325673.97444 -11942057.26844  22204956.4064   22204959.6074
  -5803499.05644  -4522188.89444  23866334.9484   23866340.0044
  -4790473.74444  -3732828.53344  24025874.3594   24025878.6774
 96  5 16  0 12  0.0000000  0  7G 6G16G 5G24G17G23G26
 -10712259.96544  -8347211.14444  20486241.2304   20486243.2114
   -283769.64144   -221115.86344  21526567.5104   21526570.1434
  15136832.74844  11794930.05444  23220562.3844   23220566.2794
  15756050.57044  12277436.83444  24744367.6644   24744370.6434
 -15383819.15544 -11987365.17044  22193891.7024   22193894.8074
  -5906074.46244  -4602117.62144  23846815.2934   23846821.4414
  -4869512.54144  -3794417.14644  24010833.7694   24010838.6744
 96  5 16  0 12 30.0000000  0  7G 6G16G 5G24G17G23G26
 -10743290.20144  -8371390.53744  20480336.3874   20480338.4434
   -227373.02644   -177170.45244  21537299.4464   21537301.9224
  15242293.34544  11877107.08144  23240630.9824   23240634.5784
  15832672.27244  12337141.98544  24758948.2924   24758951.6164
 -15441727.53744 -12032488.54244  22182872.0674   22182875.2684
  -6008526.25844  -4681950.02544  23827319.1554   23827323.9924
  -4948446.11744  -3855923.76444  23995813.1144   23995818.0674
 96  5 16  0 13  0.0000000  0  7G 6G16G 5G24G17G23G26
 -10774018.92744  -8395334.98944  20474488.8794   20474490.8914
   -170515.30044   -132865.73544  21548119.0844   21548121.7724
  15347886.50444  11959387.39644  23260724.8054   23260728.2974
  15909243.33844  12396807.73544  24773519.2504   24773523.0584
 -15499434.89444 -12077455.28244  22171890.7354   22171894.1424
  -6110859.99544  -4761690.46744  23807845.8764   23807851.6044
  -5027301.54644  -3917369.45944  23980807.3524   23980811.7894
 96  5 16  0 13 30.0000000  0  7G 6G16G 5G24G17G23G26
 -10804440.28244  -8419039.92944  20468699.9044   20468701.8574
   -113181.27544    -88189.88044  21559029.3944   21559032.1544
  15453625.74744  12041781.55744  23280846.3004   23280850.5594
  15985786.92144  12456452.02944  24788084.9644   24788087.4844
 -15556942.16144 -12122266.11044  22160947.4754   22160951.1184
  -6213075.18844  -4841338.50844  23788394.7714   23788401.2394
  -5106082.73644  -3978757.29844  23965815.7764   23965819.1914
 96  5 16  0 14  0.0000000  0  7G 6G16G 5G24G17G23G26
 -10834542.31744  -8442496.05144  20462971.6624   20462973.6534
    -55359.61944    -43134.04744  21570032.4004   21570035.2744
  15559493.54544  12124275.87444  23300992.2894   23300996.5694
  16062296.02744  12516069.47344  24802644.3494   24802649.8234
 -15614265.65744 -12166933.73644  22150039.0964   22150042.2954
  -6315163.91944  -4920888.02344  23768967.7264   23768972.8504
  -5184791.37244  -4040088.63944  23950837.9674   23950841.3974
 96  5 16  0 14 30.0000000  0  8G 6G16G 5G24G17G22G23G26
 -10864309.61944  -8465691.34144  20457307.0804   20457309.1314
      2984.40144      2328.81944  21581134.9344   21581137.6014
  15665494.35544  12206873.85344  23321163.6264   23321166.9914
  16138789.65444  12575674.85944  24817200.4624   24817204.4484
 -15671399.25044 -12211453.40244  22139166.8454   22139170.0504
         0.03354         0.78954  25215252.2704   25215255.4804
  -6417093.43744  -5000313.47944  23749571.1214   23749577.7954
  -5263410.94144  -4101350.54244  23935876.9034   23935880.0944
 96  5 16  0 15  0.0000000  0  8G 6G16G 5G24G17G22G23G26
 -10893770.66244  -8488647.98844  20451700.8324   20451702.7574
     61818.84944     48173.83744  21592330.8164   21592333.3834
  15771611.78144  12289562.68344  23341357.2414   23341360.6804
  16215255.35444  12635258.42744  24831751.6484   24831754.9284
 -15728346.72044 -12255828.03944  22128330.1114   22128333.3644
    -87479.61844    -68165.10444  25198605.3064   25198612.4014
  -6518875.69444  -5079624.19244  23730202.4254   23730207.2134
  -5341969.71044  -4162565.09344  23920927.6044   23920930.3384
 96  5 16  0 15 30.0000000  0  8G 6G16G 5G24G17G22G23G26
 -10922921.21844  -8511362.69844  20446153.6374   20446155.5454
    121120.44444     94382.86544  21603615.5114   21603618.1954
  15877841.71844  12372339.20644  23361572.0244   23361576.8714
  16291685.74244  12694814.58844  24846295.9004   24846300.8734
 -15785083.85844 -12300038.78144  22117533.3884   22117536.9924
   -174690.86044   -136121.89744  25182009.6814   25182012.9874
  -6620499.40344  -5158811.35544  23710864.0084   23710869.0714
  -5420441.49044  -4223711.85344  23905995.0384   23905999.8554
 96  5 16  0 16  0.0000000  0  8G 6G16G 5G24G17G22G23G26
 -10951745.20244  -8533822.94044  20440668.5704   20440670.5654
    180884.15144    140951.98044  21614988.1264   21614991.1224
  15984170.98444  12455193.11144  23381805.8914   23381809.6374
  16368085.25744  12754346.63244  24860834.1904   24860837.5744
 -15841593.05444 -12344071.90444  22106780.0354   22106783.4884
   -261624.77944   -203862.55344  25165466.7684   25165474.0194
  -6721946.31144  -5237860.76444  23691559.0844   23691564.6954
  -5498808.43644  -4284776.94944  23891082.3654   23891086.0484
 96  5 16  0 16 30.0000000  0  8G 6G16G 5G24G17G22G23G26
 -10980259.15544  -8556041.59844  20435242.4474   20435244.4544
    241083.26444    187860.37244  21626443.6664   21626446.5194
  16090602.38944  12538126.59644  23402059.1894   23402062.8694
  16444455.62944  12813855.99744  24875366.8954   24875370.4654
 -15897870.55844 -12387924.49544  22096070.7424   22096074.0424
   -348284.83744   -271389.83244  25148975.6664   25148981.8384
  -6823213.39944  -5316770.05644  23672288.5204   23672292.8354
  -5577074.43844  -4345763.36544  23876188.7434   23876191.3854
 96  5 16  0 17  0.0000000  0  8G 6G16G 5G24G17G22G23G26
 -11008454.94644  -8578012.34344  20429876.9034   20429879.0044
    301705.46844    235098.44744  21637979.6034   21637982.6264
  16197141.63344  12621144.12744  23422332.8384   23422336.8154
  16520791.32844  12873338.30344  24889892.9234   24889897.0604
 -15953906.37744 -12431588.74244  22085407.3664   22085410.6654
   -434664.21544   -338698.42244  25132538.2374   25132543.4164
  -6924302.10844  -5395540.35444  23653051.6114   23653056.5544
  -5655225.50444  -4406660.22344  23861316.8064   23861319.9714
 96  5 16  0 17 30.0000000  0  8G 6G16G 5G24G17G22G23G26
 -11036313.59244  -8599720.37344  20424575.6234   20424577.6534
    362769.48644    282680.79544  21649599.7284   21649602.4794
  16303782.47444  12704240.82044  23442625.9904   23442630.3264
  16597078.85144  12932783.09944  24904410.0534   24904414.4834
 -16009701.68044 -12475065.57644  22074789.8024   22074793.4474
   -520754.03444   -405781.34744  25116155.9254   25116159.1004
  -7025214.14144  -5474172.98844  23633848.8104   23633854.5084
  -5733240.28644  -4467450.88344  23846471.1714   23846474.1784
 96  5 16  0 18  0.0000000  0  8G 6G16G 5G24G17G22G23G26
 -11063852.45844  -8621179.22344  20419335.2824   20419337.2614
    424261.62744    330596.74644  21661301.3984   21661304.1584
  16410503.93444  12787400.32744  23462934.6424   23462938.4944
  16673290.67844  12992168.90544  24918912.9714   24918916.3124
 -16065292.56044 -12518383.12544  22064211.3254   22064214.8714
   -606589.38044   -472666.00044  25099822.1004   25099824.2754
  -7125974.18944  -5552687.20044  23614674.7604   23614680.3584
  -5811146.69144  -4528157.09544  23831646.2404   23831649.3884
 96  5 16  0 18 30.0000000  0  8G 6G16G 5G24G17G22G23G26
 -11091062.85844  -8642382.12644  20414157.3634   20414159.2574
    486180.01344    378844.83344  21673084.0894   21673086.8104
  16517325.48244  12870637.82944  23483262.0834   23483266.2384
  16749423.36144  13051493.06044  24933400.6204   24933405.5564
 -16120682.20644 -12561543.85744  22053671.0084   22053674.3284
   -692165.31444   -539348.51844  25083537.3754   25083540.9484
  -7226581.22244  -5631082.18844  23595529.8024   23595535.5984
  -5888928.38044  -4588766.12944  23816844.6154   23816848.1204
 96  5 16  0 19  0.0000000  0  8G 6G16G 5G24G17G22G23G26
 -11117921.27544  -8663310.75644  20409046.3004   20409048.2344
    548539.44344    427436.59344  21684950.6754   21684953.5054
  16624255.64344  12953959.95744  23503610.3174   23503614.4904
  16825479.40244  13110757.45244  24947873.6794   24947880.9724
 -16175857.18944 -12604537.32044  22043171.6174   22043174.8554
   -777463.54044   -605814.63344  25067305.6254   25067312.8304
  -7327032.77444  -5709356.02044  23576414.5914   23576419.7744
  -5966561.78444  -4649259.60844  23802071.4934   23802074.5334
 96  5 16  0 19 30.0000000  0  8G 6G16G 5G24G17G22G23G26
 -11144417.27944  -8683956.98844  20404004.2894   20404006.2374
    611358.59144    476386.57844  21696904.8014   21696907.4654
  16731299.85044  13037370.96744  23523980.3154   23523984.5114
  16901469.44144  13169970.41344  24962333.9434   24962337.1114
 -16230814.34444 -12647361.05644  22032713.5974   22032716.8004
   -862477.32944   -672059.11944  25051127.8934   25051133.0914
  -7427312.09244  -5787495.64544  23557331.9034   23557336.9924
  -6044040.19644  -4709632.32644  23787327.8504   23787331.1894
 96  5 16  0 20  0.0000000  0  8G 6G16G 5G24G17G22G23G26
 -11170546.40544  -8704317.34444  20399032.1274   20399034.0664
    674635.46844    525693.22844  21708945.9654   21708948.6604
  16838461.41344  13120873.41144  23544372.4504   23544375.8124
  16977420.91944  13229153.36844  24976787.0794   24976790.7334
 -16285545.41144 -12690008.62744  22022298.7084   22022301.9264
   -947208.74244   -738083.54744  25035004.1264   25035008.4814
  -7527402.74544  -5865488.25144  23538285.2004   23538289.7874
  -6121353.92544  -4769876.71344  23772615.2424   23772619.1004
 96  5 16  0 20 30.0000000  0  8G 6G16G 5G24G17G22G23G26
 -11196335.18144  -8724412.49244  20394124.7274   20394126.6424
    738352.62744    575342.95844  21721070.9244   21721073.8214
  16945714.59044  13204447.24244  23564782.1194   23564786.2554
  17053327.45544  13288301.26144  24991231.6604   24991236.4974
 -16340058.63844 -12732486.45544  22011925.1054   22011928.3394
  -1031657.39444   -803887.65944  25018933.9194   25018938.8194
  -7627314.13244  -5943341.17944  23519272.7264   23519276.8224
  -6198525.86144  -4830010.60744  23757929.9544   23757934.4344
 96  5 16  0 21  0.0000000  0  8G 6G16G 5G24G17G22G23G26
 -11221787.83844  -8744245.73144  20389281.2534   20389283.1644
    802533.67444    625354.15744  21733284.1994   21733286.7144
  17053067.83444  13288099.04044  23585210.8014   23585215.4224
  17129216.04944  13347435.19444  25005672.8244   25005675.1524
 -16394342.92044 -12774785.88044  22001595.1234   22001598.4354
  -1115807.02744   -869458.73944  25002920.6604   25002922.8884
  -7727020.43844  -6021034.29544  23500299.0264   23500303.7584
  -6275550.87044  -4890030.02044  23743272.5094   23743276.4474
 96  5 16  0 21 30.0000000  0  8G 6G16G 5G24G17G22G23G26
 -11246910.96744  -8763822.19144  20384500.4574   20384502.4614
    867165.54044    675716.64444  21745583.2714   21745585.9914
  17160507.91144  13371818.50044  23605656.0404   23605659.1294
  17205098.29344  13406564.17544  25020112.7584   25020118.2564
 -16448403.83444 -12816911.24944  21991307.5534   21991310.8084
  -1199658.28144   -934797.37444  24986964.3484   24986968.5454
  -7826515.11044  -6098562.49844  23481365.7344   23481371.6544
  -6352439.25744  -4949942.97744  23728641.3004   23728644.5124
 96  5 16  0 22  0.0000000  0  8G 6G16G 5G24G17G22G23G26
 -11271714.89544  -8783149.92344  20379780.4314   20379782.3264
    932220.41144    726408.74644  21757962.7244   21757965.6224
  17268010.16644  13455586.41344  23626113.2004   23626116.9534
  17280972.64244  13465687.02544  25034550.9604   25034554.5344
 -16502253.10744 -12858871.70344  21981060.5204   21981063.9484
  -1283210.86744   -999903.23944  24971064.9114   24971069.3464
  -7925807.80444  -6175933.32944  23462470.9414   23462475.2904
  -6429197.84444  -5009754.80144  23714034.6744   23714037.8634
 96  5 16  0 22 30.0000000  0  8G 6G16G 5G24G17G22G23G26
 -11296206.22744  -8802234.07644  20375119.8144   20375121.7744
    997702.15444    777433.47644  21770423.5214   21770426.3544
  17375568.95344  13539398.37244  23646581.0224   23646584.8474
  17356817.84444  13524787.13644  25048984.2054   25048985.8394
 -16555899.51344 -12900674.07344  21970851.9104   21970855.1064
  -1366461.55344  -1064773.83844  24955223.0534   24955226.2464
  -8024902.00044  -6253149.50244  23443613.7884   23443618.6784
  -6505836.78644  -5069473.40744  23699450.6164   23699452.4714
 96  5 16  0 23  0.0000000  0  8G 6G16G 5G24G17G22G23G26
 -11320353.48144  -8821050.11244  20370524.7184   20370526.7104
   1063621.56544    828799.24144  21782967.5504   21782970.3884
  17483192.71544  13623260.97344  23667061.1424   23667064.5624
  17432630.58644  13583861.95644  25063410.9774   25063414.8234
 -16609338.86644 -12942315.09144  21960682.7294   21960686.1014
  -1449404.31344  -1129404.52244  24939439.3304   24939442.3634
  -8123796.76344  -6330210.25544  23424794.7284   23424800.0684
  -6582332.28144  -5129080.19944  23684893.8544   23684896.5234
 96  5 16  0 23 30.0000000  0  8G 6G16G 5G24G17G22G23G26
 -11344150.31944  -8839593.09844  20365996.3624   20365998.2624
   1129958.93344    880490.68944  21795591.1144   21795594.0414
  17590859.32444  13707156.95544  23687549.4704   23687553.2634
  17508382.96444  13642889.72344  25077826.1634   25077830.6154
 -16662574.31244 -12983797.22844  21950552.2364   21950555.4284
  -1532048.05544  -1193802.20044  24923712.6754   24923716.0074
  -8222517.46844  -6407135.38744  23406008.6864   23406013.6334
  -6658684.89544  -5188575.67744  23670364.3304   23670367.0164
 96  5 16  0 24  0.0000000  0  8G 6G16G 5G24G17G22G23G26
 -11367599.67644  -8857865.31944  20361534.0484   20361535.9454
   1196729.82444    932519.94144  21808297.2244   21808299.9814
  17698579.94644  13791095.01644  23708048.0644   23708052.2884
  17584052.02344  13701852.63244  25092225.4054   25092230.9224
 -16715608.66244 -13025122.67444  21940460.1754   21940463.4844
  -1614394.84644  -1257968.48044  24908042.5144   24908046.1744
  -8321066.06844  -6483926.41644  23387255.4844   23387260.4074
  -6734888.00844  -5247954.65944  23655863.3364   23655866.5104
 96  5 16  0 24 30.0000000  0  8G 6G16G 5G24G17G22G23G26
 -11390700.78444  -8875866.17544  20357138.0654   20357140.0494
   1263944.91144    984895.32644  21821087.8984   21821090.7844
  17806375.92944  13875091.80144  23728560.9324   23728565.7684
  17659625.72344  13760741.20044  25106606.6074   25106610.7214
 -16768431.57044 -13066283.35744  21930408.4074   21930411.5844
  -1696439.55944  -1321899.39544  24892429.7794   24892434.6474
  -8419437.01144  -6560579.01444  23368536.0374   23368540.3024
  -6810931.01244  -5307208.87244  23641392.7524   23641394.4154
 96  5 16  0 25  0.0000000  0  8G 6G16G 5G24G17G22G23G26
 -11413442.69244  -8893587.13644  20352810.3644   20352812.2414
   1331586.31344   1037602.90344  21833959.6384   21833962.2334
  17914261.37844  13959158.30444  23749091.0464   23749095.1034
  17735120.98844  13819568.63744  25120972.8964   25120976.7674
 -16821032.69744 -13107271.22144  21920398.6334   21920401.7734
  -1778174.97044  -1385589.27644  24876875.8944   24876883.0004
  -8517625.31744  -6637089.30944  23349851.3044   23349855.9344
  -6886793.85544  -5366322.72144  23626956.5744   23626960.0374
 96  5 16  0 25 30.0000000  0  8G 6G16G 5G24G17G22G23G26
 -11435833.96844  -8911034.88144  20348549.6034   20348551.5034
   1399657.47544   1090645.35444  21846913.1244   21846915.6034
  18022246.28744  14043302.31444  23769639.8264   23769644.2744
  17810560.44544  13878352.57644  25135328.7824   25135332.0654
 -16873410.31244 -13148084.92644  21910431.4084   21910434.5404
  -1859593.04544  -1449031.89744  24861382.4304   24861385.4874
  -8615607.81244  -6713439.22144  23331205.7164   23331209.9424
  -6962471.92044  -5425292.57344  23612555.3094   23612558.6394
 96  5 16  0 26  0.0000000  0  8G 6G16G 5G24G17G22G23G26
 -11457883.84244  -8928216.60044  20344353.5594   20344355.5144
   1468153.16344   1144018.60544  21859947.4034   21859950.1044
  18130333.57244  14127526.07844  23790208.2394   23790212.9054
  17885953.01744  13937099.98344  25149675.3214   25149679.3514
 -16925577.09244 -13188734.33844  21900504.4894   21900507.6974
  -1940707.62644  -1512237.99744  24845946.8774   24845950.6274
  -8713378.10044  -6789623.76244  23312600.5974   23312604.6004
  -7037969.15344  -5484121.52244  23598188.5124   23598192.1184
 96  5 16  0 26 30.0000000  0  8G 6G16G 5G24G17G22G23G26
 -11479578.62344  -8945121.61344  20340224.9054   20340227.0224
   1537051.61244   1197705.69844  21873058.2644   21873061.1764
  18238514.43944  14211822.77044  23810794.2394   23810798.5294
  17961326.32444  13995832.39444  25164018.2784   25164022.5854
 -16977527.55744 -13229215.18344  21890618.4874   21890621.8274
  -2021515.98844  -1575205.55044  24830569.3944   24830574.4494
  -8810938.68044  -6865644.90444  23294035.2304   23294039.8564
  -7113279.63844  -5542804.93844  23583857.3414   23583860.5394
 96  5 16  0 27  0.0000000  0  8G 6G16G 5G24G17G22G23G26
 -11500925.87444  -8961755.83244  20336162.6824   20336164.9254
   1606325.44944   1251685.30044  21886240.5524   21886243.3944
  18346768.21944  14296176.28744  23831394.3514   23831398.6114
  18036675.83044  14054546.28644  25178356.6714   25178358.0814
 -17029275.03944 -13269537.86544  21880771.1514   21880774.4394
  -2102034.77544  -1637947.37444  24815247.2284   24815251.8674
  -8908302.12644  -6941512.43944  23275507.5164   23275512.7044
  -7188414.43444  -5601351.47944  23569559.4154   23569562.5474
 96  5 16  0 27 30.0000000  0  8G 6G16G 5G24G17G22G23G26
 -11521932.66544  -8978124.76044  20332165.3994   20332167.3544
   1675970.53444   1305954.18744  21899493.6854   21899496.5554
  18455073.73844  14380570.11044  23852004.4244   23852009.3054
  18111975.43344  14113221.24244  25192685.9544   25192691.2144
 -17080828.54844 -13309709.40544  21870961.0494   21870964.2514
  -2182269.59044  -1700467.98244  24799979.1434   24799983.8894
  -9005476.19744  -7017232.41044  23257015.9724   23257021.1734
  -7263387.44144  -5659771.93544  23555292.7724   23555295.9054
 96  5 16  0 28  0.0000000  0  8G 6G16G 5G24G17G22G23G26
 -11542587.05044  -8994219.08444  20328235.0494   20328237.0324
   1745971.82944   1360500.63744  21912814.4394   21912817.5124
  18563418.73544  14464994.68944  23872621.7894   23872626.4904
  18187206.85444  14171843.08944  25207002.0804   25207004.6734
 -17132174.08944 -13349718.88944  21861190.2014   21861193.4054
  -2262218.80244  -1762766.01344  24784765.1064   24784771.4824
  -9102467.09444  -7092809.65544  23238559.1134   23238563.7484
  -7338199.51744  -5718067.00944  23541056.3964   23541059.5684
 96  5 16  0 28 30.0000000  0  8G 6G16G 5G24G17G22G23G26
 -11562854.58544  -9010011.96844  20324378.1854   20324380.3214
   1816356.16844   1415345.56744  21926208.1484   21926211.0274
  18671818.54544  14549461.97744  23893249.5064   23893254.7734
  18262384.72744  14230423.25444  25221307.6944   25221311.9654
 -17183281.03444 -13389542.44744  21851464.7014   21851468.1374
  -2341832.55744  -1824802.64444  24769615.0714   24769618.2824
  -9199234.71844  -7168212.89044  23220144.6864   23220149.5874
  -7412818.65444  -5776211.72344  23526856.6324   23526859.7704
 96  5 16  0 29  0.0000000  0  8G 6G16G 5G24G17G22G23G26
 -11582742.54544  -9025509.07944  20320593.5914   20320595.6604
   1887137.06644   1470499.50344  21939677.3304   21939680.0314
  18780256.55844  14633959.04244  23913884.7054   23913890.6704
  18337488.33644  14288945.52344  25235599.5764   25235603.1544
 -17234161.36944 -13429189.43744  21841782.5054   21841785.7304
  -2421103.26844  -1886571.99544  24754530.5214   24754536.7174
  -9295766.07344  -7243432.03644  23201775.3364   23201779.4434
  -7487252.75044  -5834212.25344  23512692.3034   23512695.5134
 96  5 16  0 29 30.0000000  0  8G 6G16G 5G24G17G22G23G26
 -11602240.81244  -9040702.53544  20316883.2334   20316885.3344
   1958327.28644   1525972.38744  21953224.3504   21953227.5074
  18888719.86444  14718475.81044  23934524.7204   23934529.9244
  18412526.66144  14347416.87644  25249879.0054   25249883.1084
 -17284813.75044 -13468658.80044  21832143.7124   21832146.8944
  -2500025.07744  -1948069.45444  24739512.2854   24739515.8554
  -9392054.95744  -7318462.24644  23183452.0914   23183456.2424
  -7561506.75444  -5892072.45744  23498562.1054   23498564.9914
 96  5 16  0 30  0.0000000  0  8G 6G16G 5G24G17G22G23G26
 -11621343.49144  -9055587.74144  20313248.1784   20313250.1564
   2029925.56544   1581763.24544  21966849.1134   21966852.1434
  18997206.50244  14803010.75044  23955169.1044   23955174.3024
  18487520.58344  14405853.68044  25264149.9804   25264153.2044
 -17335239.02844 -13507951.20344  21822548.0724   21822551.3274
  -2578590.57844  -2009289.29844  24724561.8124   24724563.5414
  -9488101.33344  -7393303.49344  23165175.0394   23165180.2414
  -7635569.88544  -5949783.93344  23484468.5074   23484471.6984
 96  5 16  0 30 30.0000000  0  8G 6G16G 5G24G17G22G23G26
 -11640050.36444  -9070164.52644  20309688.4064   20309690.3534
   2101938.65344   1637877.32844  21980552.8414   21980555.7334
  19105712.02044  14887560.40744  23975817.0614   23975821.6934
  18562481.62144  14464264.74744  25278414.4514   25278420.2784
 -17385449.42644 -13547076.15744  21812993.2254   21812996.6534
  -2656806.97944  -2070237.07744  24709677.6354   24709682.6064
  -9583909.52144  -7467959.12944  23146943.3114   23146947.8894
  -7709432.80744  -6007339.38644  23470412.8064   23470415.5694
 96  5 16  0 31  0.0000000  0  8G 6G16G 5G24G17G22G23G26
 -11658369.66844  -9084439.30944  20306202.2924   20306204.2384
   2174348.35144   1694300.45944  21994331.9474   21994334.8304
  19214230.80344  14972120.40244  23996467.5164   23996471.1054
  18637405.55144  14522646.97944  25292672.0674
 -17435447.20544 -13586035.43644  21803479.0204   21803482.3884
  -2734697.59544  -2130931.03144  24694855.4924   24694858.2734
  -9679503.50644  -7542447.85844  23128752.3084   23128756.8404
  -7783104.95944  -6064746.21744  23456393.4334   23456396.4314
 96  5 16  0 31 30.0000000  0  8G 6G16G 5G24G17G22G23G26
 -11676293.45444  -9098405.89744  20302791.5404   20302793.4954
   2247142.62844   1751023.26444  22008184.2354   22008187.0814
  19322785.12844  15056708.08644  24017124.9004   24017130.9334
  18712304.68444                  25306924.9154
 -17485217.05844 -13624817.10644  21794008.1114   21794011.4514
  -2812265.06644  -2191373.16544  24680094.6504   24680098.4794
  -9774887.44244  -7616772.91644  23110601.4074   23110605.5444
  -7856566.86544  -6121989.19644  23442413.9944   23442417.2704
 96  5 16  0 32  0.0000000  0  8G 6G16G 5G24G17G22G23G26
 -11693829.33044  -9112070.21944  20299454.5754   20299456.5744
   2320314.71344   1808040.46044  22022108.4204   22022111.4644
  19431376.10044  15141324.33444  24037789.3204   24037793.8244
  18787172.88044                  25321172.1904
 -17534760.80844 -13663422.59444  21784580.1884   21784583.3884
  -2889506.61844  -2251561.34344  24665396.1494   24665399.8344
  -9870050.02644  -7690925.49744  23092492.4534   23092496.5034
  -7929794.34944  -6179049.52644  23428479.3224   23428481.8174
 96  5 16  0 32 30.0000000  0  8G 6G16G 5G24G17G22G23G26
 -11710981.07944  -9125435.21644  20296190.6634   20296192.6504
   2393891.42344   1865372.94844  22036109.6164   22036112.2464
  19540013.03544  15225976.38644  24058462.1184   24058465.8734
  18862014.19844                  25335414.0514
 -17584069.58344 -13701844.99544  21775197.0454   21775200.3794
  -2966404.74544  -2311481.91844  24650762.9364   24650766.2854
  -9964962.79544  -7764883.41144  23074431.1954   23074435.4314
  -8002772.11744  -6235915.25444  23414592.0654   23414595.1134
 96  5 16  0 33  0.0000000  0  8G 6G16G 5G24G17G22G23G26
 -11727758.06244  -9138508.18944  20292998.1384   20293000.2584
   2467863.05244   1923013.16544  22050185.8754   22050188.9114
  19648704.65044  15310671.04944  24079145.4274   24079150.4434
  18936818.55344  14755956.66744  25349648.7644   25349651.1524
 -17633147.88344 -13740087.80644  21765857.7384   21765861.0154
  -3042936.68044  -2371117.14144  24636198.9704   24636203.7574
 -10059617.16044  -7838639.97944  23056418.8404   23056423.2774
  -8075502.83544  -6292588.48544  23400751.6764   23400754.8634
 96  5 16  0 33 30.0000000  0  8G 6G16G 5G24G17G22G23G26
 -11744185.55044  -9151308.83144  20289872.0664   20289874.1574
   2542210.27144   1980946.05244  22064333.6354   22064336.6864
  19757425.54344  15395388.51544  24099834.4754   24099838.7394
  19011565.44744  14814207.17444  25363872.3814   25363875.5054
 -17682034.68244 -13778181.39644  21756554.7574   21756558.0874
  -3119115.03744  -2430476.87144  24621702.6064   24621706.9274
 -10154024.43344  -7912204.01344  23038453.7164   23038457.8914
  -8148011.13044  -6349088.40244  23386953.8754   23386957.3104
 96  5 16  0 34  0.0000000  0  8G 6G16G 5G24G17G22G23G26
 -11760283.39444  -9163852.60844  20286808.7364   20286810.9024
   2616934.83744   2039172.97244  22078553.3004   22078556.2204
  19866151.63544  15480110.03844  24120524.2614   24120528.7814
  19086235.46944  14872389.49944  25378081.7394   25378084.9234
 -17730752.65344 -13816143.43144  21747284.0214   21747287.2734
  -3194941.12644  -2489562.08744  24607273.5324   24607276.3904
 -10248195.81544  -7985584.24044  23020533.2934   23020537.4994
  -8220308.31344  -6405423.81044  23373195.9994   23373199.6244
 96  5 16  0 34 30.0000000  0  8G 6G16G 5G24G17G22G23G26
 -11776046.28844  -9176135.38344  20283809.0794   20283811.1154
   2692025.67044   2097685.30244  22092842.6234   22092845.6644
  19974884.37644  15564836.74244  24141215.6744   24141222.3944
  19160827.27244  14930508.64444  25392276.2724   25392280.5514
 -17779306.96444 -13853977.93544  21738044.5094   21738047.8614
  -3270412.90844  -2548371.23844  24592911.7134   24592915.6754
 -10342151.69044  -8058796.55344  23002653.9694   23002658.3024
  -8292416.46044  -6461611.92844  23359474.4364   23359477.7914
 96  5 16  0 35  0.0000000  0  7G 6G16G 5G17G22G23G26
 -11791422.20144  -9188116.61344  20280883.1404   20280885.2944
   2767489.53544   2156488.29744  22107202.9224   22107205.9784
  20083655.25844  15649593.16744  24161914.0424   24161920.6584
 -17827662.68544 -13891657.70444  21728842.7734   21728846.1414
  -3345511.28844  -2606889.42644  24578621.1374   24578625.9314
 -10435879.93344  -8131831.48844  22984818.1274   22984822.4414
  -8364301.13244  -6517625.92244  23345795.0784   23345797.0234
 96  5 16  0 35 30.0000000  0  7G 6G16G 5G17G22G23G26
 -11806430.42944  -9199811.33944  20278027.2154   20278029.2374
   2843296.50144   2215558.64744  22121628.4944   22121631.4664
  20192424.16844  15734348.03244  24182612.1224   24182617.8844
 -17875834.05644 -13929193.82144  21719675.9834   21719679.2064
  -3420274.12944  -2665146.15544  24564394.2834   24564396.8084
 -10529407.20544  -8204709.84444  22967020.4254   22967024.5694
  -8435964.99144  -6573467.84644  23332157.8514   23332161.4594
 96  5 16  0 36  0.0000000  0  7G 6G16G 5G17G22G23G26
 -11821073.53944  -9211221.55644  20275240.7874   20275242.9104
   2919430.62844   2274883.92844  22136116.3754   22136119.1694
  20301180.88544  15819093.42444  24203308.0014   24203311.7734
 -17923811.72944 -13966578.99344  21710546.0944   21710549.4034
  -3494702.65544  -2723142.37844  24550230.9904   24550236.1244
 -10622734.13144  -8277432.05644  22949260.9384   22949265.3554
  -8507391.16344  -6629124.55144  23318565.9264   23318569.9404
 96  5 16  0 36 30.0000000  0  7G 6G16G 5G17G22G23G26
 -11835292.13744  -9222300.98644  20272534.9874   20272537.0854
   2995925.10944   2334490.00344  22150672.7464   22150675.7114
  20409965.79644  15903860.78044  24224009.2264   24224015.4774
 -17971546.64344 -14003775.00544  21701462.4684   21701465.9064
  -3568759.39244  -2780848.88544  24536138.3794   24536141.8094
 -10715804.38044  -8349954.25144  22931550.1974   22931554.3914
  -8578531.10644  -6684558.21644  23305028.4184   23305031.4544
 96  5 16  0 37  0.0000000  0  7G 6G16G 5G17G22G23G26
 -11849103.33244  -9233062.95744  20269906.7584   20269908.7864
   3072764.69244   2394364.99244  22165294.8104   22165297.8334
  20518752.49844  15988629.51044  24244710.7284   24244716.0994
 -18019052.72344 -14040792.70444  21692422.3984   21692425.6624
  -3642465.65944  -2838282.31044  24522112.4714   24522115.6374
 -10808620.76344  -8422278.64444  22913887.8454   22913892.3064
  -8649389.18844  -6739772.27244  23291544.4764   23291547.0984
 96  5 16  0 37 30.0000000  0  7G 6G16G 5G17G22G23G26
 -11862518.70744  -9243516.49844  20267354.0024   20267356.0014
   3149967.53944   2454523.03944  22179986.0264   22179989.0964
  20627539.95644  16073398.83844  24265412.4004   24265420.1834
 -18066333.71444 -14077635.00844  21683425.0924   21683428.3154
  -3715808.41044  -2895432.46644  24508155.8434   24508159.5544
 -10901163.51744  -8494389.82844  22896277.4194   22896281.9414
  -8719976.33044  -6794775.19344  23278112.1804   23278114.8464
 96  5 16  0 38  0.0000000  0  7G 6G16G 5G17G22G23G26
 -11875372.64044  -9253532.54944  20264908.0324   20264909.8404
   3227697.21244   2515091.60244  22194777.6214   22194780.3494
  20736483.63644  16158289.86944  24286143.7814   24286148.3744
 -18113250.98444 -14114193.88744  21674497.0934   21674500.2784
  -3788628.75444  -2952175.56644  24494298.7724   24494302.0584
 -10993267.74744  -8566159.28144  22878750.6064   22878754.4044
  -8790164.22344  -6849467.00244  23264755.9354   23264757.7264
 96  5 16  0 38 30.0000000  0  7G 6G16G 5G17G22G23G26
 -11887714.18244  -9263149.33244  20262559.4254   20262561.4764
   3305892.93244   2576023.31644  22209657.8144   22209660.9914
  20845531.93044  16243262.43944  24306895.2304   24306902.5624
 -18159865.64644 -14150516.97544  21665626.5174   21665629.7374
  -3860982.43244  -3008555.01244  24480530.2704   24480532.8484
 -11084995.76744  -8637635.59144  22861295.1934   22861299.7224
  -8860025.67744  -6903904.46144  23251461.6004   23251464.5614
 96  5 16  0 39  0.0000000  0  7G 6G16G 5G17G22G23G26
 -11900012.47544  -9272732.41944  20260219.2784   20260221.1034
   3384087.82244   2636954.38344  22224537.7974   22224540.7284
  20954226.39444  16327959.29044  24327579.2004   24327585.1824
 -18206631.82744 -14186958.12944  21656727.2014   21656730.3574
  -3933324.59944  -3064925.50944  24466763.9654   24466767.7024
 -11176814.22844  -8709182.36744  22843822.7044   22843826.9964
  -8930027.12144  -6958451.00144  23238140.8724   23238142.9704
 96  5 16  0 39 30.0000000  0  7G 6G16G 5G17G22G23G26
 -11912122.75144  -9282169.00244  20257914.7404   20257916.7834
   3462425.06344   2697996.36744  22239444.8734   22239447.9064
  21062715.08744  16412495.82244  24348223.8374   24348229.0074
 -18253409.38544 -14223408.15744  21647825.6904   21647828.8974
  -4005495.08644  -3121162.23444  24453030.3154   24453034.2494
 -11268576.30344  -8780685.23044  22826360.9494   22826365.3954
  -9000020.80344  -7012991.49344  23224821.5674   23224824.4774
 96  5 16  0 40  0.0000000  0  7G 6G16G 5G17G22G23G26
 -11923962.62944  -9291394.88244  20255661.6384   20255663.7044
   3540958.90344   2759191.55344  22254389.3744   22254392.4934
  21171058.56744  16496919.17844  24368840.9904   24368847.4184
 -18300114.61044 -14259801.81844  21638937.9474   21638941.2434
  -4077425.54644  -3177211.87044  24439342.3054   24439345.8344
 -11360213.07844  -8852090.45044  22808922.8904   22808927.0554
  -9069913.26444  -7067453.10544  23211521.3954   23211523.9554
 96  5 16  0 40 30.0000000  0  7G 6G16G 5G17G22G23G26
 -11935111.48244  -9300082.30144  20253540.1124   20253542.2094
   3620116.03944   2820872.42144  22269452.5914   22269455.6224
  21279681.11144  16581559.96344  24389511.4144   24389518.4874
 -18346295.41144 -14295786.84144  21630149.8954   21630153.3244
  -4148687.38744  -3232740.56944  24425781.3594   24425784.9694
 -11451305.46144  -8923071.45944  22791588.6554   22791593.0784
  -9139253.89244  -7121484.72444  23198326.1534   23198329.3604
 96  5 16  0 41  0.0000000  0  7G 6G16G 5G17G22G23G26
 -11945768.18344  -9308386.22844  20251512.1934   20251514.2114
   3699721.13044   2882902.34544  22284600.8934   22284603.8934
  21388368.53944  16666251.32344  24410194.0104   24410201.0284
 -18392143.61044 -14331512.69344  21621425.3804   21621428.5804
  -4219463.18144  -3287890.50144  24412313.1304   24412317.7204
 -11542040.48144  -8993774.00944  22774322.3994   22774326.9244
  -9208218.15044  -7175223.05444  23185202.8844   23185205.4754
 96  5 16  0 41 30.0000000  0  7G 6G16G 5G17G22G23G26
 -11955984.17344  -9316346.74244  20249568.0794   20249570.1794
   3779721.36844   2945240.17044  22299824.4494   22299827.5604
  21497049.57844  16750937.67044  24430875.2224   24430881.0524
 -18437726.04644 -14367031.44744  21612751.3564   21612754.5524
  -4289807.28444  -3342704.05944  24398927.0694   24398928.8934
 -11632468.28844  -9064237.16144  22757114.5014   22757118.3934
  -9276849.02344  -7228701.62144  23172142.7764   23172145.6374
 96  5 16  0 42  0.0000000  0  7G 6G16G 5G17G22G23G26
 -11965799.95644  -9323995.40644  20247700.2264   20247702.2484
   3860048.58744   3007832.79344  22315110.2294   22315113.2964
  21605665.29144  16835573.15644  24451544.4154   24451547.5374
 -18483101.71844 -14402389.08544  21604116.7144   21604119.9034
  -4359782.57944  -3397230.21444  24385611.1794   24385615.4074
 -11722649.48244  -9134508.15044  22739953.4664   22739957.3454
  -9345193.17744  -7281956.76044  23159137.2614   23159140.5124
 96  5 16  0 42 30.0000000  0  7G 6G16G 5G17G22G23G26
 -11975196.45344  -9331317.35344  20245912.2164   20245914.1674
   3940723.54644   3070696.37944  22330462.2074   22330465.2774
  21714236.71644  16920174.08344  24472204.9374   24472211.4844
 -18528266.30244 -14437582.24844  21595522.1624   21595525.4954
  -4429361.52244  -3451447.53644  24372370.8594   24372374.9764
 -11812575.18144  -9204580.05544  22722841.1284   22722845.1754
  -9413244.92144  -7334984.04144  23146187.4624   23146190.3144
 96  5 16  0 43  0.0000000  0  7G 6G16G 5G17G22G23G26
 -11984168.55844  -9338308.60444  20244204.9124   20244206.8944
   4021737.45844   3133824.08544  22345878.6614   22345881.5984
  21822768.94944  17004744.52344  24492858.0344   24492862.6894
 -18573240.17044 -14472626.79944  21586963.7234   21586966.8754
  -4498535.44644  -3505349.25644  24359207.6804   24359211.2594
 -11902233.28444  -9274443.46344  22705779.6834   22705783.8014
  -9481007.09344  -7387785.68444  23133292.6774   23133294.5144
 96  5 16  0 43 30.0000000  0  7G 6G16G 5G17G22G23G26
 -11992699.39544  -9344956.01344  20242581.5264   20242583.5724
   4103065.25844   3197196.37544  22361354.8404   22361357.6784
  21931276.44444  17089295.61244  24513506.3624   24513512.2584
 -18618021.65844 -14507521.44744  21578442.1474   21578445.3454
  -4567321.32844  -3558948.62044  24346118.0254   24346121.4624
 -11991618.43644  -9344094.16944  22688770.1594   22688774.0264
  -9548485.51544  -7440366.23144  23120451.9704   23120454.4234
 96  5 16  0 44  0.0000000  0  7G 6G16G 5G17G22G23G26
 -12000814.05144  -9351279.12944  20241037.2924   20241039.2674
   4184687.66844   3260798.23844  22376887.0624   22376890.1464
  22039746.62144  17173817.66344  24534147.7244   24534154.5654
 -18662618.38644 -14542272.12544  21569955.6044   21569958.7604
  -4635744.86044  -3612265.61644  24333097.2394   24333101.1434
 -12080748.16344  -9413545.85344  22671809.3014   22671813.0844
  -9615698.73944  -7492740.12044  23107661.6334   23107664.6534
 96  5 16  0 44 30.0000000  0  7G 6G16G 5G17G22G23G26
 -12008500.77644  -9357268.79144  20239574.5804   20239576.6104
   4266647.69144   3324663.16844  22392483.5544   22392486.3634
  22148201.98244  17258328.17644  24554786.1964   24554792.0794
 -18706986.49944 -14576844.66144  21561512.7384   21561515.9434
  -4703771.29144  -3665273.18644  24320152.2334   24320155.9584
 -12169584.00644  -9482768.53444  22654904.3724   22654908.4544
  -9682624.88244  -7544890.31444  23094925.9094   23094928.8964
 96  5 16  0 45  0.0000000  0  7G 6G16G 5G17G22G23G26
 -12015772.23744  -9362934.86644  20238190.8424   20238192.8504
   4348926.73944   3388776.69444  22408140.7794   22408143.2584
  22256640.82844  17342825.80944  24575421.5884   24575428.9844
 -18751128.06644 -14611240.66744  21553112.8224   21553116.0244
  -4771416.83244  -3717983.96044  24307279.5724   24307283.7114
 -12258124.74144  -9551761.26444  22638055.5994   22638059.6124
  -9749257.24944  -7596811.59844  23082246.1654   23082249.3514
 96  5 16  0 45 30.0000000  0  7G 6G16G 5G17G22G23G26
 -12022643.79644  -9368289.33144  20236883.3184   20236885.2824
   4431518.29544   3453133.73044  22423857.3774   22423860.4574
  22365058.71544  17427307.09444  24596053.0864   24596058.5434
 -18795050.47444 -14645465.90544  21544754.5404   21544757.8314
  -4838686.53844  -3770401.89444  24294478.7014   24294482.2644
 -12346389.73044  -9620539.13044  22621259.2914   22621263.3904
  -9815601.08744  -7648508.05644  23069621.2844   23069624.1164
 96  5 16  0 46  0.0000000  0  7G 6G16G 5G17G22G23G26
 -12029129.51944  -9373343.14244  20235649.1504   20235651.0754
   4514431.16144   3517741.13944  22439635.1404   22439637.8424
  22473454.52444  17511771.14444  24616680.3034   24616687.7774
 -18838771.29444 -14679534.06244  21536434.7784   21536437.9854
  -4905561.17544  -3822511.96744  24281752.9014   24281757.2534
 -12434385.77344  -9689107.42444  22604514.2034   22604518.3784
  -9881650.21344  -7699974.86744  23057052.5364   23057054.8124
 96  5 16  0 46 30.0000000  0  7G 6G16G 5G17G22G23G26
 -12035221.45344  -9378090.10444  20234489.9194   20234491.7984
   4597648.10544   3582585.49044  22455470.8704   22455473.9744
  22581823.64044  17596214.40744  24637302.3614   24637309.4954
 -18882305.27044 -14713456.63044  21528150.5614   21528153.7864
  -4972032.40344  -3874307.69044  24269103.9094   24269107.9564
 -12522117.66944  -9757469.89544  22587819.3384   22587822.9874
  -9947407.23544  -7751214.06544  23044539.4114   23044541.3964
 96  5 16  0 47  0.0000000  0  7G 6G16G 5G17G22G23G26
 -12040906.46544  -9382519.98644  20233408.0594   20233410.1314
   4681156.08444   3647656.62444  22471361.8694   22471364.5424
  22690160.25144  17680632.34244  24657918.2834   24657923.7324
 -18925664.46044 -14747243.00244  21519899.6134   21519902.8404
  -5038101.21744  -3925789.86444  24256531.4724   24256534.5684
 -12609581.94344  -9825623.82644  22571175.3674   22571179.6834
 -10012859.83444  -7802216.04944  23032084.1144   23032087.2484
 96  5 16  0 47 30.0000000  0  7G 6G16G 5G17G22G23G26
 -12046176.70944  -9386626.67644  20232405.1364   20232407.1384
   4764957.58844   3712956.47544  22487308.8584   22487311.9084
  22798444.85144  17765009.74344  24678524.3724   24678531.0704
 -18968844.78644 -14780889.99944  21511682.5804   21511685.8664
  -5103753.28844  -3976947.30144  24244038.1754   24244042.8074
 -12696768.51544  -9893561.37244  22554584.3224   22554588.0184
 -10078003.65344  -7852977.43144  23019687.6464   23019690.7794
 96  5 16  0 48  0.0000000  0  7G 6G16G 5G17G22G23G26
 -12051028.85944  -9390407.57544  20231481.8474   20231483.8724
   4849030.21544   3778467.59244  22503307.3324   22503310.6344
  22906650.64944  17849325.73244  24699115.4164   24699121.2224
 -19011838.01544 -14814391.20244  21503501.1884   21503504.4874
  -5168999.01544  -4027788.09444  24231622.2924   24231626.1814
 -12783671.58944  -9961278.01544  22538047.2674   22538050.9244
 -10142844.42644  -7903502.66944  23007348.7984   23007352.0824
 96  5 16  0 48 30.0000000  0  7G 6G16G 5G17G22G23G26
 -12055458.41744  -9393859.18244  20230638.9124   20230640.9814
   4933362.11244   3844180.74344  22519355.1174   22519358.0654
  23014762.87844  17933568.82844  24719688.7094   24719696.1494
 -19054618.80644 -14847726.87144  21495360.2704   21495363.5304
  -5233841.77944  -4078314.91544  24219283.1844   24219286.7924
 -12870285.07244 -10028769.00344  22521565.2084   22521569.0764
 -10207380.16244  -7953790.21444  22995067.9824   22995070.5834
 96  5 16  0 49  0.0000000  0  7G 6G16G 5G17G22G23G26
 -12059469.12944  -9396984.41444  20229875.7104   20229877.6704
   5017957.80344   3910099.44344  22535453.1194   22535456.1614
  23122769.73044  18017729.77044  24740241.8274   24740246.3784
 -19097193.46944 -14880901.92644  21487258.5654   21487261.8044
  -5298276.59444  -4128523.85744  24207021.7044   24207026.0564
 -12956608.28044 -10096033.80644  22505138.4564   22505142.3484
 -10271614.36444  -8003842.79844  22982844.5574   22982847.0344
 96  5 16  0 49 30.0000000  0  7G 6G16G 5G17G22G23G26
 -12063045.68844  -9399771.34544  20229195.1254   20229197.1564
   5102837.67344   3976239.58344  22551605.2524   22551608.4294
  23230699.26644  18101830.50744  24760780.3114   24760786.8934
 -19139541.49644 -14913900.37444  21479200.0894   21479203.3434
  -5362274.27244  -4178392.13344  24194843.2974   24194845.8014
 -13042616.29144 -10163052.98744  22488771.5924   22488775.2184
 -10335535.96444  -8053651.79344  22970680.5994   22970683.4804
 96  5 16  0 50  0.0000000  0  7G 6G16G 5G17G22G23G26
 -12066189.94444  -9402221.41944  20228596.7554   20228598.7844
   5187998.37944   4042598.55244  22567810.9224   22567814.0674
  23338557.26744  18185875.44044  24781305.1164   24781313.3074
 -19181674.74744 -14946731.45944  21471182.3764   21471185.4664
  -5425845.14044  -4227927.78944  24182746.0464   24182750.2984
 -13128320.77844 -10229835.65844  22472462.4664   22472466.4754
 -10399157.12444  -8103226.68944  22958573.9864   22958576.9624
 96  5 16  0 50 30.0000000  0  7G 6G16G 5G17G22G23G26
 -12068896.10144  -9404330.11944  20228081.8664   20228083.8274
   5273464.99344   4109195.89944  22584074.6624   22584077.8264
  23446350.50244  18269870.00444  24801817.6834   24801823.6574
 -19223597.01544 -14979398.14844  21463204.8334   21463207.9644
  -5488988.77244  -4277130.62344  24170730.0234   24170733.3214
 -13213711.33444 -10296373.71044  22456213.1994   22456217.5394
 -10462468.69044  -8152560.33644  22946526.1634   22946528.4064
 96  5 16  0 51  0.0000000  0  7G 6G16G 5G17G22G23G26
 -12071185.85844  -9406114.34944  20227646.1704   20227648.1134
   5359228.25144   4176024.39044  22600394.8564   22600397.9464
  23554075.50644  18353811.36444  24822317.0114   24822322.3174
 -19265332.46844 -15011919.26744  21455262.8704   21455266.0044
  -5551727.95844  -4326018.27944  24158791.3724   24158794.4344
 -13298802.99744 -10362678.86544  22440020.7074   22440024.6794
 -10525490.16844  -8201667.94244  22934533.6924   22934536.1254
 96  5 16  0 51 30.0000000  0  7G 6G16G 5G17G22G23G26
 -12073046.83544  -9407564.46444  20227291.9774   20227293.9164
   5445300.74944   4243093.85244  22616773.8744   22616776.8884
  23661755.43644  18437717.56344  24842808.1154   24842817.5474
 -19306855.36144 -15044274.74944  21447361.2834   21447364.3834
  -5614064.70144  -4374592.33944  24146929.1424   24146932.0024
 -13383587.34844 -10428744.55744  22423886.7964   22423890.5434
 -10588194.27944  -8250528.25244  22922601.5284   22922604.0144
 96  5 16  0 52  0.0000000  0  7G 6G16G 5G17G22G23G26
 -12074491.81344  -9408690.42344  20227017.0684   20227018.9624
   5531652.31044   4310380.75844  22633206.1054   22633209.2994
  23769367.43644  18521570.84744  24863286.0614   24863295.4934
 -19348185.14944 -15076479.75644  21439496.4764   21439499.6494
  -5676034.98444  -4422880.85444  24135136.4344   24135140.3204
 -13468100.37044 -10494598.82744  22407804.5194   22407808.6624
 -10650581.78344  -8299141.86044  22910729.4554   22910732.5104
 96  5 16  0 52 30.0000000  0  7G 6G16G 5G17G22G23G26
 -12075496.17844  -9409473.04944  20226825.9474   20226828.0354
   5618293.33544   4377893.22244  22649693.4054   22649696.5684
  23876931.24544  18605386.56444  24883754.9054   24883761.9924
 -19389305.21944 -15108521.35044  21431671.5474   21431674.6684
  -5737608.15244  -4470859.92944  24123419.4954   24123423.1504
 -13552322.18344 -10560226.16544  22391777.4914   22391781.4914
 -10712614.97744  -8347479.38344  22898924.9504   22898927.1484
 96  5 16  0 53  0.0000000  0  7G 6G16G 5G17G22G23G26
 -12076050.08944  -9409904.67544  20226720.4514   20226722.4314
   5705215.49544   4445624.75244  22666234.1334   22666237.2674
  23984456.16844  18689172.00744  24904216.6524   24904223.5394
 -19430220.66944 -15140403.50144  21423885.5854   21423888.7694
  -5798758.85344  -4518509.79144  24111782.8654   24111786.5544
 -13636258.25844 -10625630.85144  22375804.9704   22375808.6284
 -10774273.53844  -8395524.98644  22887191.5614   22887194.1034
 96  5 16  0 53 30.0000000  0  7G 6G16G 5G17G22G23G26
 -12076128.79844  -9409966.01144  20226705.4934   20226707.3804
   5792409.48444   4513568.10144  22682826.6024   22682829.7264
  24091935.02644  18772921.49744  24924669.3914   24924672.9594
 -19470940.09844 -15172132.91544  21416136.8714   21416139.9604
  -5859468.14444  -4565815.73744  24100230.2694   24100234.5814
 -13719897.02744 -10690803.86844  22359889.1014   22359892.4744
 -10835543.27544  -8443267.61044  22875532.3604   22875535.3874
 96  5 16  0 54  0.0000000  0  7G 6G16G 5G17G22G23G26
 -12075738.42344  -9409661.82544  20226779.7814   20226781.6404
   5879865.67444   4581715.75544  22699468.9784   22699472.0454
  24199343.52744  18856616.17844  24945108.7764   24945116.1574
 -19511477.29144 -15203720.31444  21408422.9564   21408426.1844
  -5919725.53444  -4612769.51244  24088763.5544   24088767.6024
 -13803234.17544 -10755741.85844  22344030.4104   22344034.0014
 -10896437.48144  -8490717.60544  22863944.5074   22863946.7294
 96  5 16  0 54 30.0000000  0  7G 6G16G 5G17G22G23G26
 -12074892.37644  -9409002.57344  20226940.8844   20226942.9114
   5967594.91344   4650076.18644  22716163.2994   22716166.5414
  24306662.65344  18940241.18344  24965531.0094   24965541.4344
 -19551828.22844 -15235162.58544  21400744.3264   21400747.5134
  -5979522.18144  -4659364.29144  24077384.6514   24077387.9704
 -13886248.06244 -10820427.95444  22328233.4314   22328237.2054
 -10956977.87244  -8537891.90044  22852424.0274   22852426.8944
 96  5 16  0 55  0.0000000  0  7G 6G16G 5G17G22G23G26
 -12073612.71744  -9408005.44244  20227184.3794   20227186.4344
   6055587.10744   4718641.50644  22732907.7394   22732910.8654
  24413870.97644  19023779.89344  24985932.4624   24985939.1354
 -19591985.33644 -15266453.82444  21393102.6884   21393105.8694
  -6038884.66144  -4705620.74944  24066088.3264   24066091.5484
 -13968940.78644 -10884863.78144  22312497.4364   22312500.9604
 -11017191.93244  -8584811.92644  22840965.7194   22840968.2764
 96  5 16  0 55 30.0000000  0  7G 6G16G 5G17G22G23G26
 -12071917.57244  -9406684.55344  20227506.8894   20227508.9174
   6143824.86144   4787398.17544  22749698.8274   22749701.9544
  24520955.06044  19107221.77644  25006310.0434   25006316.8784
 -19631935.04944 -15297583.45244  21385500.5104   21385503.7814
  -6097828.46744  -4751550.97944  24054871.8114   24054875.8644
 -14051309.80244 -10949047.37544  22296823.0704   22296826.7794
 -11077098.67944  -8631492.47844  22829565.8284   22829568.6844
 96  5 16  0 56  0.0000000  0  7G 6G16G 5G17G22G23G26
 -12069819.08244  -9405049.37044  20227906.1364   20227908.0964
   6232314.69644   4856351.26944  22766538.0074   22766540.9444
  24627905.81544  19190559.74244  25026662.3154   25026669.1834
 -19671665.76944 -15328542.43144  21377939.9554   21377943.2004
  -6156359.22344  -4797159.33844  24043733.7764   24043737.0734
 -14133365.45744 -11012986.79144  22281208.2844   22281211.8624
 -11136688.25544  -8677925.88144  22818226.1634   22818228.5154
 96  5 16  0 56 30.0000000  0  7G 6G16G 5G17G22G23G26
 -12067291.23244  -9403079.62144  20228387.2754   20228389.2484
   6321072.06644   4925512.83444  22783427.9974   22783431.2064
  24734752.29444  19273816.46444  25046994.9114   25047003.1034
 -19711159.76544 -15359316.95244  21370424.5314   21370427.6044
  -6214467.41044  -4842438.41744  24032675.9864   24032679.9874
 -14215087.42144 -11076666.18144  22265657.1404   22265660.5504
 -11195921.39144  -8724081.53844  22806954.3714   22806957.3754
 96  5 16  0 57  0.0000000  0  7G 6G16G 5G17G22G23G26
 -12064317.13044  -9400762.14344  20228953.2884   20228955.2844
   6410102.16344   4994886.91244  22800369.8504   22800373.0414
  24841514.33044  19357007.39144  25067311.2464   25067318.5614
 -19750420.90644 -15389910.03244  21362953.4664   21362956.6154
  -6272127.61944  -4887368.41544  24021703.7734   24021707.9044
 -14296478.21144 -11140087.51344  22250168.9664   22250172.8314
 -11254765.64844  -8769934.18444  22795756.8654   22795759.2834
 96  5 16  0 57 30.0000000  0  7G 6G16G 5G17G22G23G26
 -12060648.07644  -9397903.14444  20229651.5044   20229653.3924
   6499650.62644   5064664.91644  22817410.3154   22817413.4864
  24948422.71344  19440312.30644  25087655.3954   25087660.4924
 -19789241.05844 -15420159.48644  21355566.2084   21355569.2964
  -6329093.39644  -4931757.32444  24010863.4664   24010866.6494
 -14377308.78744 -11203072.32544  22234787.3714   22234790.9994
 -11312971.50144  -8815289.36444  22784680.6244   22784683.2134
 96  5 16  0 58  0.0000000  0  7G 6G16G 5G17G22G23G26
 -12056706.20744  -9394831.56244  20230401.6084   20230403.3674
   6589294.62644   5134517.35544  22834469.0154   22834472.1164
  25055041.82744  19523391.88044  25107944.6394   25107950.8034
 -19828067.59444 -15450413.91144  21348177.8514   21348180.9344
  -6385800.55944  -4975944.69844  24000072.3604   24000075.0374
 -14458013.98144 -11265959.44544  22219429.6384   22219433.4244
 -11370964.91844  -8860479.00444  22773644.9124   22773647.2214
 96  5 16  0 58 30.0000000  0  7G 6G16G 5G17G22G23G26
 -12052684.69244  -9391697.91844  20231166.8754   20231168.8484
   6678829.96944   5204285.13244  22851507.0004   22851510.1714
  25161182.83044  19606098.87444  25128142.6774   25128148.5144
 -19867099.45844 -15480828.33044  21340750.1304   21340753.2904
  -6442431.49044  -5020072.66244  23989295.7304   23989300.1694
 -14538777.08744 -11328891.69244  22204060.9234   22204064.4284
 -11428945.07844  -8905658.32144  22762611.5194   22762614.4044
 96  5 16  0 59  0.0000000  0  7G 6G16G 5G17G22G23G26
 -12048206.23644  -9388208.21644  20232019.1234   20232020.9824
   6768614.98644   5274247.45744  22868592.5044   22868595.3354
  25267209.74944  19688716.92044  25148319.2584   25148328.1944
 -19905961.98944 -15511110.81044  21333354.8074   21333357.9904
  -6498606.44744  -5063845.31444  23978605.9754   23978609.9844
 -14619229.77144 -11391582.05244  22188751.2494   22188754.7864
 -11486557.65944  -8950551.21544  22751648.1544   22751649.7754
 96  5 16  0 59 30.0000000  0  7G 6G16G 5G17G22G23G26
 -12043027.42344  -9384172.78644  20233004.6424   20233006.5624
   6858875.50744   5344580.30744  22885768.5224   22885771.7434
  25373357.30244  19771428.97944  25168518.6514   25168523.8314
 -19944395.79344 -15541059.21944  21326041.1264   21326044.2964
  -6554103.47644  -5107089.72044  23968045.2614   23968048.4654
 -14699125.06744 -11453838.08544  22173547.6804   22173551.2134
 -11543558.58844  -8994967.48944  22740801.2694   22740803.2394
 96  5 16  1  0  0.0000000  0  7G 6G16G 5G17G22G23G26
 -12037323.99444  -9379728.56744  20234089.8964   20234091.8684
   6949416.98044   5415132.08244  22902998.0144   22903001.2024
  25479466.24144  19854110.97144  25188710.6274
 -19982544.70044 -15570785.62444  21318781.7874   21318784.9164
  -6609077.83744  -5149926.86444  23957583.9884   23957587.2694
 -14778618.81744 -11515781.22344  22158420.5584   22158424.2014
 -11600105.66744  -9039030.12044  22730040.6674   22730043.3164
 96  5 16  1  0 30.0000000  0  7G 6G16G 5G17G22G23G26
 -12031148.04444  -9374916.14744  20235265.1434   20235267.0574
   7040170.97244   5485849.45444  22920267.9724   22920271.1354
  25585488.31744  19936725.26144  25208886.3554
 -20020456.75944 -15600327.47944  21311567.2864   21311570.3934
  -6663574.18144  -5192391.52044  23947213.6794   23947217.3644
 -14857754.56744 -11577445.40644  22143361.4634   22143365.1744
 -11656252.61444  -9082780.96244  22719356.1854   22719358.3834
 96  5 16  1  1  0.0000000  0  7G 6G16G 5G17G22G23G26
 -12024525.43544  -9369755.68044  20236525.3954   20236527.4414
   7131110.09044   5556711.08044  22937573.1494   22937576.7464
  25691395.32844  20019249.89744  25229040.1124
 -20058156.55244 -15629703.93944  21304393.1954   21304396.3474
  -6717626.37844  -5234510.09144  23936927.7334   23936931.3784
 -14936564.34344 -11638855.58444  22128364.3764   22128367.8654
 -11712021.28044  -9126237.03444  22708743.8024   22708746.4104
 96  5 16  1  1 30.0000000  0  7G 6G16G 5G17G22G23G26
 -12017468.16644  -9364256.51844  20237868.4514   20237870.3764
   7222230.87244   5627714.26644  22954912.8274   22954916.0044
  25797194.44144  20101690.44444  25249173.1634
 -20095645.15244 -15658915.83144  21297259.3204   21297262.4734
  -6771234.65144  -5276282.72944  23926726.5094   23926730.0174
 -15015045.99344 -11700010.07644  22113429.8124   22113433.3574
 -11767405.29244  -9169393.38044  22698204.5804   22698206.7134
 96  5 16  1  2  0.0000000  0  8G 6G16G 5G21G17G22G23G26
 -12009963.72044  -9358408.90444  20239296.5064   20239298.3994
   7313548.50544   5698870.84244  22972290.0744   22972293.2794
  25902897.88244  20184056.45644  25269288.0864
        -0.36254                  25605415.6414
 -20132926.38644 -15687966.13644  21290165.0414   21290168.1964
  -6824375.44644  -5317691.12144  23916614.1944   23916617.5224
 -15093198.04944 -11760907.74444  22098557.9284   22098561.6534
 -11822403.87144  -9212249.38744  22687738.6244   22687740.8894
 96  5 16  1  2 30.0000000  0  8G 6G16G 5G21G17G22G23G26
 -12001986.73044  -9352193.07544  20240814.4554   20240816.3794
   7405106.06644   5770214.36844  22989712.8754   22989716.2404
  26008504.18944  20266346.76344  25289384.6564   25289392.2894
   -100298.64744                  25586329.0424
 -20169999.39944 -15716854.19144  21283110.1784   21283113.3464
  -6877044.50944  -5358731.92844  23906591.3904   23906595.2694
 -15171007.76444 -11821538.65544  22083751.1644   22083754.8404
 -11877001.98244  -9254793.34344  22677348.8034   22677351.0584
 96  5 16  1  3  0.0000000  0  8G 6G16G 5G21G17G22G23G26
 -11993577.60244  -9345640.51544  20242414.6124   20242416.6744
   7496886.28644   5841731.40144  23007178.1114   23007181.4524
  26113963.66144                  25309453.1414
   -200551.73744   -156272.50844  25567251.2804   25567259.4714
 -20206907.42344 -15745613.67444  21276086.8694   21276090.0294
  -6929290.32944  -5399442.93244  23896649.3764   23896653.9474
 -15248515.50444 -11881934.26244  22069002.0044   22069005.2544
 -11931227.99944  -9297047.36044  22667030.0724   22667032.6864
 96  5 16  1  3 30.0000000  0  8G 6G16G 5G21G17G22G23G26
 -11984729.56544  -9338745.94844  20244098.3244   20244100.3784
   7588903.68844   5913433.24544  23024688.4994   23024691.8334
  26219266.70144  20430576.61944  25329491.9924
   -300767.39844   -234362.30744  25548180.6924   25548191.3654
 -20243643.40244 -15774239.10244  21269096.2084   21269099.3714
  -6981103.82644  -5439817.05544  23886789.4924   23886792.6264
 -15325704.47344 -11942081.47944  22054313.4624   22054317.0694
 -11985078.42144  -9339008.69544  22656782.7384   22656784.5644
 96  5 16  1  4  0.0000000  0  8G 6G16G 5G21G17G22G23G26
 -11975429.28044  -9331498.97744  20245868.1634   20245870.1274
   7681177.88944   5985335.19144  23042247.6994   23042250.8304
  26324395.64044                  25349497.2424
   -400934.10344   -312413.97144  25529119.2184   25529128.6504
 -20280205.75844 -15802729.23644  21262138.6414   21262141.8104
  -7032477.41444  -5479848.39944  23877013.4434   23877017.5214
 -15402561.38044 -12001969.94644  22039688.0754   22039691.4024
 -12038541.81744  -9380668.45644  22646608.9234   22646611.2354
 96  5 16  1  4 30.0000000  0  8G 6G16G 5G21G17G22G23G26
 -11965670.32444  -9323894.60044  20247725.1614   20247727.1304
   7773714.18944   6057441.37744  23059856.7554   23059860.0874
  26429362.90144                  25369472.1844
   -501050.33444   -390426.29644  25510067.5784   25510077.7554
 -20316584.00344 -15831075.90744  21255215.9724   21255219.0374
  -7083403.77044  -5519531.24644  23867322.4444   23867325.9644
 -15479065.65344 -12061583.63344  22025129.7474   22025132.9434
 -12091600.06444  -9422012.51844  22636512.2194   22636514.3764
 96  5 16  1  5  0.0000000  0  8G 6G16G 5G21G17G22G23G26
 -11955460.68544  -9315939.04044  20249668.0854   20249670.1054
   7866480.05744   6129726.44444  23077509.5664   23077512.8134
  26534176.31744                  25389417.6434
   -601119.78044   -468402.15544  25491024.7464   25491036.4124
 -20352775.81644 -15859277.31344  21248328.8744   21248332.0124
  -7133876.72644  -5558860.81244  23857717.7634   23857721.1754
 -15555224.13044 -12120927.86944  22010637.2224   22010640.4564
 -12144265.66544  -9463050.62544  22626490.3304   22626492.5124
 96  5 16  1  5 30.0000000  0  8G 6G16G 5G21G17G22G23G26
 -11944808.33644  -9307638.51244  20251695.1584   20251697.1124
   7959429.62944   6202154.65344  23095197.3034   23095200.1654
  26638822.05444                  25409331.2404
   -701144.35844   -546343.02344  25471990.3104   25471999.9914
 -20388792.38244 -15887342.16144  21241475.1544   21241478.3224
  -7183893.48844  -5597834.89044  23848199.8504   23848203.2654
 -15631057.65744 -12180018.90244  21996206.6504   21996209.8094
 -12196554.92344  -9503795.47844  22616539.9884   22616542.3674
 96  5 16  1  6  0.0000000  0  8G 6G16G 5G21G17G22G23G26
 -11933714.27644  -9298993.79544  20253806.2614   20253808.2304
   8052546.54044   6274713.25644  23112916.8954   23112920.0254
  26743310.15044                  25429215.0454
   -801120.74544                  25452965.3524
 -20424640.10744 -15915275.44544  21234653.5394   21234656.6904
  -7233449.78244  -5636450.16344  23838769.5954   23838773.5054
 -15706577.31944 -12238865.35744  21981835.7234   21981839.1224
 -12248462.55144  -9544242.95444  22606662.2824   22606664.8704
 96  5 16  1  6 30.0000000  0  8G 6G16G 5G21G17G22G23G26
 -11922196.48944  -9290018.90044  20255998.0814   20256000.0674
   8145805.25644   6347382.35644  23130663.4144   23130666.7544
  26847641.37044                  25449068.8054
   -901065.59944   -702125.15144  25433946.1864   25433953.4464
 -20460322.37744 -15943079.80344  21227863.4644   21227866.5854
  -7282554.04544  -5674713.19744  23829425.3404   23829429.4504
 -15781791.75744 -12297473.97944  21967522.8584   21967526.0664
 -12299996.73044  -9584399.43744  22596855.7034   22596858.3224
 96  5 16  1  7  0.0000000  0  8G 6G16G 5G21G17G22G23G26
 -11910203.29744  -9280673.56644  20258280.2414   20258282.1314
   8239249.08944   6420195.70944  23148445.1944   23148448.3604
  26951849.60844                  25468899.1714
  -1000925.83644   -779938.04044  25414943.2084   25414954.1294
 -20495776.73444 -15970706.55844  21221116.7304   21221119.8984
  -7331159.01244  -5712587.17944  23820176.2184   23820180.7184
 -15856640.48444 -12355797.63344  21953279.5484   21953282.9414
 -12351105.81544  -9624224.67544  22587129.9134   22587132.2904
 96  5 16  1  7 30.0000000  0  8G 6G16G 5G21G17G22G23G26
 -11897752.39344  -9270971.57144  20260649.5924   20260651.4694
   8332866.52444   6493144.32744  23166260.0884   23166263.2984
  27055913.92244                  25488701.9194
  -1100734.30944   -857710.54444  25395950.0594   25395959.4914
 -20531018.06044 -15998167.32944  21214410.4544   21214413.5654
  -7379289.31844  -5750091.29244  23811017.4554   23811021.2864
 -15931138.94544 -12413848.35144  21939102.8804   21939106.1974
 -12401799.13144  -9663725.93844  22577483.2604   22577485.3244
 96  5 16  1  8  0.0000000  0  7G 6G16G21G17G22G23G26
 -11884830.77044  -9260902.78244  20263108.5154   20263110.4654
   8426686.69244   6566250.92744  23184113.3524   23184117.0774
  -1200484.65244   -935437.77344  25376968.0034   25376977.6844
 -20566037.69044 -16025455.34344  21207746.5374   21207749.7384
  -7426941.64944  -5787222.96444  23801949.3234   23801952.1464
 -16005264.64644 -12471608.60644  21924997.1924   21925000.4384
 -12452055.71544  -9702886.88744  22567919.6634   22567921.8334
 96  5 16  1  8 30.0000000  0  7G 6G16G21G17G22G23G26
 -11871435.80044  -9250465.15144  20265657.5294   20265659.4754
   8520714.83744   6639519.57844  23202006.3354   23202009.5664
  -1300167.27044  -1013112.22044  25357998.7404   25358007.6764
 -20600837.48444 -16052572.05544  21201124.3084   21201127.4704
  -7474127.72444  -5823991.30544  23792970.1304   23792973.9294
 -16079007.44344 -12529070.49544  21910964.4274   21910967.7954
 -12501869.69444  -9741702.95744  22558440.2994   22558443.1994
 96  5 16  1  9  0.0000000  0  7G 6G16G21G17G22G23G26
 -11857532.97244  -9239631.78744  20268303.0324   20268304.9644
   8614975.63744   6712969.52244  23219943.7404   23219946.4404
  -1399750.51644  -1090709.22444  25339048.4684   25339059.3894
 -20635409.51144 -16079511.28644  21194545.5204   21194548.6114
  -7520831.54544  -5860383.87744  23784082.6394   23784086.7204
 -16152365.94744 -12586232.93944  21897004.7244   21897008.1824
 -12551222.99444  -9780160.04644  22549048.6154   22549050.7904
 96  5 16  1  9 30.0000000  0  7G 6G16G21G17G22G23G26
 -11843070.17244  -9228362.08144  20271055.2984   20271057.2694
   8709524.49844   6786643.93044  23237935.8224   23237938.9224
  -1499179.30344  -1168185.87444  25320127.5774   25320137.0094
 -20669723.83044 -16106249.70844  21188015.7224   21188018.7884
  -7567000.24444  -5896359.45744  23775297.0594   23775300.9284
 -16225308.74544 -12643071.45544  21883124.2014   21883127.6044
 -12600059.35444  -9818214.33444  22539755.4494   22539757.5534
 96  5 16  1 10  0.0000000  0  7G 6G16G21G17G22G23G26
 -11828159.36044  -9216743.27444  20273892.7804   20273894.6264
   8804257.09344   6860461.50844  23255962.9694   23255966.0614
  -1598538.44044  -1245608.24544  25301220.0554   25301228.4944
 -20703895.45044 -16132876.93544  21181513.1194   21181516.2614
  -7612739.80044  -5932000.65344  23766593.1904   23766596.8874
 -16297926.42044 -12699656.62544  21869305.5764   21869308.8024
 -12648479.48044  -9855944.27844  22530541.4494   22530543.1384
 96  5 16  1 10 30.0000000  0  7G 6G16G21G17G22G23G26
 -11812760.74944  -9204744.36744  20276823.1324   20276824.9514
   8899208.80344   6934449.81744  23274031.6424   23274034.8294
  -1697773.65144  -1322934.08044  25282335.8734   25282344.8094
 -20737870.28344 -16159350.82844  21175047.9674   21175050.9794
  -7657991.89044  -5967262.00944  23757982.0764   23757984.5454
 -16370175.89444 -12755954.89144  21855557.0154   21855560.3094
 -12696447.22244  -9893321.71944  22521413.4934   22521415.3244
 96  5 16  1 11  0.0000000  0  7G 6G16G21G17G22G23G26
 -11796860.20944  -9192354.34244  20279848.7984   20279850.6394
   8994375.00744   7008605.28144  23292141.2154   23292144.3174
  -1796875.74044                  25263477.1484
 -20771628.52044 -16185655.94644  21168623.9534   21168627.0244
  -7702739.60144  -6002130.33344  23749466.8174   23749469.9784
 -16442047.25144 -12811958.51744  21841880.3024   21841883.5564
 -12743958.05144  -9930343.12544  22512372.4804   22512374.6324
 96  5 16  1 11 30.0000000  0  7G 6G16G21G17G22G23G26
 -11780492.75644  -9179600.48944  20282963.4574   20282965.3764
   9089715.72444   7082896.71344  23310283.9354   23310287.4874
  -1895866.34044  -1477291.40944  25244639.7824   25244647.4994
 -20805181.19144 -16211800.87144  21162239.0054   21162242.0584
  -7746995.32744  -6036615.29144  23741045.1484   23741048.1994
 -16513536.75644 -12867664.59744  21828276.1954   21828279.4464
 -12791029.84844  -9967022.41844  22503414.9324   22503416.8524
 96  5 16  1 12  0.0000000  0  7G 6G16G21G17G22G23G26
 -11763675.90144  -9166496.45144  20286163.6264   20286165.4744
   9185204.76344   7157303.72744  23328454.9924   23328457.8554
  -1994756.31744                  25225821.4814
 -20838533.15244 -16237789.40344  21155892.2884   21155895.3694
  -7790765.80844  -6070722.14344  23732715.9124   23732719.2474
 -16584652.30144 -12923079.27744  21814743.2414   21814746.5004
 -12837684.57644 -10003376.73744  22494536.7804   22494538.9504
 96  5 16  1 12 30.0000000  0  7G 6G16G21G17G22G23G26
 -11746380.90844  -9153019.84544  20289454.7504   20289456.7754
   9280841.08444   7231825.50144  23346653.9344   23346657.1044
  -2093549.92644  -1631329.92444  25207021.4374   25207032.3584
 -20871672.95644 -16263612.61544  21149586.0014   21149589.1214
  -7834036.65344  -6104439.66944  23724481.5994   23724485.2394
 -16655402.01344 -12978208.89644  21801279.9404   21801283.3744
 -12883911.02544 -10039397.32444  22485740.2144   22485742.3174
 96  5 16  1 13  0.0000000  0  8G 6G16G28G21G17G22G23G26
 -11728588.75544  -9139155.84244  20292840.4914   20292842.4424
   9376635.94644   7306470.82244  23364883.1264   23364886.3364
         0.29614        -0.34214  25343180.497    25343176.644
  -2192242.32744  -1708232.77344  25188240.7394   25188248.3174
 -20904599.91044 -16289269.97844  21143320.1994   21143323.3184
  -7876798.22944  -6137760.36544  23716344.4294   23716347.6474
 -16725771.11944 -13033041.93644  21787889.1634   21787892.3834
 -12929677.96044 -10075059.84844  22477031.0994   22477033.1804
 96  5 16  1 13 30.0000000  0  8G 6G16G28G21G17G22G23G26
 -11710294.78644  -9124900.80844  20296321.6874   20296323.7084
   9472609.19944   7381255.14444  23383146.2284   23383149.7714
   -102939.105 4    -80212.814 4  25323591.816    25323588.007
  -2290837.31944  -1785059.68044  25169478.2454   25169487.9254
 -20937325.75344 -16314770.63644  21137092.6774   21137095.8334
  -7919037.61044  -6170674.15744  23708306.6394   23708309.9734
 -16795763.44444 -13087581.38244  21774570.0174   21774573.4044
 -12974977.53544 -10110358.19544  22468410.7524   22468412.6764
 96  5 16  1 14  0.0000000  0  8G 6G16G28G21G17G22G23G26
 -11691499.19144  -9110254.90044  20299898.3024   20299900.3254
   9568773.07644   7456188.00644  23401445.5724   23401448.6794
   -205916.347 4   -160454.795 4  25303995.825    25303992.083
  -2389342.22644  -1861816.45444  25150733.3014   25150739.1674
 -20969866.03044 -16340126.69844  21130900.5124   21130903.6574
  -7960774.88844  -6203196.69944  23700364.3024   23700367.0484
 -16865392.76244 -13141837.96744  21761320.0344   21761323.2454
 -13019812.35644 -10145294.40044  22459878.9914   22459881.2594
 96  5 16  1 14 30.0000000  0  8G 6G16G28G21G17G22G23G26
 -11672221.19544  -9095233.09244  20303566.8004   20303568.8074
   9665110.00844   7531255.71844  23419777.8924   23419781.1374
   -308937.902 4   -240731.308 4  25284391.357    25284387.583
  -2487775.59844  -1938517.47944  25132001.5934   25132011.0254
 -21002241.85944 -16365354.61644  21124739.6114   21124742.7354
  -8002037.65644  -6235349.50144  23692512.2834   23692515.7194
 -16934685.75544 -13195832.48044  21748133.9694   21748137.2604
 -13064198.74544 -10179881.17844  22451432.4304   22451434.8664
 96  5 16  1 15  0.0000000  0  8G 6G16G28G21G17G22G23G26
 -11652460.53244  -9079835.18144  20307327.1654   20307329.1464
   9761635.11144   7606470.04644  23438145.9774   23438148.5974
   -411986.424 4   -321028.815 4  25264781.761    25264778.131
  -2586112.89544  -2015143.66244  25113288.3304   25113298.0114
 -21034433.94144 -16390439.34644  21118613.6384   21118616.6794
  -8042816.27844  -6267125.03144  23684752.4264   23684755.6734
 -17003617.06144 -13249545.15844  21735016.7944   21735020.0554
 -13108127.68244 -10214111.50144  22443073.0704   22443075.5014
 96  5 16  1 15 30.0000000  0  8G 6G16G28G21G17G22G23G26
 -11632201.83244  -9064049.18644  20311182.3014   20311184.3604
   9858366.00744   7681844.73644  23456553.3984   23456556.1814
   -515048.206 4   -401336.651 4  25245169.791    25245166.070
  -2684334.81744  -2091679.90244  25094597.0894   25094605.5284
 -21066402.39544 -16415349.81644  21112530.1574   21112533.2394
  -8083096.66744  -6298512.32444  23677087.3774   23677090.7054
 -17072162.15544 -13302956.89244  21721973.0114   21721976.3694
 -13151583.94244 -10247973.50244  22434803.5104   22434805.9164
 96  5 16  1 16  0.0000000  0  8G 6G16G28G21G17G22G23G26
 -11611453.36144  -9047881.55444  20315130.5974   20315132.6014
   9955271.75444   7757355.67444  23474993.9644   23474996.9274
   -618128.983 4   -481659.293 4  25225553.990    25225550.370
  -2782439.70444  -2168124.97944  25075928.0394   25075934.7264
 -21098149.61644 -16440087.90444  21106488.8364   21106491.9964
  -8122887.45744  -6329518.13444  23669515.3674   23669518.1354
 -17140319.75344 -13356066.68144  21709003.0604   21709006.2374
 -13194561.68944 -10281462.63944  22426625.2014   22426627.4834
 96  5 16  1 16 30.0000000  0  8G 6G16G28G21G17G22G23G26
 -11590287.31244  -9031388.53544  20319158.3884   20319160.2334
  10052257.86144   7832929.24144  23493449.7674   23493453.3644
   -721313.029 4   -562062.410 4  25205918.681    25205915.046
  -2880502.90344  -2244537.60544  25057267.1244   25057274.3394
 -21129751.91444 -16464713.06144  21100475.0574   21100478.2184
  -8162245.57744  -6360186.77644  23662025.6584   23662029.3654
 -17208177.83344 -13408943.07644  21696090.1614   21696093.3764
 -13237133.95044 -10314635.81044  22418524.0614   22418525.9974
 96  5 16  1 17  0.0000000  0  8G 6G16G28G21G17G22G23G26
 -11568691.23944  -9014560.43444  20323267.9314   20323269.8744
  10149335.39844   7908574.03744  23511922.9584   23511926.2114
   -824591.699 4   -642539.257 4  25186265.396    25186261.684
  -2978520.39144  -2320914.63444  25038614.8764   25038623.3154
 -21161195.62044 -16489214.64944  21094491.5424   21094494.7124
  -8201153.79844  -6390504.85444  23654621.6714   23654624.8194
 -17275710.35944 -13461565.79544  21683239.0544   21683242.3284
 -13279282.56144 -10347478.86144  22410503.3584   22410505.1924
 96  5 16  1 17 30.0000000  0  8G 6G16G28G21G17G22G23G26
 -11546675.99544  -8997405.70444  20327457.3044   20327459.3554
  10246484.29744   7984274.44044  23530409.9044   23530413.1074
   -927972.189 4   -723095.435 4  25166592.746    25166588.985
  -3076501.97844  -2397263.64144  25019969.4654   25019976.1144
 -21192504.23644 -16513610.97344  21088533.7414   21088536.8964
  -8239627.58344  -6420484.41744  23647300.0794   23647303.2844
 -17342938.90244 -13513951.64244  21670445.8084   21670449.0024
 -13321011.64244 -10379995.00944  22402562.5094   22402564.9854
 96  5 16  1 18  0.0000000  0  8G 6G16G28G21G17G22G23G26
 -11524224.13944  -8979910.76444  20331729.8014   20331731.7364
  10343736.79744   8060055.57944  23548916.4944   23548919.9014
  -1031423.759 4   -803706.999 4  25146906.519    25146902.970
  -3174414.62944  -2473558.96844  25001337.0404   25001343.7794
 -21223675.99544 -16537900.64944  21082601.9974   21082605.1354
  -8277634.44844  -6450100.14544  23640067.6954   23640070.8884
 -17409845.39044 -13566086.54144  21657713.9454   21657717.0224
 -13362300.60544 -10412168.21044  22394705.5404   22394707.4824
 96  5 16  1 18 30.0000000  0  8G 6G16G28G21G17G22G23G26
 -11501295.98044  -8962044.67444  20336092.9544   20336094.7224
  10441159.72744   8135969.50944  23567455.5974   23567458.2774
  -1134902.896 4   -884340.037 4  25127215.100    25127211.451
  -3272217.26144  -2549768.50844  24982725.7144   24982731.2894
 -21254646.91744 -16562033.82544  21076708.4774   21076711.5404
  -8315136.68844  -6479322.65244  23632931.3754   23632935.2114
 -17476383.11144 -13617934.08744  21645052.2844   21645055.5024
 -13403113.46344 -10443970.41744  22386939.1174   22386941.0364
 96  5 16  1 19  0.0000000  0  8G 6G16G28G21G17G22G23G26
 -11477888.74944  -8943805.28644  20340547.2274   20340549.1184
  10538752.78444   8212016.01444  23586026.9694   23586030.4124
  -1238398.766 4   -964986.124 4  25107520.448    25107516.996
  -3369910.13944  -2625892.59644  24964135.1074   24964146.0284
 -21285400.82744 -16585997.90544  21070856.1514   21070859.1824
  -8352146.86844  -6508161.72844  23625888.6144   23625891.7214
 -17542521.64944 -13669470.58044  21632466.5304   21632469.6934
 -13443441.87344 -10475395.13544  22379264.8394   22379266.3964
 96  5 16  1 19 30.0000000  0  8G 6G16G28G21G17G22G23G26
 -11454000.54244  -8925191.10544  20345093.0624   20345094.8204
  10636521.36944   8288199.29944  23604631.7464   23604634.1844
  -1341904.064 4  -1045639.559 4  25087823.991    25087820.642
  -3467469.80944  -2701912.85644  24945569.7214   24945579.4014
 -21315938.25544 -16609793.30644  21065045.1904   21065048.2414
  -8388654.01344  -6536608.85444  23618941.4014   23618944.8124
 -17608258.80044 -13720694.30544  21619957.1834   21619960.3684
 -13483274.88544 -10506433.82944  22371684.9374   22371686.9184
 96  5 16  1 20  0.0000000  0  8G 6G16G28G21G17G22G23G26
 -11429623.02944  -8906195.65144  20349731.9494   20349733.7904
  10734471.11244   8364523.74144  23623270.9954   23623272.8344
  -1445419.147 4  -1126300.620 4  25068125.675    25068122.299
  -3564887.56944  -2777822.55044  24927031.8814   24927041.5624
 -21346245.57944 -16633409.40744  21059277.9424   21059280.7954
  -8424635.79244  -6564646.57544  23612094.2064   23612097.4154
 -17673580.94244 -13771594.65044  21607526.6854   21607529.8684
 -13522612.92144 -10537086.82144  22364199.2244   22364200.5224
 96  5 16  1 20 30.0000000  0  8G 6G16G28G21G17G22G23G26
 -11404758.70744  -8886820.86644  20354463.3794   20354465.2214
  10832564.55944   8440960.16244  23641937.5834   23641939.9324
  -1548966.092 4  -1206986.501 4  25048421.388    25048418.080
  -3662183.17944  -2853637.07744  24908516.8844   24908526.3174
 -21376334.17644 -16656855.06144  21053552.2004   21053555.1784
  -8460123.90344  -6592299.64744  23605340.9534   23605344.2104
 -17738503.68944 -13822183.77744  21595172.3254   21595175.5044
 -13561475.14144 -10567369.04744  22356803.9524   22356805.5264
 96  5 16  1 21  0.0000000  0  8G 6G16G28G21G17G22G23G26
 -11379384.04544  -8867048.41144  20359291.9924   20359293.8304
  10930794.36944   8517502.83444  23660630.0814   23660633.0704
  -1652529.359 4  -1287685.097 4  25028713.934    25028710.547
  -3759344.27144  -2929346.77644  24890027.7074   24890035.8984
 -21406227.19844 -16680148.31744  21047863.7904   21047866.5684
  -8495097.85944  -6619552.07244  23598685.6404   23598690.2954
 -17803010.45044 -13872448.76444  21582897.0234   21582900.2324
 -13599844.33044 -10597267.09844  22349502.4254   22349504.5974
 96  5 16  1 21 30.0000000  0  8G 6G16G28G21G17G22G23G26
 -11353475.43344  -8846859.89144  20364222.2484   20364224.0784
  11029192.10944   8594176.37144  23679354.5984   23679357.9184
  -1756088.036 4  -1368380.114 4  25009007.344    25009003.985
  -3856343.10244  -3004930.00544  24871569.1724   24871577.3634
 -21435922.64644 -16703287.61644  21042212.9374   21042215.8534
  -8529517.27944  -6646372.39844  23592135.8744   23592138.7684
 -17867104.01344 -13922391.77544  21570700.3354   21570703.5464
 -13637693.67044 -10626760.06944  22342299.8134   22342301.9674
 96  5 16  1 22  0.0000000  0  8G 6G16G28G21G17G22G23G26
 -11327021.15944  -8826246.18344  20369256.4834   20369258.1914
  11127753.07744   8670977.09044  23698110.2084   23698113.5494
  -1859638.306 4  -1449068.587 4  24989302.380    24989298.953
  -3953201.00544  -3080403.46244  24853137.4644   24853144.9094
 -21465416.64844 -16726269.95044  21036600.4334   21036603.3644
  -8563389.28644  -6672766.15744  23585690.3864   23585693.3154
 -17930782.37144 -13972011.25044  21558582.7464   21558585.9834
 -13675023.24044 -10655848.02244  22335196.2634   22335197.6774
 96  5 16  1 22 30.0000000  0  8G 6G16G28G21G17G22G23G26
 -11300035.56644  -8805218.46144  20374391.5904   20374393.3774
  11226458.10444   8747890.07444  23716893.0464   23716896.5324
  -1963182.324 4  -1529752.184 4  24969598.508    24969595.181
  -4049942.44644  -3155786.16844  24834728.0494   24834734.3084
 -21494727.95244 -16749109.92044  21031022.6784   21031025.5714
  -8596732.41144  -6698747.80444  23579345.3814   23579349.2864
 -17994057.25644 -14021316.32944  21546541.9564   21546545.1574
 -13711833.23344 -10684531.11444  22328191.6034   22328193.3344
 96  5 16  1 23  0.0000000  0  8G 6G16G28G21G17G22G23G26
 -11272526.48244  -8783782.82344  20379626.3794   20379628.1684
  11325311.19044   8824918.40444  23735704.2684   23735706.8604
  -2066710.300 4  -1610423.280 4  24949897.727    24949894.437
  -4146551.69644  -3231065.88944  24816343.8414   24816350.5514
 -21523852.85444 -16771804.64844  21025480.3344   21025483.3354
  -8629524.80144  -6724300.30944  23573105.0734   23573109.0274
 -18056933.49144 -14070310.77144  21534576.9694   21534580.1474
 -13748112.78244 -10712800.87344  22321287.7594   22321289.3784
 96  5 16  1 23 30.0000000  0  8G 6G16G28G21G17G22G23G26
 -11244429.80544  -8761889.31744  20384973.0624   20384974.8724
  11424395.68944   8902127.07444  23754559.3504   23754562.7024
  -2170141.112 4  -1691018.658 4  24930215.440    24930212.112
  -4242934.17544  -3306168.89544  24798002.3804   24798011.5644
 -21552683.74444 -16794270.26744  21019994.0094   21019996.8814
  -8661688.40744  -6749362.84044  23566984.5674   23566988.3694
 -18119340.72744 -14118939.76444  21522701.3064   21522704.4964
 -13783779.51644 -10740593.12344  22314500.5664   22314502.3934
 96  5 16  1 24  0.0000000  0  8G 6G16G28G21G17G22G23G26
 -11215824.69144  -8739599.62844  20390416.4844   20390418.2824
  11523635.54544   8979456.79944  23773444.0764   23773447.3024
  -2273537.204 4  -1771586.985 4  24910539.756    24910536.469
  -4339137.82544  -3381132.51544  24779695.3454   24779700.8504
 -21581270.31044 -16816545.50844  21014554.0994   21014557.0814
  -8693294.76344  -6773991.16244  23560970.2394   23560973.5364
 -18181323.66944 -14167238.13644  21510906.3954   21510909.5654
 -13818913.52444 -10767970.24344  22307814.7774   22307816.5954
 96  5 16  1 24 30.0000000  0  8G 6G16G28G21G17G22G23G26
 -11186905.87644  -8717065.49944  20395919.5644   20395921.3694
  11622836.87444   9056756.50144  23792321.4204   23792324.0164
  -2377089.437 4  -1852276.978 4  24890834.336    24890831.140
  -4435333.25644  -3456089.77844  24761389.9114   24761396.1034
 -21609805.40944 -16838780.65444  21009124.1084   21009127.0504
  -8724524.21244  -6798325.78644  23555027.4324   23555029.7134
 -18243079.67144 -14215359.67044  21499154.5664   21499157.6474
 -13853701.00144 -10795077.34944  22301195.0304   22301196.4964
 96  5 16  1 25  0.0000000  0  8G 6G16G28G21G17G22G23G26
 -11157422.55344  -8694091.49344  20401530.0194   20401531.9564
  11722254.64544   9134224.86544  23811240.0824   23811243.1664
  -2480546.940 4  -1932893.160 4  24871146.988    24871143.749
  -4531261.78644  -3530839.08244  24743135.2094   24743140.3174
 -21638025.15544 -16860770.06444  21003754.0264   21003756.8104
  -8755129.94944  -6822174.39744  23549203.4184   23549206.4804
 -18304348.50244 -14263101.59144  21487495.4554   21487498.6204
 -13887876.29844 -10821707.44444  22294691.7074   22294693.5144
 96  5 16  1 25 30.0000000  0  8G 6G16G28G21G17G22G23G26
 -11127298.23344  -8670618.00944  20407262.4074   20407264.1634
  11821965.69444   9211921.75344  23830214.4464   23830217.2234
  -2583830.714 4  -2013373.962 4  24851492.700    24851489.465
  -4626862.51844  -3605332.96744  24724942.8274   24724949.6924
 -21665855.00344 -16882455.66844  20998458.2054   20998461.2054
  -8785042.68744  -6845483.02244  23543511.3134   23543514.2904
 -18365033.23344 -14310388.36744  21475947.5704   21475950.7464
 -13921362.62944 -10847800.66344  22288319.4434   22288321.2234
 96  5 16  1 26  0.0000000  0  8G 6G16G28G21G17G22G23G26
 -11096824.94844  -8646872.60544  20413061.3924   20413063.1054
  11921653.61244   9289600.60944  23849184.4164   23849186.8884
  -2687243.396 4  -2093955.219 4  24831813.871    24831810.658
  -4722451.46144  -3679817.67144  24706752.7904   24706758.2434
 -21693603.76544 -16904078.06844  20993177.6924   20993180.5364
  -8814573.50144  -6868494.05444  23537891.5954   23537894.5114
 -18425437.30244 -14357456.44544  21464452.9794   21464456.1364
 -13954467.99844 -10873597.03844  22282019.6124   22282021.8644
 96  5 16  1 26 30.0000000  0  8G23G 6G16G28G21G17G22G26
 -18486083.32044 -14404713.05744  21452912.4364   21452915.5354
 -11066496.87344  -8623240.35144  20418832.5974   20418834.4124
  12020802.04544   9366859.09144  23868051.7524   23868055.3514
  -2791303.105 4  -2175040.644 4  24812011.859    24812008.681
  -4818568.14844  -3754713.60944  24688462.2224   24688467.8164
 -21721793.08944 -16926043.78344  20987813.5814   20987816.6384
  -8844257.90944  -6891624.76744  23532242.9264   23532245.8534
 -13987704.00044 -10899495.20744  22275695.0124   22275696.7564
 96  5 16  1 27  0.0000000  0  8G23G 6G16G28G21G17G22G26
 -18546609.84244 -14451876.55644  21441394.4864   21441397.6404
 -11035955.83044  -8599442.15044  20424644.3304   20424646.1994
  12119761.93544   9443970.66144  23886883.1514   23886886.6944
  -2895652.508 4  -2256351.808 4  24792154.712    24792151.527
  -4914864.47244  -3829749.50644  24670137.5964   24670144.6854
 -21750062.25544 -16948071.70844  20982434.1514   20982437.0964
  -8873751.26044  -6914606.60744  23526630.5114   23526633.6954
 -14020722.96444 -10925224.25444  22269411.7484   22269413.4824
 96  5 16  1 27 30.0000000  0  8G23G 6G16G28G21G17G22G26
 -18606757.53444 -14498744.86844  21429948.7474   21429951.9014
 -11004909.85444  -8575250.49444  20430552.0934   20430553.9174
  12218805.34244   9521147.30544  23905730.6054   23905733.6434
  -3000011.911 4  -2337670.761 4  24772295.727    24772292.545
  -5011052.89744  -3904701.33444  24651833.3564   24651839.0914
 -21778138.00844 -16969948.91644  20977091.3984   20977094.4604
  -8902773.78844  -6937221.58744  23521107.6934   23521110.9244
 -14053262.40844 -10950579.64644  22263219.7264   22263221.4854
 96  5 16  1 28  0.0000000  0  8G23G 6G16G28G21G17G22G26
 -18665936.27944 -14544858.15144  21418687.3654   21418690.5244
 -10972749.02844  -8550190.12444  20436672.2724   20436674.0294
  12318533.66144   9598857.65444  23924708.2544   23924711.5944
  -3103786.062 4  -2418533.677 4  24752548.071    24752544.918
  -5106529.77044  -3979098.71444  24633664.5594   24633669.7194
 -21805420.24044 -16991207.79744  20971899.7244   20971902.6844
  -8930726.98144  -6959003.34944  23515788.4284   23515791.5954
 -14084711.61544 -10975085.50244  22257235.0854   22257236.8974
 96  5 16  1 28 30.0000000  0  8G23G 6G16G28G21G17G22G26
 -18724409.24544 -14590421.48044  21407560.4024   21407563.5314
 -10939751.27544  -8524477.60344  20442951.5564   20442953.3234
  12418678.96444   9676892.91644  23943765.3004   23943768.4114
  -3207242.076 4  -2499148.694 4  24732860.993    24732857.874
  -5201561.46444  -4053149.17844  24615580.4364   24615586.9364
 -21832190.14544 -17012067.46544  20966805.6034   20966808.6184
  -8957875.70844  -6980158.78444  23510622.1434   23510625.4234
 -14115330.84744 -10998944.62944  22251408.3344   22251410.0024
 96  5 16  1 29  0.0000000  0  8G23G 6G16G28G21G17G22G26
 -18782289.89444 -14635523.26044  21396546.1394   21396549.2504
 -10906049.09844  -8498216.18144  20449364.8564   20449366.6744
  12519125.97744   9755163.27944  23962879.8614   23962882.9064
  -3310484.373 4  -2579597.174 4  24713214.543    24713211.452
  -5296243.91644  -4126927.52544  24597562.7084   24597568.3844
 -21858566.33244 -17032620.33644  20961786.3664   20961789.3944
  -8984303.81744  -7000752.33844  23505592.9624   23505595.9804
 -14145206.87244 -11022224.63444  22245723.1004   22245724.8704
 96  5 16  1 29 30.0000000  0  8G23G 6G16G28G21G17G22G26
 -18839928.32044 -14680436.29344  21385577.8424   21385580.9544
 -10872013.36344  -8471694.84544  20455841.6094   20455843.5484
  12619526.77344   9833397.62344  23981985.5164   23981988.7214
  -3413872.399 4  -2660159.214 4  24693540.375    24693537.230
  -5390929.33644  -4200708.17344  24579544.5314   24579550.5154
 -21884916.27544 -17053152.76044  20956772.2184   20956775.1924
  -9010362.27344  -7021055.67244  23500634.3614   23500638.3704
 -14174690.23944 -11045198.66344  22240112.5354   22240114.3954
 96  5 16  1 30  0.0000000  0  8G 6G16G28G21G17G22G23G26
 -10837963.14644  -8445162.22444  20462321.2104   20462322.9614
  12719589.52044   9911368.56544  24001026.8584   24001029.7944
  -3517707.769 4  -2741069.834 4  24673781.052    24673777.992
  -5485929.38244  -4274734.02344  24561466.4404   24561471.7724
 -21911545.35144 -17073902.68444  20951704.8294   20951707.7974
  -9036342.86044  -7041300.35344  23495690.4104   23495694.5234
 -18897611.89844 -14725384.51144  21374601.0074   21374604.0504
 -14204083.28644 -11068102.32244  22234519.2904   22234521.2304
 96  5 16  1 30 30.0000000  0  8G 6G16G28G21G17G22G23G26
 -10803639.18444  -8418416.29744  20468852.8894   20468854.6604
  12819576.01544   9989280.07844  24020053.5394   24020056.9574
  -3621716.977 4  -2822115.906 4  24653988.758    24653985.656
  -5580973.54844  -4348794.24344  24543379.8924   24543387.3404
 -21938187.03744 -17094662.42644  20946635.0444   20946638.0404
  -9061966.72544  -7061267.03144  23490814.2154   23490818.3584
 -18955074.14844 -14770160.26844  21363666.2484   21363669.3724
 -14233120.08444 -11090728.38244  22228993.7764   22228995.3334
 96  5 16  1 31  0.0000000  0  8G23G 6G16G28G21G17G22G26
 -19011965.51444 -14814491.18544  21352840.1464   21352843.2654
 -10768689.98144  -8391183.16944  20475503.5604   20475505.3354
  12919844.41344  10067411.25244  24039134.1254   24039137.1654
  -3725550.323 4  -2903024.946 4  24634229.875    24634226.793
  -5675712.42344  -4422616.56144  24525351.7174   24525357.9124
 -21964475.82244 -17115147.18044  20941632.4954   20941635.4034
  -9086869.37444  -7080671.71044  23486075.5444   23486078.7554
 -14261454.81744 -11112807.37744  22223601.8124   22223603.5574
 96  5 16  1 31 30.0000000  0  8G23G 6G16G28G21G17G22G26
 -19067980.03944 -14858138.84744  21342180.9134   21342184.0894
 -10732803.95544  -8363220.04944  20482332.3354   20482334.1354
  13020700.07544  10146000.04744  24058326.2824   24058329.4874
  -3828906.275 4  -2983561.989 4  24614561.810    24614558.778
  -5769843.95444  -4495965.64744  24507439.0264   24507446.5384
 -21990093.14644 -17135108.73544  20936757.6184   20936760.5524
  -9110764.46344  -7099291.25744  23481528.3454   23481531.2704
 -14288812.10044 -11134124.72544  22218395.9934   22218397.9334
 96  5 16  1 32  0.0000000  0  8G23G 6G16G28G21G17G22G26
 -19123241.71044 -14901199.87044  21331664.9124   21331668.0764
 -10696084.28844  -8334607.33644  20489319.8804   20489321.6884
  13122010.41444  10224943.13744  24077604.9854   24077607.7424
  -3931892.462 4  -3063810.910 4  24594964.167    24594961.048
  -5863474.42344  -4568924.28044  24489621.5804   24489627.4804
 -22015147.13844 -17154631.33344  20931990.0114   20931992.8664
  -9133771.84944  -7117219.09844  23477150.0494   23477153.5604
 -14315307.40644 -11154770.39944  22213354.1304   22213355.9024
 96  5 16  1 32 30.0000000  0  8G23G 6G16G28G21G17G22G26
 -19178509.81044 -14944265.90444  21321147.6844   21321150.7714
 -10659287.10744  -8305934.22544  20496322.1594   20496324.0904
  13223005.16844  10303640.31144  24096823.6984   24096826.0214
  -4035269.095 4  -3144364.076 4  24575292.205    24575289.098
  -5957350.06544  -4642073.98544  24471757.3814   24471761.3724
 -22040401.13744 -17174309.77744  20927184.3464   20927187.2974
  -9156662.94544  -7135056.30444  23472793.9114   23472796.6984
 -14341703.77644 -11175338.98944  22208330.9904   22208333.0894
 96  5 16  1 33  0.0000000  0  8G23G 6G16G28G21G17G22G26
 -19233921.18844 -14987443.58244  21310603.2384   21310606.4054
 -10622545.91044  -8277304.73744  20503313.7814   20503315.6834
  13323550.26244  10381987.09644  24115956.8154   24115960.8254
  -4139170.075 4  -3225325.823 4  24555520.471    24555517.357
  -6051603.36844  -4715517.95744  24453821.5654   24453827.5784
 -22065996.87044 -17194254.50744  20922313.6194   20922316.5164
  -9179592.83144  -7152923.74344  23468430.4374   23468433.8634
 -14368153.42644 -11195949.09844  22203297.7234   22203299.4744
 96  5 16  1 33 30.0000000  0  8G23G 6G16G28G21G17G22G26
 -19289665.64544 -15030880.80544  21299995.4544   21299998.5574
 -10586039.50244  -8248858.20244  20510260.6494   20510262.4854
  13423440.19144  10459823.36844  24134965.3134   24134969.0434
  -4243778.354 4  -3306838.712 4  24535614.093    24535611.044
  -6146420.85144  -4789401.55044  24435778.0554   24435783.4834
 -22092141.68844 -17214627.09644  20917338.4874   20917341.3754
  -9202769.68844  -7170983.62244  23464020.0954   23464023.7694
 -14394830.54844 -11216736.46144  22198221.1454   22198222.9794
 96  5 16  1 34  0.0000000  0  8G23G 6G16G28G21G17G22G26
 -19345145.96744 -15074112.20844  21289437.9464   21289441.0794
 -10549156.86844  -8220118.50344  20517279.1714   20517281.0624
  13523270.14144  10537612.90144  24153962.3374   24153965.5524
  -4348488.531 4  -3388431.000 4  24515688.385    24515685.255
  -6241210.23844  -4863263.25244  24417740.1824   24417746.7944
 -22118247.78844 -17234969.50744  20912370.6344   20912373.5824
  -9225583.16344  -7188760.34544  23459678.8374   23459682.3364
 -14421112.71644 -11237216.07844  22193219.8654   22193222.0544
 96  5 16  1 34 30.0000000  0  8G23G 6G16G28G21G17G22G26
 -19399976.38844 -15116837.19744  21279004.0744   21279007.1774
 -10511521.47844  -8190792.24144  20524440.9884   20524442.8404
  13623414.47044  10615647.40744  24173019.0384   24173022.6624
  -4452922.077 4  -3469807.732 4  24495815.269    24495812.256
  -6335607.96244  -4936819.78444  24399776.8824   24399780.4924
 -22143942.18644 -17254991.12344  20907481.1344   20907483.9524
  -9247650.62644  -7205955.76544  23455479.5394   23455483.8284
 -14446603.72744 -11257079.14244  22188369.0674   22188370.6764
 96  5 16  1 35  0.0000000  0  8G23G 6G16G28G21G17G22G26
 -19454183.19844 -15159076.24544  21268688.8794   21268691.9014
 -10473144.33444  -8160887.98944  20531743.8804   20531745.8444
  13723843.72144  10693903.93544  24192130.3014   24192134.2484
  -4557090.541 4  -3550977.911 4  24475992.650    24475989.571
  -6429641.53044  -5010092.54744  24381882.8704   24381888.7144
 -22169237.81344 -17274702.00644  20902667.5624   20902670.4534
  -9268987.35244  -7222581.78744  23451419.1724   23451424.0614
 -14471292.21044 -11276316.91944  22183671.0744   22183672.6864
 96  5 16  1 35 30.0000000  0  8G23G 6G16G28G21G17G22G26
 -19507889.22944 -15200925.07744  21258468.9364   21258471.9104
 -10434159.49044  -8130510.20344  20539162.5814   20539164.4904
  13824409.81444  10772267.09544  24211267.3454   24211271.5464
  -4661130.034 4  -3632047.596 4  24456194.603    24456191.508
  -6523432.89144  -5083176.58144  24364034.6434   24364039.3024
 -22194250.36344 -17294192.30944  20897907.8804   20897910.6964
  -9289718.08744  -7238735.60844  23447474.1344   23447477.9194
 -14495294.93544 -11295020.33144  22179103.4584   22179105.7394
 96  5 16  1 36  0.0000000  0  8G23G 6G16G28G21G17G22G26
 -19560750.15144 -15242115.38744  21248409.7564   21248412.8154
 -10394236.79744  -8099401.62844  20546759.5504   20546761.5384
  13925463.14044  10851009.90144  24230497.0454   24230500.2194
  -4764700.919 4  -3712752.129 4  24436485.643    24436482.560
  -6616633.27844  -5155800.14144  24346299.1754   24346305.7414
 -22218622.74044 -17313183.77044  20893269.9204   20893272.8944
  -9309491.71544  -7254143.63944  23443711.4074   23443714.9314
 -14518286.58644 -11312935.89244  22174728.3574   22174730.2604
 96  5 16  1 36 30.0000000  0  8G23G 6G16G28G21G17G22G26
 -19612797.49444 -15282671.74044  21238505.4974   21238508.5594
 -10353436.05144  -8067608.85544  20554523.6844   20554525.5944
  14026952.28844  10930092.30644  24249809.8254   24249813.1604
  -4867843.597 4  -3793122.998 4  24416858.215    24416855.179
  -6709269.26844  -5227983.89344  24328671.0734   24328675.7074
 -22242388.69744 -17331702.69744  20888747.4464   20888750.3724
  -9328353.48444  -7268841.13044  23440122.2814   23440125.7224
 -14540320.64844 -11330105.27744  22170535.2254   22170537.0484
 96  5 16  1 37  0.0000000  0  8G23G 6G16G28G21G17G22G26
 -19664623.09144 -15323055.30244  21228643.4494   21228646.4964
 -10312351.07444  -8035594.60344  20562341.9544   20562343.8794
  14128302.31244  11009066.32644  24269096.1234   24269100.2974
  -4971140.059 4  -3873613.702 4  24397201.514    24397198.544
  -6801916.26144  -5300176.24144  24311040.7704   24311045.4184
 -22266114.57944 -17350190.39744  20884232.5464   20884235.3514
  -9346888.21344  -7283283.77044  23436595.4004   23436599.2644
 -14562007.71744 -11347004.28144  22166408.3774   22166410.2964
 96  5 16  1 37 30.0000000  0  8G23G 6G16G28G21G17G22G26
 -19716275.49244 -15363303.90244  21218814.2404   21218817.3104
 -10271045.65744  -8003408.57944  20570202.1724   20570204.0934
  14229461.05144  11087891.29244  24288346.1624   24288349.6504
  -5074649.187 4  -3954270.121 4  24377504.295    24377501.340
  -6894632.71944  -5372422.69244  24293397.2784   24293402.6494
 -22289854.48444 -17368689.02744  20879714.9894   20879717.8164
  -9365150.62744  -7297514.23244  23433120.0554   23433123.1724
 -14583428.61344 -11363695.87444  22162332.0914   22162333.7534
 96  5 16  1 38  0.0000000  0  8G23G 6G16G28G21G17G22G26
 -19767736.60344 -15403403.44644  21209021.4444   21209024.5484
 -10229504.35544  -7971038.75144  20578107.2414   20578109.1494
  14330458.65044  11166590.69244  24307565.3014   24307568.6754
  -5178339.065 4  -4035067.384 4  24357772.776    24357769.814
  -6987410.89844  -5444717.24744  24275741.9204   24275746.5924
 -22313597.34844 -17387189.96544  20875196.8784   20875199.8084
  -9383117.29344  -7311514.23344  23429701.1184   23429704.2864
 -14604550.44344 -11380154.42644  22158312.6494   22158314.1514
 96  5 16  1 38 30.0000000  0  8G23G 6G16G28G21G17G22G26
 -19818592.56244 -15443031.44944  21199343.8724   21199346.9284
 -10187298.97444  -7938151.45944  20586138.5324   20586140.4374
  14431707.89644  11245486.15744  24326832.4974   24326835.7764
  -5281785.038 4  -4115674.591 4  24338087.597    24338084.610
  -7079838.31744  -5516738.48544  24258153.4634   24258158.3844
 -22336932.04544 -17405372.85844  20870756.4244   20870759.2654
  -9400365.54044  -7324954.43144  23426418.8834   23426422.7884
 -14624947.60844 -11396048.31144  22154431.1534   22154432.8774
 96  5 16  1 39  0.0000000  0  8G23G 6G16G28G21G17G22G26
 -19868860.68744 -15482201.39944  21189778.0744   21189781.1944
 -10144413.74044  -7904734.41244  20594299.2014   20594301.2464
  14533219.19244  11324585.83344  24346149.3674   24346155.3654
  -5384990.466 4  -4196094.360 4  24318448.187    24318445.048
  -7171926.06644  -5588495.05344  24240629.5294   24240636.2044
 -22359876.21544 -17423251.43344  20866390.1454   20866393.1534
  -9416900.89544  -7337839.11944  23423272.2284   23423275.9004
 -14644617.62344 -11411375.58344  22150688.0584   22150689.7174
 96  5 16  1 39 30.0000000  0  8G23G26G 6G16G28G21G17G22
 -19918834.65244 -15521142.13244  21180268.2024   21180271.4014
 -14663845.60044 -11426358.40744  22147029.1464   22147031.1424
 -10101134.60244  -7871010.42544  20602534.9754   20602537.1734
  14634685.64744  11403650.56944  24365457.8174   24365461.1904
  -5488252.009 4  -4276557.854 4  24298798.162    24298794.999
  -7263970.72344  -5660218.03844  24223113.9324   24223120.0944
 -22382755.27044 -17441079.27044  20862036.4064   20862039.4674
  -9433022.03044  -7350401.03044  23420204.5034   23420208.0624
 96  5 16  1 40  0.0000000  0  8G23G26G 6G16G28G21G17G22
 -19968625.40744 -15559940.10044  21170793.3894   21170796.5574
 -14682720.28144 -11441065.94144  22143437.3064   22143439.1444
 -10057557.51844  -7837054.27444  20610827.4734   20610829.5154
  14736022.00644  11482613.93344  24384741.3524   24384744.8344
  -5591655.813 4  -4357132.200 4  24279120.979    24279117.926
  -7356058.12644  -5731974.35044  24205590.1564   24205597.1424
 -22405668.76444 -17458933.93744  20857676.1214   20857679.2054
  -9448812.56944  -7362705.37044  23417199.6644   23417203.7384
 96  5 16  1 40 30.0000000  0  8G23G26G 6G16G28G21G17G22
 -20017806.84044 -15598263.27644  21161434.4354   21161437.5844
 -14700815.39244 -11455166.01744  22139993.8904   22139995.6934
 -10013236.14144  -7802518.15244  20619261.5894   20619263.6974
  14837677.15344  11561825.69444  24404085.8854   24404090.3454
  -5694767.199 4  -4437478.685 4  24259499.434    24259496.450
  -7447744.53444  -5803418.18644  24188142.6834   24188149.2164
 -22428178.69344 -17476474.14144  20853392.5714   20853395.5014
  -9463830.18644  -7374407.40644  23414341.9204   23414345.1134
 96  5 16  1 41  0.0000000  0  8G23G26G 6G16G28G21G17G22
 -20066535.01144 -15636233.26244  21152161.7344   21152164.8844
 -14718282.42944 -11468776.68644  22136670.0514   22136672.1844
  -9968344.99344  -7767538.05344  20627804.0594   20627806.2224
  14939491.82744  11641161.76844  24423460.3994   24423463.9154
  -5797748.123 4  -4517723.509 4  24239902.777    24239899.808
  -7539186.37344  -5874671.45944  24170741.9504   24170746.5234
 -22450441.94244 -17493822.12744  20849156.0114   20849159.0724
  -9478239.32944  -7385635.30844  23411599.9604   23411603.1074
 96  5 16  1 41 30.0000000  0  8G23G26G 6G16G28G21G17G22
 -20114831.66444 -15673867.00044  21142971.1664   21142974.2404
 -14735151.31444 -11481921.26144  22133459.9714   22133461.9764
  -9922933.44844  -7732152.45244  20636445.5904   20636447.6674
  15041413.75144  11720581.42344  24442855.6794   24442859.7154
  -5900630.654 4  -4597891.664 4  24220324.828    24220321.912
  -7630410.66344  -5945755.22344  24153382.5714   24153387.6674
 -22472479.22844 -17510994.03844  20844962.4134   20844965.5124
  -9492059.42444  -7396404.21244  23408969.9624   23408973.6744
 96  5 16  1 42  0.0000000  0  8G23G26G 6G16G28G21G17G22
 -20162605.40744 -15711093.27244  21133880.1094   21133883.1974
 -14751331.76944 -11494529.39744  22130380.9324   22130382.9214
  -9876918.14744  -7696296.39344  20645201.9774   20645204.2484
  15143515.48344  11800141.16744  24462284.9494   24462288.1074
  -6003330.668 4  -4677917.603 4  24200781.592    24200778.780
  -7721327.07944  -6016599.10644  24136081.4834   24136086.7074
 -22494192.11244 -17527913.16844  20840830.5964   20840833.6534
  -9505210.24744  -7406651.61844  23406467.4764   23406470.8314
 96  5 16  1 42 30.0000000  0  8G23G26G 6G16G28G21G17G22
 -20209938.07444 -15747975.85044  21124872.9894   21124876.0214
 -14766932.08244 -11506685.47244  22127412.1944   22127414.2394
  -9830404.27144  -7660051.83544  20654053.2954   20654055.4194
  15245660.99144  11879735.03544  24481722.6954   24481724.5824
  -6105965.842 4  -4757893.016 4  24181250.756    24181247.890
  -7812049.38344  -6087291.69744  24118817.6584   24118823.5584
 -22515701.93244 -17544674.06744  20836737.4204   20836740.4974
  -9517822.67144  -7416479.48644  23404067.4084   23404070.5924
 96  5 16  1 43  0.0000000  0  8G23G26G 6G16G28G21G17G22
 -20257241.25244 -15784835.44944  21115871.4104   21115874.5624
 -14782380.91744 -11518723.51544  22124472.3724   22124474.2064
  -9783830.59844  -7623760.68044  20662916.0384   20662918.2824
  15347397.00644  11959009.82144  24501082.4164   24501086.7074
  -6208968.742 4  -4838154.971 4  24161649.902    24161647.105
  -7903006.99944  -6158167.67644  24101508.9664   24101513.2304
 -22537442.72744 -17561614.95144  20832600.3254   20832603.3804
  -9530339.17944  -7426232.62344  23401685.7314   23401688.5294
 96  5 16  1 43 30.0000000  0  8G23G26G 6G16G28G21G17G22
 -20304247.45944 -15821463.64144  21106926.3474   21106929.4574
 -14797421.94344 -11530443.78744  22121610.0594   22121612.0504
  -9736923.06844  -7587209.37244  20671842.2154   20671844.4554
  15448987.37744  12038171.12244  24520414.3114   24520417.4804
  -6312068.135 4  -4918492.115 4  24142030.712    24142027.872
  -7993922.48544  -6229010.81344  24084208.1974   24084214.5874
 -22559145.73544 -17578526.38644  20828470.3384   20828473.3564
  -9542507.49344  -7435714.42544  23399370.0814   23399373.2954
 96  5 16  1 44  0.0000000  0  8G23G26G 6G16G28G21G17G22
 -20350268.06144 -15857323.82844  21098168.9534   21098172.1104
 -14811354.78944 -11541300.54244  22118958.6244   22118960.5194
  -9688992.79944  -7549861.12844  20680963.0604   20680965.2834
  15551141.89944  12117772.01244  24539853.8634   24539857.0274
  -6414562.507 4  -4998357.811 4  24122526.642    24122523.801
  -8084107.75044  -6299284.95844  24067046.3624   24067050.9234
 -22580121.86344 -17594871.41844  20824478.6934   20824481.7434
  -9553644.62444  -7444392.71744  23397250.6454   23397254.1654
 96  5 16  1 44 30.0000000  0  8G23G26G 6G16G28G21G17G22
 -20395252.59144 -15892376.68744  21089608.6574   21089611.8484
 -14824117.40444 -11551245.42744  22116530.0574   22116531.8814
  -9639982.76744  -7511671.51044  20690289.3604   20690291.5064
  15653943.74744  12197877.30144  24559416.3954   24559420.0964
  -6516384.765 4  -5077699.786 4  24103150.451    24103147.588
  -8173516.90144  -6368954.33644  24050032.3034   24050039.9094
 -22600311.73144 -17610603.77844  20820636.6334   20820639.7134
  -9563689.18444  -7452219.64944  23395339.2304   23395342.9744
 96  5 16  1 45  0.0000000  0  8G23G26G 6G16G28G21G17G22
 -20439753.62344 -15927052.79744  21081140.2764   21081143.4724
 -14836239.68144 -11560691.34644  22114223.4234   22114225.2064
  -9590433.47844  -7473061.69144  20699718.2644   20699720.4744
  15756863.01144  12278074.10044  24579001.3934   24579005.6214
  -6618059.924 4  -5156927.141 4  24083802.285    24083799.414
  -8262674.01644  -6438427.34244  24033066.1254   24033071.3044
 -22620228.13344 -17626123.05244  20816846.6824   20816849.7444
  -9573160.31244  -7459599.76644  23393536.9044   23393540.4044
 96  5 16  1 45 30.0000000  0  8G23G26G 6G16G28G21G17G22
 -20483785.39444 -15961363.24944  21072761.3654   21072764.5604
 -14847711.32744 -11569630.28244  22112040.3424   22112042.2724
  -9540342.38344  -7434029.68844  20709250.2694   20709252.5404
  15859893.82444  12358357.81044  24598607.4814   24598611.1694
  -6719581.348 4  -5236034.698 4  24064483.377    24064480.489
  -8351577.68844  -6507702.83844  24016148.2554   24016154.4844
 -22639868.29544 -17641427.07044  20813109.3134   20813112.2824
  -9582043.70344  -7466521.88144  23391846.5894   23391850.1564
 96  5 16  1 46  0.0000000  0  8G23G26G 6G16G28G21G17G22
 -20527711.21144 -15995591.14344  21064402.5764   21064405.7474
 -14858883.16444 -11578335.59644  22109914.4874   22109916.3544
  -9490071.46244  -7394857.56044  20718816.4754   20718818.6624
  15962663.91044  12438438.38244  24618163.8674   24618167.0944
  -6821311.594 4  -5315304.977 4  24045124.642    24045121.831
  -8440607.84744  -6577076.89944  23999206.1914   23999213.2564
 -22659595.63144 -17656799.01944  20809355.3264   20809358.3304
  -9590688.81444  -7473258.33944  23390201.3674   23390204.7634
 96  5 16  1 46 30.0000000  0  8G23G26G 6G16G28G21G17G22
 -20571511.64544 -16029721.33744  21056067.6444   21056070.8204
 -14869753.17044 -11586805.72344  22107845.9284   22107847.7544
  -9439599.31144  -7355528.63144  20728421.0834   20728423.2484
  16065160.15144  12518305.52744  24637668.1954   24637672.1494
  -6923243.087 4  -5394732.074 4  24025727.727    24025724.941
  -8529742.36344  -6646532.28844  23982244.3534   23982250.6764
 -22679391.33144 -17672224.23544  20805588.3784   20805591.3864
  -9599089.15144  -7479804.07344  23388602.7954   23388605.9834
 96  5 16  1 47  0.0000000  0  8G23G26G 6G16G28G21G17G22
 -20614887.04544 -16063520.33144  21047813.5074   21047816.6844
 -14880039.30944 -11594820.88744  22105888.6184   22105890.3424
  -9388627.17544  -7315810.10544  20738120.7764   20738122.9324
  16167650.89044  12598168.40544  24657171.5894   24657175.9614
  -7025081.710 4  -5474086.803 4  24006348.412    24006345.660
  -8618672.68244  -6715828.56644  23965321.4774   23965325.9674
 -22698960.81744 -17687473.18044  20801864.4344   20801867.5144
  -9606935.58944  -7485918.17044  23387109.8754   23387113.4114
 96  5 16  1 47 30.0000000  0  8G23G26G 6G16G28G21G17G22
 -20658533.91944 -16097530.86344  21039507.8134   21039510.9594
 -14890453.31544 -11602935.68544  22103906.9434   22103908.8024
  -9337846.52544  -7276240.79044  20747783.9854   20747786.2394
  16269443.47544  12677487.26544  24676542.0924   24676545.6594
  -7127528.452 4  -5553915.396 4  23986853.428    23986850.668
  -8708108.05344  -6785518.39644  23948302.4544   23948308.3314
 -22719013.12344 -17703098.35144  20798048.5614   20798051.5194
  -9614942.23544  -7492157.12144  23385586.3264   23385589.6234
 96  5 16  1 48  0.0000000  0  8G23G26G 6G16G28G21G17G22
 -20704736.95344 -16133533.20944  21030715.6254   21030718.7714
 -14903308.16144 -11612952.43444  22101460.6894   22101462.4194
  -9289545.07144  -7238603.31444  20756975.4504   20756977.7274
  16368254.47244  12754482.82544  24695345.0834   24695348.2724
  -7232873.554 4  -5636002.454 4  23966806.885    23966804.110
  -8800336.81644  -6857384.89744  23930751.9814   23930756.3954
 -22741834.42944 -17720881.17944  20793705.7434   20793708.8254
  -9625416.64044  -7500319.00244  23383592.9944   23383596.2104
 96  5 16  1 48 30.0000000  0  8G23G26G 6G16G28G21G17G22
 -20751444.47344 -16169928.66544  21021827.5254   21021830.6094
 -14916557.97744 -11623276.96044  22098939.3504   22098941.2694
  -9241668.40744  -7201296.84444  20766086.1054   20766088.4264
  16466141.25344  12830758.20844  24713972.4034   24713977.3974
  -7339061.196 4  -5718746.037 4  23946600.048    23946597.253
  -8893296.32944  -6929820.80344  23913062.3044   23913067.1814
 -22765378.66844 -17739227.33444  20789225.4364   20789228.4124
  -9636310.72244  -7508807.90544  23381519.9024   23381524.0444
 96  5 16  1 49  0.0000000  0  8G23G26G 6G16G28G21G17G22
 -20798059.67344 -16206252.18644  21012956.9804   21012960.1054
 -14929581.31444 -11633425.00344  22096461.0584   22096462.6734
  -9193613.01044  -7163851.09944  20775230.6934   20775232.9694
  16563741.99144  12906810.69144  24732545.2774   24732549.3084
  -7445478.487 4  -5801668.568 4  23926349.428    23926346.710
  -8986384.95544  -7002357.30244  23895348.0284   23895354.0254
 -22789042.56844 -17757666.73544  20784722.3784   20784725.4104
  -9647016.20344  -7517149.84944  23379482.7284   23379486.2704
 96  5 16  1 49 30.0000000  0  8G23G26G 6G16G28G21G17G22
 -20844004.17144 -16242053.07744  21004213.8914   21004216.9884
 -14941783.68044 -11642933.33444  22094138.9164   22094140.7794
  -9144822.96744  -7125832.90844  20784515.1314   20784517.3334
  16661651.62444  12983103.86544  24751176.9484   24751181.1684
  -7551544.886 4  -5884317.675 4  23906165.666    23906162.929
  -9079029.79044  -7074548.01744  23877718.2664   23877722.6904
 -22812247.06744 -17775748.16444  20780306.6704   20780309.7224
  -9656975.32444  -7524910.20844  23377587.6204   23377590.2014
 96  5 16  1 50  0.0000000  0  8G23G26G 6G16G28G21G17G22
 -20889238.55644 -16277300.62744  20995606.1004   20995609.2024
 -14953109.67444 -11651758.77644  22091983.7074   22091985.6124
  -9095273.46844  -7087222.93044  20793944.1794   20793946.4504
  16759903.50144  13059663.75744  24769873.7304   24769876.9504
  -7657217.385 4  -5966659.850 4  23886056.801    23886054.083
  -9171196.70644  -7146366.30944  23860179.5144   23860186.1314
 -22834957.47044 -17793444.58144  20775985.0354   20775988.1124
  -9666137.40544  -7532049.47944  23375844.2244   23375847.2994
 96  5 16  1 50 30.0000000  0  8G26G 6G16G28G21G17G22G23
 -14963514.06144 -11659866.08044  22090003.8384   22090005.7264
  -9044948.71844  -7048008.86044  20803520.7044   20803523.0224
  16858522.47144  13136509.65744  24788640.3704   24788644.4284
  -7762473.320 4  -6048677.426 4  23866027.259    23866024.533
  -9262877.75044  -7217806.01344  23842733.0954   23842738.2584
 -22857175.29444 -17810757.16444  20771757.1404   20771760.1654
  -9674466.17944  -7538539.45444  23374259.1924   23374263.0174
 -20933748.60044 -16311983.76944  20987136.1104   20987139.2114
 96  5 16  1 51  0.0000000  0  8G26G 6G16G28G21G17G22G23
 -14972908.80844 -11667186.65244  22088216.0734   22088217.7634
  -8993765.14544  -7008125.57444  20813260.5804   20813262.8264
  16957602.37544  13213714.73344  24807494.6534   24807499.6374
  -7867215.260 4  -6130294.495 4  23846095.531    23846092.763
  -9353976.32944  -7288791.85044  23825397.6014   23825402.4304
 -22878801.70144 -17827608.90544  20767641.8654   20767644.9224
  -9681853.80444  -7544296.05044  23372853.2814   23372857.5414
 -20977438.86144 -16346028.12544  20978822.0554   20978825.1654
 96  5 16  1 51 30.0000000  0  8G26G 6G16G28G21G17G22G23
 -14981561.89144 -11673929.30744  22086569.3904   22086571.5164
  -8941977.92744  -6967771.92244  20823115.3814   20823117.6504
  17056859.05844  13291057.57344  24826382.7304   24826386.9094
  -7971694.807 4  -6211707.089 4  23826213.667    23826210.953
  -9444740.25344  -7359516.91144  23808125.8374   23808131.1054
 -22900096.39044 -17844202.16544  20763589.5704   20763592.6144
  -9688549.22044  -7549513.27144  23371579.2084   23371582.7034
 -21020551.35444 -16379622.26544  20970618.0054   20970621.1164
 96  5 16  1 52  0.0000000  0  8G26G 6G16G28G21G17G22G23
 -14989580.35444 -11680177.44944  22085043.5584   22085045.1994
  -8889649.49744  -6926996.54644  20833073.1914   20833075.3764
  17156192.98844  13368460.58644  24845285.2734   24845286.7934
  -8076001.634 4  -6292985.103 4  23806364.662    23806362.000
  -9535249.49244  -7430043.50144  23790902.3654   23790906.8834
 -22921151.45944 -17860608.71044  20759582.9074   20759585.9444
  -9694637.98744  -7554257.77544  23370420.7144   23370423.8454
 -21063189.50844 -16412846.78544  20962504.2934   20962507.4024
 96  5 16  1 52 30.0000000  0  8G26G 6G16G28G21G17G22G23
 -14996415.95844 -11685503.89044  22083742.7554   22083744.6994
  -8836214.32044  -6885358.76944  20843241.5224   20843243.9204
  17256164.08844  13446360.11044  24864309.1474   24864312.3514
  -8179576.252 4  -6373692.559 4  23786655.020    23786652.292
  -9624919.08944  -7499915.84144  23773838.8624   23773843.5644
 -22941394.08644 -17876382.18144  20755730.7854   20755733.8114
  -9699563.29944  -7558095.68744  23369483.3994   23369486.3684
 -21104794.94744 -16445266.59444  20954587.0544   20954590.1434
 96  5 16  1 53  0.0000000  0  8G26G 6G16G28G21G17G22G23
 -15002158.58844 -11689978.65744  22082649.9234   22082651.9814
  -8781749.69844  -6842918.82844  20853605.8294   20853608.0384
  17356680.97744  13524684.90644  24883436.9664   24883441.1204
  -8282496.025 4  -6453889.746 4  23767069.956    23767067.241
  -9713799.00144  -7569172.85244  23756925.5404   23756930.0574
 -22960872.25544 -17891559.96844  20752024.2354   20752027.1704
  -9703416.21544  -7561097.96844  23368750.1974   23368753.4074
 -21145440.00244 -16476938.05544  20946852.5584   20946855.5494
 96  5 16  1 53 30.0000000  0  8G26G 6G16G28G21G17G22G23
 -15006752.96144 -11693558.68144  22081775.6344   22081777.5054
  -8726210.37144  -6799641.45244  20864174.7404   20864176.9474
  17457769.94344  13603455.50844  24902673.4964   24902676.0974
  -8384731.021 4  -6533553.343 4  23747615.246    23747612.539
  -9801863.28944  -7637794.31044  23740167.4544   23740171.9104
 -22979551.72944 -17906115.40144  20748469.6624   20748472.6784
  -9706187.25444  -7563257.23844  23368222.8624   23368226.6474
 -21185096.04244 -16507838.85044  20939306.2084   20939309.2594
 96  5 16  1 54  0.0000000  0  8G26G 6G16G28G21G17G22G23
 -15010546.45144 -11696514.63744  22081053.7124   22081055.7334
  -8669964.53744  -6755813.55144  20874877.8874   20874880.1714
  17559069.67844  13682390.35744  24921950.2684   24921953.8024
  -8486652.235 4  -6612972.431 4  23728220.279    23728217.497
  -9889488.28244  -7706073.43844  23723492.7604   23723498.0794
 -22997802.60944 -17920336.86144  20744996.5984   20744999.5984
  -9708250.99744  -7564865.36244  23367830.1274   23367833.3524
 -21224137.86844 -16538261.03944  20931876.8434   20931879.7664
 96  5 16  1 54 30.0000000  0  8G26G 6G16G28G21G17G22G23
 -15013568.18044 -11698869.22644  22080478.7694   22080480.5784
  -8613073.88944  -6711483.19644  20885703.7604   20885706.2664
  17660524.96144  13761446.34144  24941256.6444   24941261.1784
  -8588300.510 4  -6692178.836 4  23708877.239    23708874.422
  -9976729.52444  -7774053.56344  23706891.3034   23706895.4464
 -23015683.24344 -17934269.81844  20741594.0844   20741597.0654
  -9709654.42144  -7565958.95444  23367563.0404   23367566.2684
 -21262593.53244 -16568226.47944  20924558.9514   20924562.0024
 96  5 16  1 55  0.0000000  0  8G26G 6G16G28G21G17G22G23
 -15015862.39444 -11700656.91944  22080042.0904   22080043.9924
  -8555582.63344  -6666684.83944  20896644.0654   20896646.3974
  17762077.84744  13840578.44144  24960581.6344   24960584.8344
  -8689724.644 4  -6771210.587 4  23689576.799    23689573.980
 -10063667.80544  -7841797.60644  23690347.4104   23690352.0094
 -23033259.20844 -17947965.37844  20738249.4704   20738252.4604
  -9710464.00644  -7566589.80744  23367409.0714   23367412.8284
 -21300508.38744 -16597770.50844  20917343.9624   20917347.0074
 96  5 16  1 55 30.0000000  0  8G26G 6G16G28G21G17G22G23
 -15017346.92744 -11701813.68944  22079759.5234   22079761.5264
  -8497411.36444  -6621356.60344  20907713.6394   20907715.8954
  17863810.90344  13919850.89644  24979940.7204   24979943.7224
  -8790831.704 4  -6849995.269 4  23670336.755    23670333.959
 -10150235.37344  -7909252.77944  23673874.1404   23673878.2914
 -23050463.12944 -17961371.02944  20734975.6304   20734978.5384
  -9710588.88444  -7566687.13244  23367385.3184   23367388.8384
 -21337798.14744 -16626827.45144  20910247.9364   20910250.9764
 96  5 16  1 56  0.0000000  0  8G26G 6G16G28G21G17G22G23
 -15018001.13044 -11702323.44944  22079635.0954   22079637.0624
  -8438532.20944  -6575476.76544  20918918.0944   20918920.4334
  17965762.91344  13999293.99044  24999341.5064   24999343.9284
  -8891566.679 4  -6928490.013 4  23651167.442    23651164.733
 -10236366.26844  -7976367.69844  23657484.0134   23657488.7504
 -23067246.92444 -17974449.30844  20731781.7414   20731784.7864
  -9709969.99044  -7566204.89244  23367503.1304   23367506.6584
 -21374410.13444 -16655356.25444  20903280.8154   20903283.9044
 96  5 16  1 56 30.0000000  0  8G26G 6G16G28G21G17G22G23
 -15017473.47044 -11701912.27944  22079735.4834   22079737.2054
  -8378576.62644  -6528758.15544  20930327.2574   20930329.5004
  18068306.60244  14079198.12544  25018855.0974   25018859.9614
  -8991550.206 4  -7006399.220 4  23632141.158    23632138.447
 -10321686.64344  -8042851.04344  23641247.8584   23641252.2234
 -23083224.85944 -17986899.64444  20728741.2134   20728744.2644
  -9708225.74044  -7564845.75044  23367835.0184   23367838.4754
 -21409975.35244 -16683069.39244  20896512.9924   20896516.0924
 96  5 16  1 57  0.0000000  0  8G26G 6G16G28G21G17G22G23
 -15015911.40744 -11700695.07644  22080032.8514   22080034.5734
  -8317697.59744  -6481319.97144  20941912.1614   20941914.3044
  18171302.42244  14159454.60244  25038454.7234   25038459.4054
  -9090928.057 4  -7083836.465 4  23613229.974    23613227.518
 -10406340.67744  -8108815.14244  23625138.6364   23625143.2144
 -23098521.85544 -17998819.37744  20725830.4464   20725833.1244
  -9705493.53544  -7562716.78244  23368355.0204   23368358.2454
 -21444640.82044 -16710081.42744  20889916.4374   20889919.3004
 96  5 16  1 57 30.0000000  0  8G26G 6G16G28G21G17G22G23
 -15013240.87344 -11698614.13344  22080540.9794   22080542.8674
  -8255846.45544  -6433124.30144  20953682.0224   20953684.3054
  18274827.09744  14240123.12944  25058154.8964   25058159.9584
  -9189627.708 4  -7160745.251 4  23594448.148    23594445.544
 -10490238.54644  -8174190.03444  23609173.2494   23609177.9624
 -23113064.19044 -18010151.06744  20723063.0844   20723066.1254
  -9701690.79144  -7559753.62844  23369078.6684   23369082.8934
 -21478342.33844 -16736342.33844  20883503.1744   20883506.2344
 96  5 16  1 58  0.0000000  0  8G26G 6G16G28G21G17G22G23
 -15009602.18944 -11695778.78844  22081233.4164   22081235.3174
  -8193168.85644  -6384284.63844  20965609.2424   20965611.5904
  18378736.85144  14321091.72244  25077928.2114   25077932.6484
  -9287805.749 4  -7237247.581 4  23575765.469    23575762.826
 -10573525.95244  -8239089.24244  23593324.1124   23593329.4324
 -23126995.87044 -18021006.91844  20720411.9604   20720414.9674
  -9696970.01444  -7556075.12144  23369977.0204   23369980.2404
 -21511233.87344 -16761972.08844  20877244.1134   20877247.2014
 96  5 16  1 58 30.0000000  0  8G26G 6G16G28G21G17G22G23
 -15004766.90344 -11692011.02644  22082153.5944   22082155.4144
  -8129438.48544  -6334624.63244  20977736.7114   20977739.0294
  18483239.68144  14402522.46044  25097814.3894   25097816.9044
  -9385254.676 4  -7313181.774 4  23557221.528    23557218.851
 -10656008.64944  -8303361.41144  23577628.2014   23577631.3924
 -23140112.42544 -18031227.60444  20717915.9014   20717918.8504
  -9691125.11144  -7551520.68144  23371089.3894   23371093.1434
 -21543104.28744 -16786806.15944  20871179.3874   20871182.4244
 96  5 16  1 59  0.0000000  0  8G 6G26G16G28G21G17G22G23
  -8064663.29744  -6284150.48444  20990063.0584   20990065.3484
 -14998735.64444 -11687311.33544  22083301.2044   22083302.9214
  18588316.38844  14484400.35644  25117809.8764   25117813.8854
  -9481984.857 4  -7388555.907 4  23538814.348    23538811.665
 -10737688.00544  -8367007.60544  23562085.0904   23562089.1834
 -23152440.77244 -18040834.10544  20715569.8814   20715572.9134
  -9684185.97044  -7546113.57144  23372409.7274   23372414.1444
 -21573967.48544 -16810855.38744  20865306.2434   20865309.2924
 96  5 16  1 59 30.0000000  0  8G 6G26G16G28G21G17G22G23
  -7999081.86444  -6233048.09444  21002542.8934   21002545.1414
 -14991770.66544 -11681884.07144  22084626.6864   22084628.3414
  18693712.08344  14566526.85844  25137865.8744   25137872.8144
  -9578242.740 4  -7463562.017 4  23520497.047    23520494.406
 -10818805.35044  -8430215.84944  23546648.9714   23546653.7484
 -23164248.16044 -18050034.66744  20713323.1024   20713326.0194
  -9676415.12244  -7540058.38544  23373888.5144   23373891.6804
 -21604096.60444 -16834332.61144  20859572.9484   20859575.9964
 96  5 16  2  0  0.0000000  0  8G 6G26G16G28G21G17G22G23
  -7932873.16144  -6181456.92044  21015141.9834   21015144.2584
 -14984073.40044 -11675886.20044  22086091.3364   22086093.1704
  18799216.39844  14648737.94044  25157942.9504
  -9674227.886 4  -7538355.605 4  23502231.620    23502229.008
 -10899569.12744  -8493148.57444  23531280.0114   23531283.9154
 -23175739.93344 -18058989.29244  20711136.3014   20711139.1584
  -9668018.03644  -7533515.22544  23375486.4284   23375491.1754
 -21633703.20744 -16857402.68344  20853939.0434   20853942.0834
 96  5 16  2  0 30.0000000  0  8G 6G26G16G28G21G17G22G23
  -7866094.56944  -6129421.67744  21027849.4594   21027851.7864
 -14975700.52144 -11669361.87344  22087684.7434   22087686.3374
  18904777.42844  14730993.26344  25178030.5574   25178032.1554
  -9769985.519 4  -7612971.911 4  23484009.561    23484006.944
 -10980037.94644  -8555851.49444  23515967.3344   23515971.7464
 -23186978.27844 -18067746.44144  20708997.6794   20709000.6374
  -9659050.13244  -7526527.24844  23377192.9464   23377197.1034
 -21662852.90844 -16880116.72344  20848392.0034   20848395.0454
 96  5 16  2  1  0.0000000  0  8G 6G26G16G28G21G17G22G23
  -7798756.17144  -6076950.22244  21040663.5004   21040665.9164
 -14966651.58644 -11662310.74444  22089406.5324   22089408.2284
  19010412.12644  14813305.99244  25198132.2444   25198136.4224
  -9865502.529 4  -7687400.720 4  23465833.241    23465830.651
 -11060195.35144  -8618311.77144  23500713.8764   23500718.8994
 -23197952.41944 -18076297.71644  20706909.3384   20706912.2464
  -9649500.49444  -7519086.00244  23379010.2004   23379013.8024
 -21691538.48844 -16902469.10944  20842933.2174   20842936.2564
 96  5 16  2  1 30.0000000  0  7G 6G26G28G21G17G22G23
  -7731423.17344  -6024482.97744  21053476.6714   21053478.9614
 -14957486.44144 -11655169.07544  22091150.6304   22091152.0014
  -9961337.364 4  -7762077.185 4  23447596.438    23447593.891
 -11140612.62744  -8680974.54844  23485410.8784   23485415.4594
 -23209203.01944 -18085064.41444  20704768.4494   20704771.3854
  -9639914.75044  -7511616.60144  23380834.2174   23380837.9074
 -21720308.72744 -16924887.45844  20837458.4564   20837461.4744
 96  5 16  2  2  0.0000000  0  8G 6G26G 3G28G21G17G22G23
  -7664108.82544  -5972030.26244  21066286.1734   21066288.4734
 -14948196.65444 -11647930.27644  22092918.5794   22092920.0734
        -0.59654         0.36954  25306840.9804   25306845.9274
 -10057491.393 4  -7837002.374 4  23429298.919    23429296.375
 -11221294.89444  -8743843.78544  23470057.5014   23470062.9774
 -23220717.67944 -18094036.87444  20702577.2374   20702580.1334
  -9630286.23844  -7504113.88144  23382666.4984   23382670.1864
 -21749133.66944 -16947348.43644  20831973.1894   20831976.2744
 96  5 16  2  2 30.0000000  0  8G 6G26G 3G28G21G17G22G23
  -7596970.10744  -5919714.40144  21079062.2244   21079064.8024
 -14938932.08544 -11640711.12644  22094681.3874   22094683.0254
   -105356.85144    -82095.33544  25286792.2904   25286797.2424
 -10154092.372 4  -7912275.837 4  23410916.353    23410913.844
 -11302375.08444  -8807023.08544  23454628.4104   23454633.7444
 -23232617.61844 -18103309.55044  20700312.7594   20700315.6964
  -9620750.08644  -7496683.12544  23384481.2044   23384484.8144
 -21778116.03544 -16969932.08144  20826458.0364   20826461.1004
 96  5 16  2  3  0.0000000  0  8G 6G26G 3G28G21G17G22G23
  -7529913.75944  -5867462.72644  21091822.6884   21091825.0414
 -14929615.15044 -11633451.17244  22096454.4284   22096456.3764
   -211221.61044   -164587.33244  25266646.8624   25266653.0534
 -10251047.786 4  -7987825.482 4  23392466.304    23392463.809
 -11383755.73844  -8870436.51844  23439142.2214   23439147.0424
 -23244803.09544 -18112804.72544  20697993.9184   20697996.8624
  -9611222.19044  -7489258.79544  23386294.4084   23386298.3024
 -21807151.56744 -16992557.15644  20820932.7924   20820935.7844
 96  5 16  2  3 30.0000000  0  8G 6G26G 3G28G21G17G22G23
  -7462817.10344  -5815179.64444  21104590.7194   21104593.3724
 -14920148.02544 -11626074.18744  22098255.9124   22098257.4614
   -317491.95544   -247395.37344  25246424.2224   25246427.9494
 -10348252.317 4  -8063569.247 4  23373968.874    23373966.427
 -11465331.74844  -8934002.14444  23423618.5964   23423623.0004
 -23257174.22944 -18122444.56744  20695639.7624   20695642.7944
  -9601608.62044  -7481767.71144  23388123.9214   23388127.2354
 -21836148.37644 -17015152.06444  20815414.8314   20815417.7974
 96  5 16  2  4  0.0000000  0  8G 6G 3G28G21G17G22G23G26
  -7395576.98644  -5762784.77444  21117386.0634   21117388.7014
   -424080.01044   -330450.97644  25226141.2044   25226143.6964
 -10445604.287 4  -8139427.903 4  23355443.385    23355440.942
 -11546997.39544  -8997637.64844  23408078.1744   23408082.0884
 -23269649.58744 -18132165.62344  20693265.8014   20693268.8044
  -9591818.03144  -7474138.59444  23389987.0054   23389991.4424
 -21865016.62044 -17037646.78944  20809921.3904   20809924.4204
 -14910442.08644 -11618511.11344  22100102.7714   22100104.5514
 96  5 16  2  4 30.0000000  0  8G 6G 3G28G21G17G22G23G26
  -7328094.65544  -5710201.16944  21130227.5344   21130230.1474
   -530883.93844   -413674.79344  25205816.9574   25205820.4814
 -10543005.331 4  -8215324.797 4  23336908.588    23336906.082
 -11628661.38544  -9061271.83344  23392538.0234   23392542.8214
 -23282139.55144 -18141898.06144  20690888.9854   20690892.0444
  -9581765.63644  -7466304.61644  23391899.9964   23391901.2444
 -21893695.35644 -17059993.85044  20804464.0794   20804467.0774
 -14900410.77144 -11610694.50544  22102011.7114   22102013.2094
 96  5 16  2  5  0.0000000  0  8G 6G 3G28G21G17G22G23G26
  -7260303.89444  -5657377.22444  21143127.7464   21143130.3504
   -637843.76844   -497020.10244  25185463.1994   25185469.3064
 -10640405.003 4  -8291220.621 4  23318374.034    23318371.509
 -11710264.57044  -9124858.65144  23377009.4684   23377013.6634
 -23294594.73444 -18151603.39744  20688518.8604   20688521.9404
  -9571394.91744  -7458223.74344  23393873.5074   23393877.4694
 -21922153.89744 -17082169.33144  20799048.6014   20799051.5604
 -14889985.81844 -11602571.15744  22103995.5234   22103997.1134
 96  5 16  2  5 30.0000000  0  8G 6G 3G28G21G17G22G23G26
  -7192283.79044  -5604374.57544  21156071.5784   21156073.9264
   -745022.55244   -580536.01644  25165067.7344   25165071.2764
 -10737878.140 4  -8367173.691 4  23299825.462    23299822.966
 -11791894.93244  -9188466.71244  23361475.6804   23361479.9734
 -23307088.40244 -18161338.72344  20686141.3914   20686144.3814
  -9560771.39344  -7449945.64644  23395894.9534   23395898.1554
 -21950465.22344 -17104230.09844  20793661.1034   20793664.0564
 -14879218.37944 -11594180.94044  22106044.4814   22106046.1814
 96  5 16  2  6  0.0000000  0  8G 6G 3G28G21G17G22G23G26
  -7124075.32744  -5551225.15144  21169051.2034   21169053.6324
   -852417.79344   -664220.61244  25144631.2144   25144635.7034
 -10835434.467 4  -8443191.584 4  23281261.089    23281258.622
 -11873571.95044  -9252111.09644  23345932.9714   23345937.3334
 -23319624.62644 -18171107.20444  20683755.8264   20683758.7944
  -9549907.22044  -7441480.07044  23397962.3804   23397965.6194
 -21978633.34544 -17126179.27344  20788300.8634   20788303.7944
 -14868106.66544 -11585522.45944  22108159.0194   22108160.9384
 96  5 16  2  6 30.0000000  0  8G 6G 3G28G21G17G22G23G26
  -7056066.12144  -5498230.99444  21181992.9844   21181995.4204
   -960382.96244   -748349.26544  25124086.1374   25124089.2074
 -10933447.796 4  -8519565.581 4  23262609.713    23262607.262
 -11955665.76044  -9316080.22544  23330311.0254   23330314.5034
 -23332572.66744 -18181196.58444  20681291.9394   20681294.9114
  -9539179.55944  -7433120.87044  23400003.6424   23400007.3094
 -22007034.97644 -17148310.39944  20782896.1314   20782899.1304
 -14857016.25544 -11576880.57744  22110269.4214   22110271.1024
 96  5 16  2  7  0.0000000  0  8G 6G 3G28G21G17G22G23G26
  -6987879.69344  -5445098.73944  21194968.4284   21194970.8044
  -1068537.50844   -832625.50844  25103504.9224   25103508.8184
 -11031540.732 4  -8596001.611 4  23243943.233    23243940.820
 -12037781.74044  -9380066.62044  23314684.8644   23314689.1244
 -23345565.44244 -18191320.82344  20678819.5094   20678822.4114
  -9528212.21444  -7424574.91644  23402090.5934   23402094.3904
 -22035272.36844 -17170313.54844  20777522.7634   20777525.7334
 -14845551.37044 -11567946.89544  22112451.1474   22112452.7654
 96  5 16  2  7 30.0000000  0  8G 6G 3G28G21G17G22G23G26
  -6919112.46844  -5391513.91544  21208054.4124   21208057.0144
  -1176473.09744   -916731.14844  25082965.3614   25082967.7884
 -11129295.919 4  -8672174.455 4  23225341.033    23225338.660
 -12119501.67344  -9443744.42144  23299134.0194   23299137.6214
 -23358201.90944 -18201167.42244  20676414.8184   20676417.6914
  -9516602.92344  -7415528.72544  23404299.8634   23404303.2544
 -22062945.69044 -17191877.16544  20772256.7124   20772259.6784
 -14833297.34344 -11558398.29844  22114783.0124   22114784.9204
 96  5 16  2  8  0.0000000  0  8G 6G 3G28G21G17G22G23G26
  -6849774.07544  -5337484.02644  21221249.0824   21221251.5654
  -1284210.03344  -1000681.98644  25062463.7864   25062467.2164
 -11226719.420 4  -8748088.842 4  23206801.947    23206799.576
 -12200809.87144  -9507101.39544  23283661.5824   23283665.7954
 -23370490.82844 -18210743.20544  20674076.3524   20674079.3684
  -9504371.10944  -7405997.44744  23406627.4644   23406631.0574
 -22090067.60044 -17213011.10944  20767095.6324   20767098.5924
 -14820267.86044 -11548245.44744  22117262.4544   22117264.2134
 96  5 16  2  8 30.0000000  0  8G 6G 3G28G21G17G22G23G26
  -6779902.58644  -5283038.73844  21234545.2994   21234547.9114
  -1391825.48344  -1084538.11544  25041985.2444   25041990.0924
 -11323870.560 4  -8823791.001 4  23188314.671    23188312.324
 -12281764.16944  -9570182.58144  23268256.2924   23268260.0964
 -23382496.14544 -18220097.99744  20671791.8314   20671794.7924
  -9491567.27144  -7396020.43344  23409063.9254   23409067.7474
 -22116694.91544 -17233759.65444  20762028.5204   20762031.5494
 -14806532.25744 -11537542.37344  22119876.1414   22119878.0014
 96  5 16  2  9  0.0000000  0  8G 6G 3G28G21G17G22G23G26
  -6709515.35444  -5228191.57144  21247939.6104   21247941.9644
  -1499356.04944  -1168328.16144  25021522.9144   25021527.2214
 -11420772.685 4  -8899299.124 4  23169874.749    23169872.443
 -12362410.58244  -9633023.85144  23252909.7424   23252914.2264
 -23394251.96244 -18229258.37644  20669554.7404   20669557.6774
  -9478220.70944  -7385620.51044  23411603.7544   23411607.9184
 -22142847.39744 -17254138.20344  20757051.8744   20757054.7434
 -14792127.82044 -11526318.13244  22122617.2444   22122618.9994
 96  5 16  2  9 30.0000000  0  8G 6G 3G28G21G17G22G23G26
  -6638523.59344  -5172873.34344  21261449.0024   21261451.3684
  -1606692.76744  -1251967.12544  25001097.3954   25001099.5954
 -11517321.186 4  -8974531.697 4  23151502.148    23151499.910
 -12442675.77344  -9695568.11144  23237635.7834   23237640.1004
 -23405648.68144 -18238138.93744  20667386.0804   20667388.9394
  -9464228.58444  -7374717.55944  23414266.4684   23414270.2014
 -22168418.92744 -17274064.06244  20752185.8324   20752188.7714
 -14776985.02944 -11514518.55344  22125498.9324   22125500.4624
 96  5 16  2 10  0.0000000  0  8G 6G 3G28G21G17G22G23G26
  -6567041.79244  -5117173.26444  21275051.6144   21275053.8554
  -1713933.16844  -1335531.03144  24980690.2864   24980693.5344
 -11613621.364 4  -9049570.765 4  23133176.864    23133174.714
 -12522678.40444  -9757907.75344  23222411.8814   23222415.7934
 -23416781.98844 -18246814.23944  20665267.6374   20665270.3074
  -9449695.08944  -7363392.77044  23417032.3404   23417036.1984
 -22193498.89844 -17293606.89044  20747413.3754   20747416.0454
 -14761239.94044 -11502249.64844  22128495.2614   22128497.0924
 96  5 16  2 10 30.0000000  0  8G 6G 3G28G21G17G22G23G26
  -6495189.42744  -5061184.43344  21288724.7464   21288727.0784
  -1821185.54544  -1419104.27344  24960280.7934   24960285.4814
 -11709789.842 4  -9124507.213 4  23114876.576    23114874.444
 -12602544.52644  -9820140.99944  23207213.8624   23207217.7074
 -23427785.37244 -18255388.30744  20663173.8404   20663176.4844
  -9434732.25144  -7351733.41344  23419879.5854   23419883.4314
 -22218205.24544 -17312858.58444  20742711.9814   20742714.6164
 -14745040.35244 -11489626.59244  22131577.9284   22131579.2204
 96  5 16  2 11  0.0000000  0  8G 6G 3G28G21G17G22G23G26
  -6422907.12144  -5004860.58144  21302479.5484   21302481.8654
  -1928375.90944  -1502629.17344  24939883.1474   24939887.5324
 -11805751.361 4  -9199282.395 4  23096615.681    23096613.584
 -12682197.33044  -9882208.04044  23192056.4124   23192060.2444
 -23438586.95644 -18263805.12644  20661118.3714   20661121.0234
  -9419271.88744  -7339686.39344  23422821.6544   23422825.7824
 -22242474.22444 -17331769.47244  20738093.6754   20738096.2834
 -14728315.94144 -11476594.58244  22134760.5624   22134762.0954
 96  5 16  2 11 30.0000000  0  8G 6G 3G28G21G17G22G23G26
  -6350178.72044  -4948189.12544  21316319.2114   21316321.4174
  -2035478.26244  -1586085.51144  24919502.1564   24919504.9494
 -11901484.003 4  -9273879.233 4  23078398.328    23078396.237
 -12761599.41944  -9944079.73444  23176946.7664   23176950.5884
 -23449145.12444 -18272032.27044  20659109.1554   20659111.5884
  -9403290.39344  -7327233.28744  23425862.8014   23425866.3574
 -22266295.74644 -17350331.69044  20733560.6424   20733563.2834
 -14711032.47344 -11463126.93944  22138049.4294   22138050.9844
 96  5 16  2 12  0.0000000  0  8G 6G 3G28G21G17G22G23G26
  -6276982.79344  -4891153.36544  21330248.0584   21330250.2964
  -2142489.99544  -1669471.21744  24899138.4634   24899143.3704
 -11996979.489 4  -9348291.272 4  23060226.111    23060223.999
 -12840726.05644 -10005736.76844  23161889.2424   23161892.5154
 -23459446.71444 -18280059.48344  20657148.8404   20657151.4174
  -9386780.61944  -7314368.54144  23429004.6064   23429007.6444
 -22289684.24544 -17368556.48544  20729109.9644   20729112.6564
 -14693151.95244 -11449194.06144  22141451.9894   22141453.5414
 96  5 16  2 12 30.0000000  0  8G 6G 3G28G21G17G22G23G26
  -6203311.79644  -4833747.42244  21344267.2114   21344269.4774
  -2249416.31944  -1752790.38744  24878790.9164   24878792.8234
 -12092240.806 4  -9422520.845 4  23042098.491    23042096.312
 -12919586.55044 -10067186.43344  23146882.6194   23146886.2914
 -23469507.24244 -18287898.85544  20655234.4384   20655237.0904
  -9369752.69044  -7301100.02644  23432244.7374   23432247.8464
 -22312650.03344 -17386451.89544  20724739.6654   20724742.3754
 -14674638.89244 -11434768.29944  22144974.8904   22144976.4664
 96  5 16  2 13  0.0000000  0  8G 6G 3G28G21G17G22G23G26
  -6129169.65244  -4775974.35244  21358375.9344   21358378.2234
  -2356239.74444  -1836029.36544  24858463.0514   24858466.4914
 -12187261.160 4  -9496562.654 4  23024016.698    23024014.519
 -12998188.21644 -10128434.40044  23131925.1424   23131928.6864
 -23479305.47244 -18295533.83644  20653369.8754   20653372.4984
  -9352222.65244  -7287440.29844  23435580.7014   23435584.0724
 -22335197.25444 -17404021.15044  20720449.1054   20720451.7974
 -14655458.39944 -11419822.45944  22148624.8464   22148626.2724
 96  5 16  2 13 30.0000000  0  8G 6G 3G28G21G17G22G23G26
  -6054566.96244  -4717842.41644  21372572.4844   21372574.8304
  -2462952.74644  -1919182.31844  24838156.2584   24838159.5124
 -12282045.886 4  -9570420.855 4  23005979.724    23005977.554
 -13076528.50944 -10189478.72544  23117017.4374   23117021.4364
 -23488850.83344 -18302971.78244  20651553.4464   20651556.1014
  -9334212.46744  -7273406.42044  23439008.0704   23439011.2574
 -22357332.90744 -17421269.70444  20716236.8514   20716239.5264
 -14635616.13844 -11404360.95644  22152400.7014   22152402.3254
 96  5 16  2 14  0.0000000  0  8G 6G 3G28G21G17G22G23G26
  -5979530.26744  -4659372.29844  21386851.4874   21386853.6264
  -2569579.59244  -2002268.13344  24817865.8054   24817868.9664
 -12376617.328 4  -9644112.864 4  22987983.331    22987981.177
 -13154624.25044 -10250332.48444  23102156.2514   23102160.0994
 -23498192.91144 -18310251.32544  20649775.6574   20649778.3064
  -9315752.42344  -7259022.00544  23442520.8254   23442524.0174
 -22379081.36944 -17438216.55044  20712098.1854   20712100.8594
 -14615146.99844 -11388410.97644  22156295.9234   22156297.4264
 96  5 16  2 14 30.0000000  0  8G 6G 3G28G21G17G22G23G26
  -5904087.98844  -4600586.13844  21401207.6964   21401209.9854
  -2676134.13344  -2085297.58844  24797589.1864   24797591.6624
 -12470988.238 4  -9717648.615 4  22970025.134    22970022.985
 -13232496.18644 -10311011.85144  23087337.5814   23087341.0694
 -23507352.72644 -18317388.84444  20648032.5624   20648035.2244
  -9296859.33644  -7244300.15444  23446116.0104   23446119.2194
 -22400440.34144 -17454859.89644  20708033.7474   20708036.4754
 -14594088.15644 -11372001.48744  22160303.2324   22160304.6684
 96  5 16  2 15  0.0000000  0  8G 6G 3G28G21G17G22G23G26
  -5828257.58244  -4541497.53944  21415637.7514   21415640.2124
  -2782617.38944  -2168271.52344  24777326.0154   24777330.5854
 -12565159.531 4  -9791028.823 4  22952104.918    22952102.755
 -13310128.00544 -10371504.11744  23072564.7644   23072568.7504
 -23516321.08044 -18324377.17344  20646326.0134   20646328.5494
  -9277526.83844  -7229235.90444  23449794.9034   23449797.8854
 -22421418.56544 -17471206.55644  20704041.7774   20704044.3624
 -14572467.84944 -11355154.49144  22164417.3424   22164418.8954
 96  5 16  2 15 30.0000000  0  8G 6G 3G28G21G17G22G23G26
  -5752047.18844  -4482112.84844  21430140.1124   21430142.4304
  -2889068.15844  -2251220.13044  24757068.9704   24757072.3244
 -12659147.580 4  -9864266.244 4  22934219.523    22934217.404
 -13387532.74444 -10431819.43344  23057835.1424   23057838.8424
 -23525127.77544 -18331239.53544  20644650.1104   20644652.6764
  -9257754.27444  -7213828.75144  23453557.5764   23453561.0934
 -22442036.22844 -17487272.25944  20700118.4124   20700120.9224
 -14550314.66144 -11337892.26444  22168632.8794   22168634.6064
 96  5 16  2 16  0.0000000  0  8G 6G 3G28G21G17G22G23G26
  -5675479.69544  -4422449.89544  21444710.5024   21444712.7814
  -2995505.69844  -2334158.44844  24736814.6174   24736817.4414
 -12752968.405 4  -9937373.360 4  22916366.005    22916363.905
 -13464750.18044 -10491988.81444  23043141.1944   23043144.5624
 -23533792.18044 -18337991.02244  20643001.4034   20643003.9724
  -9237553.07244  -7198087.58944  23457401.6704   23457405.0664
 -22462305.78944 -17503066.71744  20696261.1874   20696263.7464
 -14527649.05544 -11320230.75644  22172946.1534   22172947.6924
 96  5 16  2 16 30.0000000  0  8G 6G 3G28G21G17G22G23G26
  -5598536.67144  -4362494.32244  21459352.2144   21459354.5144
  -3101906.58144  -2417068.17744  24716567.1764   24716570.7644
 -12846595.434 4 -10010329.469 4  22898549.352    22898547.233
 -13541770.23844 -10552004.40744  23028484.6824   23028488.4294
 -23542277.58844 -18344603.02744  20641386.6534   20641389.3534
  -9216909.81144  -7182001.96744  23461330.0764   23461334.2404
 -22482202.37144 -17518570.53944  20692474.9224   20692477.4804
 -14504441.55944 -11302146.99144  22177362.5514   22177364.0324
 96  5 16  2 17  0.0000000  0  8G 6G 3G28G21G17G22G23G26
  -5521200.99544  -4302232.79244  21474068.8684   21474071.2954
  -3208261.81644  -2499942.35944  24696328.4474   24696331.8554
 -12940020.507 4 -10083128.207 4  22880771.146    22880768.996
 -13618581.64344 -10611857.42344  23013867.9104   23013871.3884
 -23550585.52844 -18351076.74544  20639805.6674   20639808.3184
  -9195827.89044  -7165574.53744  23465341.9074   23465344.9904
 -22501734.15444 -17533790.10644  20688758.0864   20688760.7114
 -14480676.98644 -11283629.14344  22181884.7134   22181885.8544
 96  5 16  2 17 30.0000000  0  8G 6G 3G28G21G17G22G23G26
  -5443461.62444  -4241656.69444  21488862.1694   21488864.5334
  -3314552.11644  -2582765.92844  24676101.9704   24676106.5484
 -13033229.062 4 -10155758.229 4  22863034.097    22863032.020
 -13695184.00544 -10671547.55344  22999290.8884   22999294.5514
 -23558710.54044 -18357407.92544  20638259.5404   20638262.1364
  -9174309.97644  -7148807.34244  23469436.7224   23469439.7524
 -22520880.56844 -17548709.38944  20685114.6674   20685117.3454
 -14456344.85644 -11264669.04344  22186514.8454   22186516.0074
 96  5 16  2 18  0.0000000  0  8G 6G 3G28G21G17G22G23G26
  -5365311.25544  -4180760.33744  21503733.6314   21503735.9204
  -3420748.48044  -2665516.30444  24655893.4674   24655897.7014
 -13126200.074 4 -10228203.152 4  22845342.311    22845340.137
 -13771555.29644 -10731057.62444  22984757.8034   22984761.6134
 -23566625.96044 -18363575.78944  20636753.2234   20636755.9774
  -9152344.53444  -7131691.44744  23473616.5194   23473619.6024
 -22539614.45844 -17563307.22244  20681549.6634   20681552.3914
 -14431427.85344 -11245253.19744  22191256.2494   22191257.4174
 96  5 16  2 18 30.0000000  0  8G 6G 3G28G21G17G22G23G26
  -5286730.20844  -4119528.38444  21518687.1734   21518689.5414
  -3526849.57844  -2748192.46244  24635703.0824   24635707.1484
 -13218925.057 4 -10300456.363 4  22827697.298    22827695.196
 -13847672.84044 -10790369.96344  22970273.1254   22970276.9394
 -23574316.60844 -18369568.50544  20635289.8024   20635292.4954
  -9129922.15344  -7114219.50444  23477883.2934   23477887.1824
 -22557936.89244 -17577584.44144  20678063.1424   20678065.7954
 -14405921.73844 -11225378.30044  22196110.0504   22196111.5144
 96  5 16  2 19  0.0000000  0  8G 6G 3G28G21G17G22G23G26
  -5207728.76344  -4057968.84844  21533720.6864   21533723.0534
  -3632852.26844  -2830791.91744  24615531.4064   24615534.4784
 -13311405.030 4 -10372518.661 4  22810098.923    22810096.844
 -13923533.75244 -10849482.32044  22955837.2564   22955841.1114
 -23581788.44944 -18375390.72044  20633868.0084   20633870.7424
  -9107033.83844  -7096384.45744  23482238.8264   23482242.0434
 -22575850.73244 -17591543.27544  20674654.2554   20674656.8544
 -14379845.22844 -11205058.94144  22201072.2314   22201073.8164
 96  5 16  2 19 30.0000000  0  8G 6G 3G28G21G17G22G23G26
  -5128335.94044  -3996104.34344  21548828.7214   21548831.4424
  -3738775.38644  -2913329.38344  24595374.7744   24595377.8554
 -13403657.090 4 -10444403.365 4  22792543.910    22792541.800
 -13999162.39444 -10908413.71344  22941445.6004   22941449.2854
 -23589047.08444 -18381046.79744  20632486.7604   20632489.3254
  -9083693.07544  -7078196.87144  23486680.5394   23486684.5994
 -22593371.06844 -17605195.48144  20671320.2614   20671322.8314
 -14353228.37644 -11184318.54344  22206137.2594   22206138.8194
 96  5 16  2 20  0.0000000  0  8G 6G 3G28G21G17G22G23G26
  -5048537.14444  -3933923.49444  21564013.9514   21564016.4544
  -3844618.20544  -2995804.25944  24575233.6344   24575237.2224
 -13495669.587 4 -10516101.395 4  22775034.497    22775032.417
 -14074546.72544 -10967154.71444  22927100.4244   22927103.9114
 -23596080.66144 -18386527.50744  20631148.2944   20631150.8934
  -9059890.19844  -7059649.21344  23491210.0364   23491213.9104
 -22610495.49244 -17618539.18344  20668061.5554   20668064.3354
 -14326054.39644 -11163144.01344  22211308.3324   22211309.7914
 96  5 16  2 20 30.0000000  0  8G 6G 3G28G21G17G22G23G26
  -4968403.99044  -3871482.10944  21579262.8514   21579265.2634
  -3950449.99744  -3078270.56244  24555094.5144   24555098.6044
 -13587509.094 4 -10587664.630 4  22757557.959    22757555.948
 -14149753.45244 -11025757.32044  22912789.0244   22912792.6304
 -23602956.67344 -18391885.43644  20629839.8134   20629842.5784
  -9035707.09244  -7040805.26244  23495811.9984   23495815.2024
 -22627301.61844 -17631634.86244  20664863.4634   20664866.1654
 -14298397.46144 -11141593.15844  22216571.1264   22216572.9294
 96  5 16  2 21  0.0000000  0  8G 6G 3G28G21G17G22G23G26
  -4887876.27744  -3808733.26844  21594586.7644   21594589.1714
  -4056185.67244  -3160661.94844  24534973.7124   24534977.2974
 -13679094.402 4 -10659029.786 4  22740129.823    22740127.766
 -14224715.22844 -11084169.06544  22898524.2954   22898527.6444
 -23609601.51344 -18397063.23244  20628575.4094   20628578.0084
  -9011076.67444  -7021612.75844  23500499.0684   23500502.2714
 -22643706.04944 -17644417.52944  20661741.7524   20661744.4434
 -14270167.25844 -11119595.60244  22221943.2684   22221944.6594
 96  5 16  2 21 30.0000000  0  8G 6G 3G28G21G17G22G23G26
  -4806892.57344  -3745629.11844  21609997.4914   21609999.8264
  -4161769.08444  -3242934.71044  24514881.6674   24514884.6154
 -13770365.189 4 -10730149.860 4  22722761.546    22722759.477
 -14299368.34744 -11142340.33144  22884318.3044   22884321.5454
 -23615953.45844 -18402012.80144  20627366.6734   20627369.2874
  -8985950.90444  -7002034.26244  23505280.2714   23505283.6444
 -22659641.42444 -17656834.69744  20658709.3794   20658712.0104
 -14241290.71144 -11097094.39244  22227438.4074   22227439.9614
 96  5 16  2 22  0.0000000  0  8G 6G 3G28G21G17G22G23G26
  -4725472.41844  -3682184.87644  21625491.2124   21625493.5574
  -4267213.38744  -3325099.05144  24494816.2094   24494820.2594
 -13861342.133 4 -10801040.965 4  22705449.196    22705447.147
 -14373733.69744 -11200287.32744  22870166.9654   22870170.5724
 -23622044.05344 -18406758.72144  20626207.6164   20626210.2844
  -8960359.91144  -6982093.24244  23510150.1634   23510154.0304
 -22675126.47144 -17668900.96444  20655762.7004   20655765.3204
 -14211784.41644 -11074102.47644  22233053.3134   22233054.8304
 96  5 16  2 22 30.0000000  0  8G 6G 3G28G21G17G22G23G26
  -4643621.57544  -3618405.03044  21641066.9484   21641069.6764
  -4372501.43044  -3407141.64444  24474780.5694   24474785.0694
 -13952017.655 4 -10871697.198 4  22688194.191    22688192.112
 -14447802.70644 -11258003.38344  22856072.0244   22856075.4434
 -23627870.06144 -18411298.47044  20625099.0134   20625101.5474
  -8934293.42744  -6961781.72344  23515110.5184   23515113.8064
 -22690156.95444 -17680613.02444  20652902.4294   20652905.0134
 -14181647.72244 -11050619.34244  22238788.0854   22238789.5384
 96  5 16  2 23  0.0000000  0  8G 6G 3G28G21G17G22G23G26
  -4561328.65044  -3554280.70344  21656726.7334   21656729.1944
  -4477626.79144  -3489057.48244  24454775.6634   24454778.7974
 -14042391.320 4 -10942118.222 4  22670996.631    22670994.537
 -14521577.69744 -11315490.34344  22842033.1264   22842036.7414
 -23633441.18744 -18415639.61244  20624038.8944   20624041.4664
  -8907744.96644  -6941094.64444  23520162.6134   23520166.4654
 -22704736.85244 -17691973.97944  20650127.9744   20650130.5374
 -14150879.88244 -11026644.40544  22244642.9284   22244644.4134
 96  5 16  2 23 30.0000000  0  8G 6G 3G28G21G17G22G23G26
  -4478622.80244  -3489834.62144  21672465.1754   21672467.9274
  -4582627.71344  -3570876.33144  24434794.5234   24434798.3374
 -14132502.717 4 -11012334.881 4  22653849.015    22653846.954
 -14595090.91044 -11372773.32644  22828044.0124   22828047.4434
 -23638797.50844 -18419813.37144  20623019.6074   20623022.1454
  -8880744.30044  -6920055.20744  23525300.6474   23525303.8604
 -22718930.44244 -17703033.91444  20647427.0704   20647429.7144
 -14119543.60344 -11002226.52944  22250605.8434   22250607.4944
 96  5 16  2 24  0.0000000  0  8G 6G 3G28G21G17G22G23G26
  -4395539.77044  -3425094.62544  21688275.3014   21688277.9154
  -4687539.64744  -3652625.84844  24414830.4064   24414833.6634
 -14222378.253 4 -11082367.751 4  22636746.292    22636744.205
 -14668380.73244 -11429882.23844  22814097.2594   22814100.5314
 -23643972.57344 -18423845.89344  20622034.7854   20622037.4244
  -8853317.93644  -6898684.04844  23530519.7784   23530523.1434
 -22732793.15544 -17713836.02744  20644789.0604   20644791.5804
 -14087670.54044 -10977390.37444  22256671.1414   22256672.4864
 96  5 16  2 24 30.0000000  0  8G 6G 3G28G21G17G22G23G26
  -4312077.45044  -3360059.08344  21704157.7234   21704160.3244
  -4792350.54944  -3734296.64444  24394885.5184   24394889.1994
 -14312000.523 4 -11152203.268 4  22619691.756    22619689.647
 -14741430.86144 -11486804.39844  22800196.2044   22800199.9634
 -23648952.97344 -18427726.72544  20621087.0854   20621089.7694
  -8825452.16244  -6876970.49744  23535822.5344   23535825.6904
 -22746319.41344 -17724375.95844  20642215.1084   20642217.7114
 -14055236.48044 -10952117.08644  22262843.1804   22262844.7404
 96  5 16  2 25  0.0000000  0  8G 6G 3G28G21G17G22G23G26
  -4228221.50644  -3294716.82344  21720114.9204   21720117.4024
  -4897038.34044  -3815871.50044  24374964.2414   24374967.8684
 -14401349.981 4 -11221826.204 4  22602689.038    22602687.033
 -14814230.57344 -11543531.40344  22786342.9324   22786346.3124
 -23653727.17844 -18431446.88544  20620178.5894   20620181.1744
  -8797132.60044  -6854903.34744  23541211.6554   23541214.0714
 -22759489.55844 -17734638.40444  20639708.9124   20639711.4424
 -14022223.66144 -10926392.81244  22269125.3244   22269126.7314
 96  5 16  2 25 30.0000000  0  8G 6G 3G28G21G17G22G23G26
  -4143995.99744  -3229086.58744  21736142.6454   21736145.2134
  -5001613.00844  -3897358.20244  24355064.2024   24355067.5754
 -14490427.354 4 -11291237.129 4  22585738.175    22585736.180
 -14886783.86244 -11600066.39044  22772536.4734   22772540.0444
 -23658303.57444 -18435012.90944  20619307.6804   20619310.1834
  -8768365.63544  -6832487.57544  23546685.6684   23546689.5624
 -22772287.83844 -17744611.08444  20637273.4254   20637276.0544
 -13988641.93744 -10900225.23944  22275515.8174   22275517.1214
 96  5 16  2 26  0.0000000  0  8G 6G 3G28G21G17G22G23G26
  -4059472.63444  -3163224.26044  21752226.8644   21752229.5244
  -5106139.69544  -3978807.56044  24335173.3864   24335177.5344
 -14579300.896 4 -11360489.224 4  22568826.069    22568824.050
 -14959168.61644 -11656470.06644  22758762.0044   22758765.4124
 -23662757.23844 -18438483.30244  20618460.1734   20618462.7604
  -8739245.88444  -6809796.91344  23552227.1174   23552230.5304
 -22784754.15244 -17754325.08944  20634901.1944   20634903.8134
 -13954557.52144 -10873665.95944  22282001.9534   22282003.3174
 96  5 16  2 26 30.0000000  0  8G 6G 3G28G21G17G22G23G26
  -3974578.20744  -3097072.79144  21768381.7944   21768384.3074
  -5210540.38744  -4060158.69944  24315306.7494   24315308.9084
 -14667908.291 4 -11429533.930 4  22551964.649    22551962.628
 -15031320.20544 -11712692.05844  22745031.9784   22745035.5784
 -23667025.34844 -18441809.11144  20617648.0514   20617650.6824
  -8709713.70144  -6786784.86444  23557846.9404   23557850.5824
 -22796810.65244 -17763719.76044  20632606.9294   20632609.4584
 -13919925.40744 -10846679.89544  22288592.0894   22288593.2734
 96  5 16  2 27  0.0000000  0  8G 6G 3G28G21G17G22G23G26
  -3889324.92844  -3030641.69744  21784604.9644   21784607.8314
  -5314834.26744  -4141426.63244  24295460.2234   24295464.0794
 -14756264.143 4 -11498382.630 4  22535151.058    22535149.093
 -15103253.96644 -11768744.33044  22731343.4844   22731347.3584
 -23671114.12344 -18444995.17744  20616869.9424   20616872.4574
  -8679791.85944  -6763469.17444  23563540.8564   23563543.9364
 -22808474.92544 -17772808.79544  20630387.2364   20630389.8234
 -13884798.21144 -10819308.05944  22295276.6894   22295278.2254
 96  5 16  2 27 30.0000000  0  8G 6G 3G28G21G17G22G23G26
  -3803702.08544  -2963922.63544  21800898.3994   21800900.8894
  -5419020.89144  -4222610.98444  24275634.1304   24275636.7454
 -14844356.137 4 -11567025.729 4  22518387.687    22518385.737
 -15174967.91544 -11824625.30044  22717696.8104   22717700.4424
 -23674999.75244 -18448022.94444  20616130.5584   20616133.1564
  -8649483.73744  -6739852.49844  23569308.1784   23569312.2194
 -22819748.19244 -17781593.14944  20628241.9674   20628244.5854
 -13849176.74544 -10791551.07444  22302055.2174   22302056.5564
 96  5 16  2 28  0.0000000  0  8G 6G 3G28G21G17G22G23G26
  -3717698.70444  -2896907.04744  21817264.3114   21817267.0134
  -5523080.24544  -4303696.16144  24255832.2504   24255835.3044
 -14932172.166 4 -11635453.790 4  22501676.843    22501674.934
 -15246454.36444 -11880328.99644  22704093.3754   22704096.7444
 -23678653.59044 -18450870.09344  20615435.2864   20615437.9104
  -8618782.71744  -6715929.66344  23575150.4614   23575153.6514
 -22830652.27944 -17790089.83244  20626167.0984   20626169.7964
 -13813046.08844 -10763397.31644  22308930.5324   22308931.7174
 96  5 16  2 28 30.0000000  0  8G 6G 3G28G21G17G22G23G26
  -3631335.48444  -2829611.06244  21833698.8174   21833701.3514
  -5627003.20444  -4384675.05544  24236056.3144   24236059.6904
 -15019698.146 4 -11703655.839 4  22485021.185    22485019.269
 -15317695.95544 -11935841.90744  22690536.4834   22690539.9824
 -23682056.35844 -18453521.60344  20614787.8404   20614790.4714
  -8587667.29644  -6691683.92144  23581071.7354   23581074.7324
 -22841198.85844 -17798307.93444  20624160.0754   20624162.5514
 -13776393.71944 -10734837.03144  22315905.3324   22315907.0244
 96  5 16  2 29  0.0000000  0  8G 6G 3G28G21G17G22G23G26
  -3544601.36944  -2762026.07344  21850203.8044   21850206.3014
  -5730766.60844  -4465529.62844  24216310.6954   24216313.9974
 -15106902.740 4 -11771607.458 4  22468426.683    22468424.711
 -15388666.60144 -11991143.69844  22677031.2584   22677034.5944
 -23685182.09044 -18455957.24444  20614193.0204   20614195.5324
  -8556117.59344  -6667099.77844  23587075.5164   23587078.7174
 -22851362.58344 -17806227.71144  20622225.9894   20622228.6234
 -13739175.21744 -10705835.59444  22322987.8454   22322989.0144
 96  5 16  2 29 30.0000000  0  8G 6G 3G28G21G17G22G23G26
  -3457495.72844  -2694151.58244  21866779.4244   21866781.8414
  -5834361.06644  -4546252.55444  24196597.3234   24196601.0954
 -15193781.641 4 -11839305.289 4  22451894.158    22451892.155
 -15459368.44544 -12046236.03544  22663577.1504   22663580.7374
 -23688039.14244 -18458183.51944  20613649.3324   20613651.9044
  -8524129.25244  -6642173.84444  23593162.7574   23593165.8124
 -22861132.39244 -17813840.54544  20620366.8714   20620369.4744
 -13701346.97944 -10676359.05344  22330186.1684   22330187.6084
 96  5 16  2 30  0.0000000  0  8G 6G 3G28G21G17G22G23G26
  -3370032.71344  -2625998.62144  21883423.1244   21883425.7454
  -5937787.07944  -4626844.23244  24176915.9964   24176918.6394
 -15280343.279 4 -11906755.905 4  22435422.044    22435420.006
 -15529790.54744 -12101110.40244  22650176.3214   22650179.9654
 -23690641.94444 -18460211.69044  20613153.9844   20613156.5254
  -8491706.46344  -6616909.36944  23599332.6464   23599336.2194
 -22870506.64244 -17821145.14744  20618582.9224   20618585.5174
 -13662907.65144 -10646406.33144  22337501.0374   22337502.2524
 96  5 16  2 30 30.0000000  0  8G 6G 3G28G21G17G22G23G26
  -3282234.73144  -2557584.64144  21900130.5634   21900133.1504
  -6041074.96244  -4707328.25744  24157260.8664   24157263.7834
 -15366612.602 4 -11973978.741 4  22419005.506    22419003.477
 -15599957.42844 -12155785.88044  22636824.0124   22636827.7354
 -23693032.06844 -18462074.13144  20612699.1564   20612701.7234
  -8458874.24544  -6591325.86344  23605580.4084   23605584.5694
 -22879492.73044 -17828147.28844  20616872.9064   20616875.6084
 -13623888.51244 -10616001.81444  22344926.1434   22344927.5384
 96  5 16  2 31  0.0000000  0  8G 6G 3G28G21G17G22G23G26
  -3194046.31344  -2488866.42644  21916912.2444   21916914.7994
  -6144200.32344  -4787685.65844  24137636.7774   24137639.9754
 -15452567.563 4 -12040956.621 4  22402648.819    22402646.787
 -15669856.93144 -12210253.01444  22623522.5644   22623526.0034
 -23695194.62644 -18463759.24644  20612287.6114   20612290.1924
  -8425615.50544  -6565410.00644  23611909.5044   23611912.3044
 -22888062.13444 -17834824.74244  20615242.2544   20615244.7754
 -13584269.26244 -10585129.67344  22352465.4334   22352467.2834
 96  5 16  2 31 30.0000000  0  8G 6G 3G28G21G17G22G23G26
  -3105451.16344  -2419831.27844  21933771.5054   21933774.1364
  -6247151.87744  -4867907.61744  24118045.8114   24118049.4924
 -15538196.347 4 -12107680.335 4  22386354.175    22386352.208
 -15739474.23044 -12264500.23044  22610274.7154   22610278.1544
 -23697117.25644 -18465257.40244  20611921.7814   20611924.4434
  -8391917.54544  -6539151.90244  23618322.0104   23618325.4194
 -22896218.05244 -17841179.99444  20613690.2504   20613692.7854
 -13544059.10944 -10553797.09244  22360117.1084   22360118.3544
 96  5 16  2 32  0.0000000  0  8G 6G 3G28G21G17G22G23G26
  -3016494.13544  -2350514.14344  21950699.5584   21950702.1154
  -6349968.26644  -4948024.25944  24098480.5224   24098484.5094
 -15623536.500 4 -12174179.143 4  22370114.494    22370112.522
 -15808852.59044 -12318561.24744  22597072.4814   22597076.0054
 -23698835.38144 -18466596.20244  20611594.8444   20611597.4514
  -8357821.71044  -6512583.76344  23624810.2544   23624813.7074
 -22904019.43144 -17847258.98444  20612205.6534   20612208.1724
 -13503329.77844 -10522059.95244  22367867.7184   22367868.9604
 96  5 16  2 32 30.0000000  0  8G 6G 3G28G21G17G22G23G26
  -2927175.62344  -2280915.33744  21967696.3574   21967698.7104
  -6452653.51644  -5028038.70644  24078940.1844   24078943.2744
 -15708588.847 4 -12240453.689 4  22353929.552    22353927.564
 -15878007.80844 -12372448.37844  22583912.6804   22583915.9054
 -23700361.77244 -18467785.60644  20611304.3654   20611307.0224
  -8323334.45744  -6485710.62344  23631372.9564   23631376.2064
 -22911479.23744 -17853071.81644  20610786.0874   20610788.5334
 -13462093.83644 -10489928.05544  22375714.5634   22375716.1494
 96  5 16  2 33  0.0000000  0  8G 6G 3G28G21G17G22G23G26
  -2837465.68244  -2211011.52044  21984767.4824   21984770.0134
  -6555175.54644  -5107925.97444  24059430.7414   24059433.6814
 -15793318.327 4 -12306476.652 4  22337806.043    22337804.101
 -15946908.10044 -12426136.85244  22570801.3234   22570804.5464
 -23701661.41844 -18468798.32944  20611057.0944   20611059.7864
  -8288430.01144  -6458512.39244  23638014.9624   23638018.4314
 -22918572.26244 -17858598.84344  20609436.3454   20609438.8424
 -13420321.42944 -10457378.13344  22383663.5984   22383665.1834
 96  5 16  2 33 30.0000000  0  8G 6G 3G28G21G17G22G23G26
  -2747408.94344  -2140837.47344  22001904.7294   22001907.4814
  -6657556.04844  -5187702.96844  24039948.3434   24039952.3324
 -15877739.679 4 -12372259.518 4  22321741.189    22321739.265
 -16015562.30144 -12479633.54544  22557736.7704   22557740.1664
 -23702743.72744 -18469641.69744  20610851.1304   20610853.7464
  -8253131.13544  -6431006.82244  23644732.1604   23644735.1154
 -22925315.73244 -17863853.48944  20608153.1454   20608155.6824
 -13378031.12044 -10424424.64744  22391711.1614   22391713.0204
 96  5 16  2 34  0.0000000  0  8G 6G 3G28G21G17G22G23G26
  -2657018.27544  -2070403.22044  22019105.5464   22019108.0644
  -6759790.89844  -5267366.43644  24020493.7814   24020496.0864
 -15961855.647 4 -12437804.422 4  22305734.453    22305732.475
 -16083969.23144 -12532937.57244  22544719.2244   22544722.6684
 -23703613.40044 -18470319.37144  20610685.6404   20610688.2984
  -8217453.07344  -6403205.78344  23651521.4174   23651525.8944
 -22931699.84044 -17868828.11344  20606938.2724   20606940.8204
 -13335211.13144 -10391058.42444  22399859.3684   22399861.1834
 96  5 16  2 34 30.0000000  0  8G 6G 3G28G21G17G22G23G26
  -2566281.27644  -1999699.09644  22036372.3174   22036374.7374
  -6861864.23144  -5346904.05644  24001069.6274   24001072.7924
 -16045649.238 4 -12503098.122 4  22289789.058    22289787.030
 -16152098.26744 -12586025.09044  22531754.7174   22531758.1604
 -23704250.17544 -18470815.56644  20610564.4914   20610567.1594
  -8181384.17844  -6375100.20144  23658385.1474   23658389.2214
 -22937698.45644 -17873502.34944  20605796.7534   20605799.2094
 -13291838.25344 -10357261.38144  22408113.0624   22408114.4254
 96  5 16  2 35  0.0000000  0  8G 6G 3G28G21G17G22G23G26
  -2475205.62944  -1928731.09444  22053703.4104   22053706.2384
  -6963770.12444  -5426311.22444  23981677.5854   23981681.4644
 -16129117.177 4 -12568138.066 4  22273905.610    22273903.617
 -16219944.42544 -12638892.17244  22518843.9454   22518847.3304
 -23704639.33044 -18471118.80644  20610490.3564   20610493.1474
  -8144930.21944  -6346694.54844  23665322.1144   23665325.1834
 -22943309.40044 -17877874.50944  20604729.0004   20604731.6214
 -13247907.34244 -10323029.50544  22416472.8274   22416474.0914
 96  5 16  2 35 30.0000000  0  8G 6G 3G28G21G17G22G23G26
  -2383797.79844  -1857504.24844  22071097.7654   22071100.6504
  -7065494.21044  -5505576.69844  23962320.0014   23962323.6834
 -16212254.201 4 -12632920.156 4  22258085.141    22258083.153
 -16287510.63544 -12691541.10944  22505986.4844   22505989.7574
 -23704772.76844 -18471222.78444  20610465.1254   20610467.7384
  -8108096.04044  -6317992.64344  23672331.4784   23672335.1894
 -22948532.48344 -17881944.43844  20603735.0614   20603737.4934
 -13203414.82344 -10288360.01144  22424939.6174   22424941.0654
 96  5 16  2 36  0.0000000  0  8G 6G 3G28G21G17G22G23G26
  -2292054.03444  -1786015.63544  22088556.0434   22088558.8944
  -7167034.14644  -5584698.68344  23942997.6264   23943000.4124
 -16295065.333 4 -12697448.303 4  22242326.697    22242324.688
 -16354804.43844 -12743977.78444  22493180.8654   22493184.6174
 -23704675.81844 -18471147.24244  20610483.4664   20610486.1564
  -8070887.09244  -6288998.70744  23679412.1764   23679416.6064
 -22953391.11344 -17885730.37244  20602810.5014   20602812.9394
 -13158388.01644 -10253274.19344  22433507.8344   22433509.8284
 96  5 16  2 36 30.0000000  0  8G 6G 3G28G21G17G22G23G26
  -2199977.90344  -1714268.03344  22106077.4914   22106080.3494
  -7268403.25944  -5663687.56544  23923707.8354   23923711.0394
 -16377551.023 4 -12761722.861 4  22226630.179    22226628.190
 -16421839.21644 -12796212.61644  22480424.5054   22480428.0244
 -23704363.04344 -18470903.52844  20610543.0104   20610545.6304
  -8033298.11744  -6259708.63144  23686565.2384   23686568.4354
 -22957900.53944 -17889244.20144  20601952.4254   20601954.9634
 -13112846.32344 -10217787.15944  22442173.9824   22442175.5274
 96  5 16  2 37  0.0000000  0  8G 6G 3G28G21G17G22G23G26
  -2107569.67144  -1642261.65044  22123662.2194   22123665.0604
  -7369600.48144  -5742542.51144  23904450.5834   23904455.2874
 -16459708.937 4 -12825742.008 4  22210996.023    22210994.079
 -16488632.76444 -12848259.49744  22467714.0634   22467717.2444
 -23703847.87344 -18470502.10944  20610641.0334   20610643.6074
  -7995333.50944  -6230125.86844  23693789.6394   23693794.3424
 -22962073.54844 -17892495.89144  20601158.3764   20601160.8014
 -13066793.92744 -10181902.18344  22450937.6154   22450939.3604
 96  5 16  2 37 30.0000000  0  8G 6G 3G28G21G17G22G23G26
  -2014835.15244  -1570001.01944  22141309.0724   22141312.1474
  -7470629.73344  -5821266.56044  23885225.3604   23885228.3884
 -16541541.287 4 -12889507.470 4  22195423.842    22195421.923
 -16555197.16744 -12900127.82044  22455047.3664   22455050.5114
 -23703141.04444 -18469951.33744  20610775.5334   20610778.2364
  -7956990.31344  -6200248.08544  23701086.1184   23701089.2644
 -22965921.82844 -17895494.54044  20600426.0074   20600428.5324
 -13020241.91544 -10145627.88944  22459796.1554   22459797.9064
 96  5 16  2 38  0.0000000  0  8G 6G 3G28G21G17G22G23G26
  -1921768.34844  -1497481.45844  22159019.0694   22159021.7484
  -7571498.68844  -5899865.71144  23866030.7004   23866033.7384
 -16623041.371 4 -12953014.019 4  22179914.877    22179913.007
 -16621515.78344 -12951804.62444  22442427.2484   22442430.4874
 -23702242.40044 -18469251.09744  20610946.5554   20610949.2184
  -7918256.88544  -6170066.22244  23708456.9034   23708460.3274
 -22969445.19944 -17898240.01744  20599755.5394   20599757.9524
 -12973181.14444 -10108957.16844  22468751.6334   22468753.1794
 96  5 16  2 38 30.0000000  0  8G 6G 3G28G21G17G22G23G26
  -1828378.14044  -1424709.90044  22176790.5534   22176793.4004
  -7672209.14844  -5978341.36444  23846866.2564   23846869.4254
 -16704205.087 4 -13016258.462 4  22164469.947    22164468.041
 -16687600.97144 -13003299.54344  22429851.7194   22429854.9294
 -23701127.23244 -18468382.13744  20611158.7604   20611161.3594
  -7879135.58744  -6139582.12144  23715901.4404   23715904.9724
 -22972623.87344 -17900716.90244  20599150.6824   20599153.1164
 -12925576.59944 -10071862.72244  22477810.4644   22477812.1164
 96  5 16  2 39  0.0000000  0  8G 6G 3G28G21G17G22G23G26
  -1734725.57144  -1351733.90544  22194611.9874   22194614.5794
  -7772799.10144  -6056723.11244  23827724.7024   23827728.1664
 -16785089.949 4 -13079285.620 4  22149078.053    22149076.093
 -16753509.41244 -13054656.74044  22417309.7224   22417313.0934
 -23699839.76844 -18467378.92044  20611403.7094   20611406.4264
  -7839702.46744  -6108855.04444  23723405.3134   23723408.4684
 -22975498.58844 -17902956.93344  20598603.5674   20598605.9904
 -12877480.47144 -10034385.22844  22486962.7694   22486963.9554
 96  5 16  2 39 30.0000000  0  8G 6G 3G28G21G17G22G23G26
  -1640808.93644  -1278552.14044  22212483.8884   22212486.9924
  -7873262.41144  -6135006.18644  23808607.2054   23808610.3484
 -16865687.002 4 -13142088.511 4  22133740.926    22133738.948
 -16819220.11244 -13105859.85744  22404805.3124   22404808.6944
 -23698368.33044 -18466232.35144  20611683.7434   20611686.3494
  -7799957.21044  -6077884.74444  23730968.5524   23730971.7244
 -22978047.13544 -17904942.80944  20598118.6204   20598121.0984
 -12828891.49744  -9996523.69244  22496208.8744   22496210.6684
 96  5 16  2 40  0.0000000  0  8G 6G 3G28G21G17G22G23G26
  -1546453.23844  -1205028.25044  22230439.3204   22230442.3724
  -7973420.49944  -6213051.42844  23789547.7364   23789550.8004
 -16945820.285 4 -13204530.020 4  22118492.064    22118490.075
 -16884551.12444 -13156767.12044  22392373.2674   22392376.9014
 -23696546.15944 -18464812.48044  20612030.4574   20612033.1714
  -7759738.83444  -6046545.78744  23738621.9014   23738625.5064
 -22980084.84644 -17906530.62744  20597730.8264   20597733.4714
 -12779641.40044  -9958146.99944  22505580.9304   22505582.8094
 96  5 16  2 40 30.0000000  0  8G 6G 3G28G21G17G22G23G26
  -1451732.43944  -1131219.86844  22248464.0724   22248466.9094
  -8073316.59344  -6290892.52244  23770538.0464   23770541.1124
 -17025557.060 4 -13266662.563 4  22103318.682    22103316.652
 -16949579.23544 -13207438.36444  22379998.8334   22380002.0564
 -23694444.19844 -18463174.59444  20612430.5684   20612433.2304
  -7719126.11544  -6014899.53644  23746350.0784   23746353.8254
 -22981677.19944 -17907771.41644  20597427.7514   20597430.3594
 -12729816.66344  -9919322.53444  22515062.2714   22515063.8494
 96  5 16  2 41  0.0000000  0  8G 6G 3G28G21G17G22G23G26
  -1356688.39544  -1057159.60644  22266550.4124   22266553.2054
  -8172988.74344  -6368559.11444  23751570.9734   23751574.2434
 -17104936.701 4 -13328516.820 4  22088213.253    22088211.190
 -17014331.93744 -13257894.99144  22367676.7694   22367679.9694
 -23692125.26044 -18461367.63144  20612871.8264   20612874.4824
  -7678152.53144  -5982972.08644  23754147.0694   23754150.7464
 -22982896.20944 -17908721.28644  20597195.8204   20597198.3864
 -12679498.91744  -9880113.90544  22524637.3354   22524638.7614
 96  5 16  2 41 30.0000000  0  8G 6G 3G28G21G17G22G23G26
  -1261352.05644   -982871.57844  22284692.3134   22284694.8654
  -8272477.65144  -6446082.92144  23732638.8574   23732641.7834
 -17183985.080 4 -13390112.955 4  22073170.831    22073168.757
 -17078846.49544 -13308166.04344  22355400.0554   22355403.2774
 -23689616.97544 -18459413.12144  20613349.0954   20613351.7744
  -7636836.01344  -5950777.44644  23762009.2944   23762013.4174
 -22983809.07144 -17909432.60344  20597022.1044   20597024.5364
 -12628724.27344  -9840549.25344  22534299.4034   22534301.3664
 96  5 16  2 42  0.0000000  0  8G 6G 3G28G21G17G22G23G26
  -1165682.61744   -908323.99244  22302897.6324   22302900.6684
  -8371732.44344  -6523424.27644  23713751.2244   23713754.3454
 -17262660.678 4 -13451418.607 4  22058199.358    22058197.272
 -17143084.72144 -13358221.78044  22343175.8384   22343179.0524
 -23686868.94344 -18457271.79744  20613872.0274   20613874.7384
  -7595135.89844  -5918283.89744  23769944.6344   23769948.9044
 -22984392.58144 -17909887.27744  20596911.0364   20596913.5434
 -12577443.42344  -9800590.15244  22544057.7454   22544059.7154
 96  5 16  2 42 30.0000000  0  8G 6G 3G28G21G17G22G23G26
  -1069688.56244   -833523.45944  22321164.6954   22321167.6854
  -8470760.52744  -6600589.00544  23694906.6354   23694909.8414
 -17340968.912 4 -13512438.003 4  22043297.784    22043295.757
 -17207052.74344 -13408066.97444  22331003.0764   22331006.4414
 -23683877.39144 -18454940.71544  20614441.3254   20614443.8314
  -7553056.85544  -5885495.09244  23777952.1004   23777956.0124
 -22984666.93044 -17910101.04544  20596858.9224   20596861.4734
 -12525655.97044  -9760236.30244  22553912.8054   22553914.7084
 96  5 16  2 43  0.0000000  0  8G 6G 3G28G21G17G22G23G26
   -973385.85944   -758482.42144  22339490.5364   22339493.2434
  -8569597.95144  -6677605.15744  23676098.4674   23676101.9284
 -17418926.803 4 -13573184.401 4  22028462.905    22028460.882
 -17270771.97144 -13457718.30344  22318877.7184   22318880.9244
 -23680646.05344 -18452422.79144  20615056.2274   20615058.8174
  -7510626.60844  -5852432.61844  23786026.4594   23786030.9744
 -22984642.23244 -17910081.78944  20596863.5104   20596866.0234
 -12473375.06344  -9719497.93844  22563861.6394   22563863.0134
 96  5 16  2 43 30.0000000  0  8G 6G 3G28G21G17G22G23G26
   -876782.87044   -683207.40144  22357873.5294   22357876.6204
  -8668250.60644  -6754477.34444  23657325.5104   23657328.6324
 -17496538.330 4 -13633660.906 4  22013693.901    22013691.898
 -17334250.56544 -13507182.13144  22306798.1584   22306801.5684
 -23677159.77844 -18449706.21444  20615719.6414   20615722.2714
  -7467872.14544  -5819117.51644  23794162.5204   23794165.7314
 -22984286.23944 -17909804.38244  20596931.2864   20596933.7974
 -12420584.22444  -9678362.22644  22573907.3184   22573909.0204
 96  5 16  2 44  0.0000000  0  8G 6G 3G28G21G17G22G23G26
   -779883.75844   -607701.62744  22376312.8714   22376315.6744
  -8766726.42844  -6831211.73344  23638586.1904   23638589.3194
 -17573803.117 4 -13693867.224 4  21998990.868    21998988.898
 -17397484.43344 -13556455.27244  22294765.1824   22294768.3974
 -23673427.36744 -18446797.84244  20616429.9224   20616432.5224
  -7424802.80844  -5785557.04644  23802358.3734   23802362.5734
 -22983567.61544 -17909244.40744  20597068.0354   20597070.4774
 -12367291.63344  -9636835.53644  22584048.7354   22584049.8774
 96  5 16  2 44 30.0000000  0  7G 6G 3G28G21G17G23G26
   -682695.27944   -531970.37744  22394807.2024   22394809.7214
  -8865025.65144  -6907808.52544  23619880.4144   23619883.6674
 -17650711.855 4 -13753796.103 4  21984355.601    21984353.641
 -17460475.73344 -13605539.38844  22282778.3554   22282781.5244
 -23669447.51744 -18443696.65944  20617187.3294   20617189.8184
 -22982470.67544 -17908389.63844  20597276.7714   20597279.1854
 -12313512.28544  -9594929.55144  22594282.5714   22594284.0584
 96  5 16  2 45  0.0000000  0  8G 6G 3G28G21G17G 1G23G26
   -585216.27344   -456012.73944  22413356.8754   22413359.4484
  -8963145.06344  -6984265.19744  23601209.1064   23601212.0204
 -17727253.914 4 -13813439.258 4  21969790.128    21969788.182
 -17523221.26744 -13654431.99344  22270838.2434   22270841.3724
 -23665216.09044 -18440399.44544  20617992.5024   20617994.9424
        -0.45154         0.10054  25207106.0234   25207111.7224
 -22980990.75844 -17907236.45044  20597558.4254   20597560.8484
 -12259251.44944  -9552648.39044  22604608.0514   22604609.6934
 96  5 16  2 45 30.0000000  0  8G 6G 3G28G21G17G 1G23G26
   -487413.19544   -379802.58144  22431968.0774   22431971.0774
  -9061047.11444  -7060552.49544  23582578.7964   23582582.0084
 -17803390.252 4 -13872766.265 4  21955301.843    21955299.910
 -17585673.34144 -13703095.93444  22258954.0904   22258957.3694
 -23660715.53544 -18436892.51644  20618848.9384   20618851.4974
   -109909.19544    -85642.90744  25186190.6264   25186198.4064
 -22979113.44044 -17905773.59944  20597915.6154   20597918.0204
 -12204473.26944  -9509964.09444  22615031.9914   22615033.1504
 96  5 16  2 46  0.0000000  0  8G 6G 3G28G21G17G 1G23G26
   -389296.02144   -303347.66944  22450639.1804   22450642.2534
  -9158728.94244  -7136668.18244  23563990.5804   23563993.3664
 -17879128.013 4 -13931782.694 4  21940889.420    21940887.477
 -17647840.05444 -13751537.51844  22247124.0684   22247127.3844
 -23655972.27144 -18433196.46544  20619751.5104   20619754.1364
   -219910.10544   -171357.69944  25165258.0464   25165264.2844
 -22976881.43844 -17904034.36844  20598340.3784   20598342.7134
 -12149186.28044  -9466883.33044  22625552.5844   22625554.1594
 96  5 16  2 46 30.0000000  0  8G 6G 3G28G21G17G 1G23G26
   -290859.69644   -226644.06644  22469370.9604   22469373.5814
  -9256159.01744  -7212587.70844  23545450.3214   23545453.4004
 -17954455.244 4 -13990479.227 4  21926555.095    21926553.169
 -17709710.58944 -13799748.30144  22235350.4704   22235353.6594
 -23650975.33544 -18429302.74944  20620702.4154   20620705.0394
   -329986.39744   -257131.25644  25144311.2064   25144316.8274
 -22974304.23744 -17902026.15344  20598830.7814   20598833.2074
 -12093371.37244  -9423391.19744  22636173.9814   22636175.8644
 96  5 16  2 47  0.0000000  0  8G 6G 3G28G21G17G 1G23G26
   -192108.24044   -149694.90844  22488162.7324   22488165.9034
  -9353338.75644  -7288312.16844  23526957.7124   23526960.8784
 -18029380.664 4 -14048862.654 4  21912297.257    21912295.348
 -17771298.77344 -13847739.06644  22223630.5604   22223633.9234
 -23645745.66244 -18425227.68044  20621697.5814   20621700.1434
   -440120.46244   -342949.84944  25123353.1004   25123358.3224
 -22971393.45244 -17899758.00344  20599384.6364   20599387.0544
 -12037022.90544  -9379483.30544  22646896.7564   22646898.4064
 96  5 16  2 47 30.0000000  0  8G 6G 3G28G21G17G 1G23G26
    -93031.33244    -72492.14944  22507016.5534   22507019.5954
  -9450232.70944  -7363813.92744  23508519.4534   23508523.1554
 -18103886.990 4 -14106919.517 4  21898119.171    21898117.282
 -17832599.72744 -13895506.01344  22211965.3904   22211968.6074
 -23640272.63244 -18420962.98244  20622739.0444   20622741.6624
   -550266.08044   -428777.42644  25102392.9624   25102399.3894
 -22968125.96044 -17897211.89844  20600006.3794   20600008.7584
 -11980121.13644  -9335144.27244  22657724.8074   22657726.5254
 96  5 16  2 48  0.0000000  0  8G 6G 3G28G21G17G 1G23G26
      6357.97544      4954.03744  22525929.7224   22525932.5474
  -9546822.40744  -7439078.61244  23490138.9674   23490142.0514
 -18177969.649 4 -14164646.258 4  21884021.716    21884019.802
 -17893621.63544 -13943055.52444  22200353.2664   22200356.4724
 -23634538.87244 -18416495.11644  20623830.2394   20623832.8224
   -660387.79144   -514586.39644  25081437.3794   25081444.4204
 -22964486.65244 -17894376.06744  20600698.8914   20600701.3064
 -11922675.56844  -9290381.49144  22668656.2384   22668658.2414
 96  5 16  2 48 30.0000000  0  8G 6G 3G28G21G17G 1G23G26
    105998.41644     82595.91444  22544890.7234   22544893.8324
  -9643168.36144  -7514153.36744  23471804.9914   23471807.9114
 -18251681.921 4 -14222084.387 4  21869994.723    21869992.825
 -17954430.40144 -13990438.95044  22188781.6984   22188784.9954
 -23628594.30444 -18411862.98544  20624961.3774   20624964.0244
   -770549.98544   -600426.91044  25060474.2694   25060480.9654
 -22960520.52044 -17891285.56444  20601453.6714   20601456.0174
 -11864761.90744  -9245253.96844  22679676.7354   22679678.3434
 96  5 16  2 49  0.0000000  0  8G 6G 3G28G21G17G 1G23G26
    205886.78944    160430.98644  22563898.9744   22563901.9994
  -9739285.94144  -7589050.16444  23453514.3364   23453516.8754
 -18325021.324 4 -14279231.967 4  21856038.683    21856036.773
 -18015027.16744 -14037657.18944  22177250.4724   22177254.0034
 -23622430.37144 -18407059.91744  20626134.3514   20626136.9254
   -880770.65644   -686312.97844  25039499.8434   25039507.2024
 -22956232.11044 -17887943.93544  20602269.7834   20602272.1224
 -11806386.57644  -9199766.70644  22690785.4154   22690786.7294
 96  5 16  2 49 30.0000000  0  8G 6G 3G28G21G17G 1G23G26
    306020.96444    238457.59144  22582953.8674   22582956.4474
  -9835173.65944  -7663767.84044  23435267.4744   23435269.8364
 -18397982.441 4 -14336084.772 4  21842154.643    21842152.704
 -18075399.23744 -14084700.34144  22165762.0614   22165765.2404
 -23616027.63644 -18402070.77244  20627352.7654   20627355.2314
   -991065.65644   -772256.97244  25018511.3484   25018519.5394
 -22951634.47244 -17884361.35444  20603144.6454   20603147.0454
 -11747556.35344  -9153924.98044  22701980.3294   22701981.6504
 96  5 16  2 50  0.0000000  0  8G 6G 3G28G21G17G 1G23G26
    406415.10444    316686.76844  22602058.2474   22602061.2734
  -9930836.85944  -7738310.58344  23417063.3264   23417066.1384
 -18470553.789 4 -14392633.860 4  21828344.758    21828342.826
 -18135522.20544 -14131549.37444  22154321.1174   22154324.3184
 -23609373.90944 -18396886.05044  20628618.9004   20628621.3624
  -1101444.59344   -858266.37944  24997506.8604   24997510.9014
 -22946728.61044 -17880538.59744  20604078.1294   20604080.5464
 -11688259.45844  -9107719.61544  22713264.1394   22713265.5154
 96  5 16  2 50 30.0000000  0  8G 6G 3G28G21G17G 1G23G26
    507075.17244    395123.16544  22621213.2254   22621215.6464
 -10026286.25644  -7812686.71544  23398899.9594   23398902.4324
 -18542730.989 4 -14448875.819 4  21814609.870    21814607.997
 -18195391.44744 -14178200.71544  22142928.3604   22142931.5464
 -23602481.83044 -18391515.59944  20629930.3894   20629933.0154
  -1211920.14944   -944351.04244  24976483.9684   24976491.6224
 -22941525.85644 -17876484.49144  20605068.2424   20605070.6374
 -11628495.89644  -9061150.61444  22724636.8134   22724638.8554
 96  5 16  2 51  0.0000000  0  8G 6G 3G28G21G17G 1G23G26
    607985.81344    473754.81044  22640415.8774   22640418.3344
 -10121525.30844  -7886898.94744  23380776.4234   23380779.6024
 -18614524.145 4 -14504818.525 4  21800948.070    21800946.233
 -18255004.45944 -14224652.42044  22131584.4444   22131587.8094
 -23595372.58644 -18385975.92644  20631283.2944   20631285.9054
  -1322491.86144  -1030510.63244  24955442.6544   24955446.4834
 -22936042.55844 -17872211.77944  20606111.6584   20606114.0384
 -11568275.75444  -9014225.83844  22736096.1574   22736097.6644
 96  5 16  2 51 30.0000000  0  8G 6G 3G28G21G17G 1G23G26
    709160.79244    552592.43544  22659668.9604   22659671.4364
 -10216520.92244  -7960921.48244  23362699.3594   23362702.4444
 -18685921.233 4 -14560452.610 4  21787361.640    21787359.809
 -18314336.60944 -14270885.29244  22120293.9064   22120297.1094
 -23588043.07344 -18380264.61644  20632678.0414   20632680.5544
  -1433127.67044  -1116720.19844  24934389.2384   24934395.0094
 -22930261.10844 -17867706.74044  20607211.7734   20607214.1854
 -11507594.26044  -8966941.56444  22747643.5744   22747644.9114
 96  5 16  2 52  0.0000000  0  8G 6G 3G28G21G17G 1G23G26
    810621.54444    631652.73744  22678976.3524   22678978.7624
 -10311253.93344  -8034739.38744  23344672.3004   23344674.8834
 -18756897.148 4 -14615758.510 4  21773855.376    21773853.497
 -18373369.23144 -14316884.73644  22109060.3274   22109063.5884
 -23580472.68144 -18374365.60444  20634118.6014   20634121.3774
  -1543799.85844  -1202958.07444  24913329.0384   24913334.6714
 -22924146.59844 -17862942.17644  20608375.3534   20608377.7464
 -11446434.74744  -8919284.81044  22759281.9594   22759283.4024
 96  5 16  2 52 30.0000000  0  8G 6G 3G28G21G17G 1G23G26
    912363.96844    710932.52444  22698337.2494   22698340.1504
 -10405702.17444  -8108335.40144  23326699.4314   23326701.5584
 -18827445.178 4 -14670730.992 4  21760430.512    21760428.638
 -18432105.69544 -14362653.39344  22097883.1214   22097886.3324
 -23572648.33544 -18368268.71444  20635607.5074   20635610.0124
  -1654494.96644  -1289213.82644  24892264.2914   24892268.6614
 -22917685.82144 -17857907.79444  20609604.7614   20609607.1744
 -11384802.45444  -8871259.65144  22771010.3024   22771012.0564
 96  5 16  2 53  0.0000000  0  8G 6G 3G28G21G17G 1G23G26
   1014380.93044    790426.24344  22717750.3054   22717753.1434
 -10499869.08544  -8181712.20044  23308780.1704   23308782.6514
 -18897575.294 4 -14725377.827 4  21747085.180    21747083.319
 -18490557.51644 -14408200.25944  22086760.1014   22086763.2854
 -23564568.29644 -18361972.58044  20637145.1184   20637147.6834
  -1765220.62144  -1375493.36544  24871193.7014   24871200.3344
 -22910881.91744 -17852606.04344  20610899.5224   20610901.8754
 -11322696.42044  -8822865.35744  22782828.5664   22782830.1114
 96  5 16  2 53 30.0000000  0  8G 6G 3G28G21G17G 1G23G26
   1116678.73844    870138.79044  22737217.0664   22737219.5894
 -10593752.08944  -8254867.76244  23290914.7264   23290917.7914
 -18967277.722 4 -14779691.404 4  21733821.228    21733819.363
 -18548738.57344 -14453536.13144  22075688.6114   22075691.7434
 -23556212.89144 -18355461.87444  20638735.0704   20638737.4554
  -1875969.47844  -1461790.98544  24850118.7814   24850124.7714
 -22903722.16344 -17847027.00344  20612261.9884   20612264.3734
 -11260100.49044  -8774089.31344  22794740.1874   22794741.6544
 96  5 16  2 54  0.0000000  0  8G 6G 3G28G21G17G 1G23G26
   1219239.36744    950056.14544  22756733.7024   22756736.6394
 -10687363.73644  -8327811.87644  23273101.0974   23273103.8054
 -19036555.159 4 -14833673.814 4  21720638.138    21720636.268
 -18606675.38044 -14498681.66044  22064663.4834   22064666.6554
 -23547590.98844 -18348743.51044  20640375.8124   20640378.3794
  -1986753.54144  -1548116.05744  24829037.3564   24829043.4184
 -22896216.10844 -17841178.11844  20613690.3074   20613692.6454
 -11197020.75144  -8724936.27644  22806743.7114   22806745.4514
 96  5 16  2 54 30.0000000  0  8G 6G 3G28G21G17G 1G23G26
   1322049.02244   1030167.54744  22776297.8004   22776300.9614
 -10780700.82844  -8400542.06344  23255339.5814   23255342.7784
 -19105412.649 4 -14887329.000 4  21707535.018    21707533.087
 -18664370.41044 -14543638.79444  22053684.5014   22053687.6924
 -23538724.42044 -18341834.49744  20642063.0514   20642065.6254
  -2097579.65744  -1634473.87344  24807947.6804   24807953.6834
 -22888377.82944 -17835070.35744  20615181.8344   20615184.1914
 -11133460.87844  -8675409.11144  22818838.8404   22818840.1314
 96  5 16  2 55  0.0000000  0  8G 6G 3G28G21G17G 1G23G26
   1425106.28444   1110471.88044  22795908.9884   22795912.1324
 -10873784.97044  -8473075.13844  23237626.1184   23237629.3914
 -19173853.858 4 -14940659.816 4  21694511.090    21694509.174
 -18721832.19944 -14588414.18244  22042749.9334   22042752.9794
 -23529632.80644 -18334750.12144  20643793.1154   20643795.5714
  -2208459.71344  -1720873.74744  24786847.7994   24786854.7384
 -22880229.52044 -17828721.01644  20616732.5104   20616734.8384
 -11069422.30944  -8625508.93844  22831024.9844   22831026.7104
 96  5 16  2 55 30.0000000  0  8G 6G 3G28G21G17G 1G23G26
   1528410.56844   1190968.71344  22815567.0754   22815569.7944
 -10966618.98144  -8545413.30244  23219960.4324   23219963.5654
 -19241875.313 4 -14993663.546 4  21681567.040    21681565.150
 -18779066.62844 -14633012.41044  22031858.5744   22031861.4854
 -23520317.22244 -18327491.22344  20645565.8204   20645568.3114
  -2319398.77044  -1807319.61944  24765736.7114   24765743.1154
 -22871772.53544 -17822131.14944  20618341.7994   20618344.1684
 -11004913.56344  -8575242.38444  22843300.6494   22843302.5854
 96  5 16  2 56  0.0000000  0  8G 6G 3G28G21G17G 1G23G26
   1631987.76844   1271678.20044  22835277.0674   22835279.7634
 -11059175.93844  -8617535.58344  23202347.3464   23202350.5744
 -19309443.987 4 -15046314.459 4  21668709.139    21668707.277
 -18836023.12044 -14677394.07344  22021020.1174   22021023.2894
 -23510750.18244 -18320036.38544  20647386.4014   20647388.8414
  -2430375.47044  -1893794.80044  24744618.3954   24744622.9704
 -22862986.93644 -17815285.21844  20620013.6234   20620015.8714
 -10939921.59844  -8524599.30744  22855668.1184   22855669.9184
 96  5 16  2 56 30.0000000  0  8G 6G 3G28G21G17G 1G23G26
   1735815.31044   1352582.76144  22855034.7884   22855037.9844
 -11151474.56644  -8689456.57944  23184783.4974   23184786.1304
 -19376583.087 4 -15098630.642 4  21655933.001    21655931.115
 -18892718.76344 -14721572.45844  22010231.2594   22010234.3834
 -23500951.14544 -18312400.77144  20649251.1114   20649253.7554
  -2541408.05044  -1980313.53044  24723489.4834   24723495.5504
 -22853887.39244 -17808194.65644  20621745.2614   20621747.5704
 -10874468.82644  -8473597.15144  22868123.4164   22868124.8784
 96  5 16  2 57  0.0000000  0  8G 6G 3G28G21G17G 1G23G26
   1839889.99644   1433679.90644  22874839.4734   22874842.5894
 -11243509.66444  -8761172.21844  23167269.6974   23167272.2044
 -19443291.072 4 -15150610.890 4  21643238.906    21643236.949
 -18949157.18844 -14765550.41244  21999491.3144   21999494.4684
 -23490905.03444 -18304572.63244  20651162.7894   20651165.2514
  -2652489.97144  -2066870.70444  24702351.1704   24702357.3214
 -22844467.28944 -17800854.30744  20623537.7844   20623540.0804
 -10808562.13544  -8422241.29444  22880665.1364   22880666.6324
 96  5 16  2 57 30.0000000  0  8G 6G 3G28G21G17G 1G23G26
   1944196.94444   1514958.03144  22894688.4144   22894691.4674
 -11335255.28444  -8832662.29644  23149811.0314   23149813.7874
 -19509556.838 4 -15202246.551 4  21630628.941    21630626.975
 -19005318.52144 -14809312.45744  21988804.1124   21988807.3304
 -23480597.01044 -18296540.40444  20653124.3134   20653126.9094
  -2763597.84544  -2153448.12544  24681207.9284   24681212.0764
 -22834713.74844 -17793254.13244  20625393.7154   20625396.0674
 -10742211.65744  -8370539.63644  22893291.1414   22893292.3594
 96  5 16  2 58  0.0000000  0  8G 6G 3G28G21G17G 1G23G26
   2048738.03544   1596418.60844  22914581.8874   22914584.8154
 -11426685.14944  -8903906.33344  23132412.5864   23132415.8034
 -19575363.688 4 -15253524.610 4  21618106.292    21618104.356
 -19061182.65944 -14852842.92144  21978173.5444   21978176.7294
 -23470012.68544 -18288292.87544  20655138.4404   20655140.7894
  -2874701.58144  -2240022.31244  24660065.5174   24660072.2424
 -22824624.25244 -17785392.17744  20627313.7314   20627316.1124
 -10675413.18744  -8318488.88844  22906002.2384   22906003.8164
 96  5 16  2 58 30.0000000  0  8G 6G 3G28G21G17G 1G23G26
   2153517.23544   1678064.71944  22934520.7604   22934523.5854
 -11517783.51344  -8974892.05744  23115077.1694   23115080.2514
 -19640706.052 4 -15304440.734 4  21605672.042    21605670.141
 -19116757.29944 -14896147.81044  21967597.9994   21967601.1624
 -23459146.73044 -18279825.89344  20657206.2164   20657208.8384
  -2985782.19744  -2326578.49144  24638927.3174   24638933.7454
 -22814198.97244 -17777268.57444  20629297.6234   20629300.0904
 -10608162.61244  -8266085.85044  22918799.6284   22918801.6004
 96  5 16  2 59  0.0000000  0  8G 6G 3G28G21G17G 1G23G26
   2258516.02444   1759881.94044  22954501.5044   22954504.6694
 -11608582.75644  -9045644.68944  23097798.6904   23097801.7134
 -19705599.820 4 -15355007.307 4  21593323.172    21593321.275
 -19172070.36044 -14939248.86144  21957072.2674   21957075.4514
 -23448018.39544 -18271154.46244  20659323.8744   20659326.4914
  -3096862.16344  -2413134.16144  24617789.5054   24617793.3274
 -22803475.37444 -17768912.51344  20631338.2324   20631340.5714
 -10540489.71744  -8213353.73344  22931677.4424   22931679.4364
 96  5 16  2 59 30.0000000  0  8G 6G 3G28G21G17G 1G23G26
   2363746.15144   1841879.41944  22974526.0914   22974529.1884
 -11699080.69144  -9116162.55344  23080577.5374   23080580.5094
 -19770037.825 4 -15405218.734 4  21581061.052    21581059.133
 -19227117.05244 -14982142.35044  21946597.1804   21946600.3574
 -23436621.40844 -18262273.69144  20661492.6204   20661495.0284
  -3207938.07544  -2499686.67744  24596652.3344   24596656.3704
 -22792456.91944 -17760326.69544  20633434.9464   20633437.3474
 -10472388.54844  -8160287.89344  22944636.7254   22944638.4924
 96  5 16  3  0  0.0000000  0  8G 6G 3G28G21G17G 1G23G26
   2469230.08644   1924074.67944  22994599.0414   22994602.0504
 -11789280.62544  -9186448.20044  23063413.2144   23063415.7114
 -19834013.312 4 -15455069.759 4  21568886.926    21568885.007
 -19281899.38744 -15024829.85144  21936172.3754   21936175.5284
 -23424949.05644 -18253178.34944  20663713.7594   20663716.4154
  -3319010.13144  -2586236.21044  24575515.9144   24575522.1894
 -22781127.67044 -17751498.70344  20635590.9284   20635593.3274
 -10403844.48144  -8106876.94244  22957680.2144   22957682.3674
 96  5 16  3  0 30.0000000  0  8G 6G 3G28G21G17G 1G23G26
   2574977.15644   2006474.97844  23014722.1554   23014725.4244
 -11879179.33344  -9256499.13244  23046306.0094   23046308.6204
 -19897521.831 4 -15504556.917 4  21556801.677    21556799.699
 -19336412.77244 -15067307.77344  21925798.8534   21925801.9684
 -23413006.50244 -18243872.46144  20665986.4024   20665989.0414
  -3430070.16244  -2672776.35144  24554381.8314   24554387.5344
 -22769470.63144 -17742415.28744  20637809.1424   20637811.5254
 -10334844.39844  -8053110.65844  22970810.5084   22970811.9074
 96  5 16  3  1  0.0000000  0  8G 6G 3G28G21G17G 1G23G26
   2681009.18044   2089097.31544  23034899.3934   23034902.5784
 -11968755.89344  -9326299.03144  23029260.0824   23029262.8744
 -19960541.757 4 -15553663.349 4  21544809.388    21544807.427
 -19390639.41944 -15109562.26544  21915479.8874   21915482.9964
 -23400770.79044 -18234338.13344  20668314.6634   20668317.1354
  -3541095.95944  -2759289.82544  24533254.3034   24533258.2044
 -22757463.25944 -17733058.88844  20640093.9894   20640096.3504
 -10265363.00644  -7998969.32044  22984032.5344   22984033.9484
 96  5 16  3  1 30.0000000  0  8G 6G 3G28G21G17G 1G23G26
   2787309.63644   2171928.82344  23055127.6414   23055130.7444
 -12058013.73844  -9395850.58344  23012274.7304   23012277.6434
 -20023090.090 4 -15602402.307 4  21532906.844    21532904.896
 -19444582.94044 -15151596.14244  21905214.7344   21905217.8154
 -23388263.65244 -18224592.30544  20670694.7684   20670697.3134
  -3652095.77544  -2845783.01444  24512131.5764   24512138.8134
 -22745130.66944 -17723449.07444  20642440.8004   20642443.1534
 -10195418.86344  -7944467.40044  22997342.3604   22997344.3254
 96  5 16  3  2  0.0000000  0  8G 6G 3G28G21G17G 1G23G26
   2893836.34844   2254936.63644  23075398.9954   23075401.6574
 -12146980.57544  -9465175.37244  22995344.8294   22995347.7554
 -20085199.033 4 -15650798.883 4  21521087.883    21521085.970
 -19498274.07544 -15193433.35744  21894997.5564   21895000.6794
 -23375527.74644 -18214668.21644  20673118.3324   20673120.8514
  -3763093.45244  -2932274.57544  24491009.3534   24491014.5644
 -22732512.02944 -17713616.36344  20644842.0574   20644844.3864
 -10125048.70544  -7889633.52244  23010733.1814   23010734.8324
 96  5 16  3  2 30.0000000  0  8G 6G 3G28G21G17G 1G23G26
   3000579.68444   2338113.24244  23095711.6684   23095714.6234
 -12235644.28844  -9534263.96344  22978472.6914   22978475.5454
 -20146867.219 4 -15698852.005 4  21509352.785    21509350.891
 -19551716.45244 -15235076.73944  21884827.8304   21884830.9424
 -23362557.76244 -18204561.72644  20675586.4314   20675588.8814
  -3874085.94244  -3018762.12644  24469888.0554   24469891.9714
 -22719630.34144 -17703578.68044  20647293.3294   20647295.6654
 -10054254.30844  -7834469.06644  23024204.8724   23024206.8024
 96  5 16  3  3  0.0000000  0  8G 6G 3G28G21G17G 1G23G26
   3107544.26344   2421462.23544  23116066.2884   23116069.4154
 -12323984.06844  -9603100.13344  22961662.1314   22961664.6084
 -20208074.687 4 -15746546.123 4  21497705.365    21497703.484
 -19604889.14744 -15276509.97144  21874709.3144   21874712.5054
 -23349331.02644 -18194255.17544  20678103.4044   20678105.8744
  -3985068.81944  -3105242.09944  24448768.5004   24448772.6054
 -22706483.71444 -17693334.55044  20649795.0934   20649797.3644
  -9983030.55944  -7778970.04844  23037758.3704   23037760.3834
 96  5 16  3  3 30.0000000  0  8G 6G 3G28G21G17G 1G23G26
   3214720.31044   2504976.02244  23136461.3394   23136464.0844
 -12411982.64944  -9671670.44144  22944916.5354   22944919.7014
 -20268809.869 4 -15793872.225 4  21486147.827    21486145.912
 -19657766.42744 -15317713.01844  21864647.1814   21864650.1374
 -23335839.70144 -18183742.45144  20680670.8114   20680673.1654
  -4096039.23644  -3191712.41144  24427651.6234   24427656.3314
 -22693053.38844 -17682869.35244  20652350.8304   20652353.0944
  -9911372.72944  -7723132.78644  23051394.5814   23051395.9234
 96  5 16  3  4  0.0000000  0  8G 6G 3G28G21G17G 1G23G26
   3322053.93944   2588612.59944  23156886.1984   23156889.6634
 -12499664.82344  -9739994.18944  22928231.2994   22928233.1914
 -20329104.916 4 -15840855.368 4  21474674.027    21474672.143
 -19710397.76144 -15358724.42444  21854631.7794   21854634.8664
 -23322100.69244 -18173036.71044  20683285.2344   20683287.6984
  -4207030.74344  -3278199.16444  24406530.4384   24406535.5374
 -22679356.28444 -17672196.29344  20654957.2934   20654959.6554
  -9839316.20344  -7666984.85344  23065106.4944   23065108.1524
 96  5 16  3  4 30.0000000  0  8G 6G 3G28G21G17G 1G23G26
   3429565.52944   2672387.84044  23177345.0384   23177347.2454
 -12587014.09944  -9808058.53644  22911609.3194   22911611.3534
 -20388935.358 4 -15887476.490 4  21463288.657    21463286.841
 -19762768.50744 -15399532.76944  21844665.8804   21844668.9084
 -23308083.15644 -18162113.95544  20685952.6154   20685954.9974
  -4318030.09544  -3364692.04044  24385407.9204   24385412.5194
 -22665364.50044 -17661293.59444  20657619.7834   20657622.1134
  -9766845.80944  -7610514.42844  23078897.1804   23078898.9894
 96  5 16  3  5  0.0000000  0  8G 6G 3G28G21G17G 1G23G26
   3537224.46944   2756277.90044  23197831.7944   23197834.2854
 -12674060.02544  -9875886.51844  22895044.9754   22895047.6654
 -20448318.754 4 -15933749.264 4  21451988.387    21451986.601
 -19814898.36044 -15440153.41044  21834745.9104   21834749.0064
 -23293811.73744 -18150993.43844  20688668.3214   20688670.8274
  -4429049.75544  -3451200.75244  24364281.4454   24364286.7584
 -22651084.08344 -17650165.94044  20660337.2054   20660339.7204
  -9693984.77844  -7553739.61044  23092762.1194   23092764.0574
 96  5 16  3  5 30.0000000  0  8G 6G 3G28G21G17G 1G23G26
   3645054.00844   2840300.91344  23218351.1494   23218353.6554
 -12760781.02344  -9943461.29944  22878542.5684   22878545.3284
 -20507226.659 4 -15979651.520 4  21440778.575    21440776.795
 -19866765.65144 -15480569.46344  21824875.8384   21824878.9224
 -23279248.39644 -18139645.34844  20691439.7314   20691442.1144
  -4540048.39544  -3537693.08544  24343158.9794   24343163.6104
 -22636487.01844 -17638791.61844  20663114.9344   20663117.3014
  -9620706.55844  -7496639.70644  23106706.4874   23106708.3694
 96  5 16  3  6  0.0000000  0  8G 6G 3G28G21G17G 1G23G26
   3753074.60144   2924472.77644  23238906.8804   23238910.0264
 -12847180.25044 -10010785.35144  22862101.2384   22862104.3614
 -20565649.178 4 -16025175.554 4  21429661.144    21429659.314
 -19918384.58844 -15520791.98744  21815052.9974   21815056.0984
 -23264391.54444 -18128068.57144  20694266.8504   20694269.3364
  -4651011.15944  -3624157.45644  24322043.2554   24322048.6724
 -22621582.77644 -17627177.92244  20665951.1884   20665953.4514
  -9547001.50844  -7439207.21244  23120732.1744   23120733.9964
 96  5 16  3  6 30.0000000  0  8G 6G 3G28G21G17G 1G23G26
   3861299.63644   3008803.94344  23259501.3684   23259504.5684
 -12933264.42044 -10077863.90744  22845719.8514   22845722.4664
 -20623579.457 4 -16070316.021 4  21418637.388    21418635.502
 -19969742.06144 -15560810.77644  21805280.0434   21805283.1204
 -23249258.58544 -18116276.65444  20697146.5374   20697149.0454
  -4761941.01744  -3710596.17544  24300933.9864   24300939.2204
 -22606382.65444 -17615333.66644  20668843.7244   20668846.0774
  -9472868.15244  -7381440.96944  23134839.2174   23134841.5194
 96  5 16  3  7  0.0000000  0  8G 6G 3G28G21G17G 1G23G26
   3969729.82844   3093295.00244  23280134.9544   23280137.8664
 -13019025.11544 -10144690.40544  22829400.0924   22829402.5504
 -20681014.808 4 -16115070.830 4  21407707.773    21407705.915
 -20020836.17644 -15600624.35544  21795557.0744   21795560.0794
 -23233860.72144 -18104278.31044  20700076.6474   20700079.0734
  -4872827.02644  -3797000.71344  24279833.0004   24279837.8874
 -22590893.36144 -17603264.09044  20671791.1894   20671793.4974
  -9398306.93744  -7323341.33544  23149027.7304   23149029.2524
 96  5 16  3  7 30.0000000  0  8G 6G 3G28G21G17G 1G23G26
   4078372.54444   3177951.64744  23300809.0464   23300812.2154
 -13104444.15644 -10211250.67144  22813145.3344   22813148.2064
 -20737953.388 4 -16159438.545 4  21396872.710    21396870.864
 -20071672.35944 -15640236.93744  21785883.2654   21785886.3124
 -23218208.71844 -18092081.94544  20703055.1124   20703057.6624
  -4983682.31644  -3883381.35744  24258737.7734   24258741.4684
 -22575127.43444 -17590978.95044  20674791.3244   20674793.6944
  -9323328.66544  -7264916.71444  23163295.4734   23163297.2614
 96  5 16  3  8  0.0000000  0  8G 6G 3G28G21G17G 1G23G26
   4187227.20144   3262773.43044  23321523.4234   23321526.1584
 -13189518.21744 -10277542.12944  22796956.3084   22796959.1644
 -20794397.642 4 -16203421.072 4  21386131.695    21386129.855
 -20122267.07144 -15679661.36844  21776255.4294   21776258.5614
 -23202322.47044 -18079703.04444  20706078.2754   20706080.7964
  -5094510.46044  -3969740.80644  24237647.7794   24237652.2874
 -22559083.58344 -17578477.24844  20677844.3204   20677846.7484
  -9247947.76544  -7206178.35944  23177640.0284   23177642.6324
 96  5 16  3  8 30.0000000  0  8G 6G 3G28G21G17G 1G23G26
   4296291.46144   3347758.56344  23342277.5794   23342280.9894
 -13274233.31244 -10343553.87544  22780835.5874   22780838.5604
 -20850338.983 4 -16247011.718 4  21375486.413    21375484.545
 -20172610.32144 -15718889.85444  21766675.3554   21766678.4954
 -23186185.29044 -18067128.61644  20709149.0214   20709151.4394
  -5205305.54944  -4056074.51844  24216563.9454   24216568.4394
 -22542752.28244 -17565751.55444  20680952.0434   20680954.3824
  -9172173.10344  -7147133.17944  23192059.6604   23192061.0484
 96  5 16  3  9  0.0000000  0  8G 6G 3G28G21G17G 1G23G26
   4405534.18344   3432882.75144  23363065.8924   23363069.2864
 -13358597.15044 -10409291.90744  22764781.6524   22764784.7184
 -20905796.664 4 -16290225.485 4  21364933.166    21364931.281
 -20222720.56344 -15757936.77544  21757139.7154   21757142.7694
 -23169801.13544 -18054361.73844  20712266.8084   20712269.3894
  -5316080.83944  -4142392.78644  24195484.0324   24195489.4734
 -22526150.78344 -17552815.31344  20684111.1924   20684113.5624
  -9096028.81244  -7087799.97044  23206549.3904   23206552.4274
 96  5 16  3  9 30.0000000  0  8G 6G 3G28G21G17G 1G23G26
   4514972.70544   3518159.49544  23383891.2954   23383893.9384
 -13442599.27244 -10474748.08944  22748796.4944   22748799.5814
 -20960749.562 4 -16333045.917 4  21354475.980    21354474.069
 -20272572.16144 -15796782.14344  21747653.2484   21747656.3184
 -23153138.38044 -18041377.77544  20715437.6614   20715439.9644
  -5426817.26844  -4228680.79444  24174411.4494   24174415.8184
 -22509256.88344 -17539651.23044  20687326.1154   20687328.4294
  -9019490.02744  -7028159.37444  23221114.0274   23221115.6654
 96  5 16  3 10  0.0000000  0  8G 6G 3G28G21G17G 1G23G26
   4624635.16644   3603610.75844  23404759.3574   23404761.5844
 -13526234.40644 -10539918.30644  22732881.2634   22732883.8634
 -21015171.615 4 -16375452.705 4  21344119.790    21344117.905
 -20322126.57744 -15835395.94544  21738223.3514   21738226.3734
 -23136159.41944 -18028147.41244  20718668.7104   20718671.1624
  -5537480.65744  -4314911.88344  24153352.8064   24153357.6374
 -22492036.98844 -17526233.13044  20690602.8814   20690605.1364
  -8942525.84644  -6968187.29344  23235759.9964   23235762.1624
 96  5 16  3 10 30.0000000  0  8G 6G 3G28G21G17G 1G23G26
   4734480.75344   3689204.70644  23425662.3354   23425665.0854
 -13609548.25344 -10604838.17244  22717027.2204   22717030.0944
 -21069099.170 4 -16417474.174 4  21333857.719    21333855.847
 -20371400.67744 -15873791.32244  21728846.8314   21728849.7934
 -23118892.08744 -18014692.34544  20721954.4824   20721956.8714
  -5648110.86044  -4401117.09844  24132300.5004   24132305.9544
 -22474531.58344 -17512592.55844  20693934.1144   20693936.3964
  -8865163.64244  -6907905.06644  23250481.5464   23250483.6224
 96  5 16  3 11  0.0000000  0  8G 6G 3G28G21G17G 1G23G26
   4844504.34544   3774937.36944  23446599.1504   23446602.2094
 -13692541.20444 -10669507.99344  22701234.1514   22701236.8514
 -21122533.497 4 -16459111.307 4  21323689.501    21323687.637
 -20420384.76744 -15911960.73144  21719525.4084   21719528.3264
 -23101348.63944 -18001022.12744  20725292.9194   20725295.3534
  -5758696.11944  -4487287.29544  24111256.7194   24111260.2894
 -22456746.82544 -17498734.30544  20697318.3424   20697320.6624
  -8787404.91844  -6847313.86144  23265278.6414   23265280.3144
 96  5 16  3 11 30.0000000  0  8G 6G 3G28G21G17G 1G23G26
   4954712.52544   3860813.86644  23467571.0604   23467574.5424
 -13775210.09144 -10733925.28744  22685502.8184   22685505.9524
 -21175470.183 4 -16500360.666 4  21313615.975    21313614.120
 -20469090.65544 -15949913.34544  21710256.9814   21710260.0594
 -23083536.56644 -17987142.59244  20728682.4324   20728684.8464
  -5869226.99944  -4573415.15444  24090223.1364   24090229.1124
 -22438671.84944 -17484649.90844  20700757.9154   20700760.3364
  -8709254.42144  -6786417.36644  23280150.0114   23280151.6304
 96  5 16  3 12  0.0000000  0  8G 6G 3G28G21G17G 1G23G26
   5065096.63444   3946827.44144  23488576.4304   23488579.4824
 -13857527.03244 -10798068.35144  22669838.3644   22669841.2924
 -21227901.983 4 -16541216.608 4  21303638.557    21303636.672
 -20517523.60544 -15987653.27544  21701040.4364   21701043.4324
 -23065460.31244 -17973057.19844  20732122.1774   20732124.6044
  -5979693.40044  -4659492.73444  24069202.1204   24069208.2974
 -22420305.48444 -17470338.45244  20704252.9234   20704255.3474
  -8630716.52544  -6725219.02144  23295095.2124   23295096.4354
 96  5 16  3 12 30.0000000  0  8G 6G 3G28G21G17G 1G23G26
   5175652.57844   4032974.91844  23509614.6444   23509617.6914
 -13939449.27944 -10861903.85744  22654249.0994   22654252.2514
 -21279808.771 4 -16581663.448 4  21293761.020    21293759.133
 -20565681.96544 -16025179.23844  21691876.1674   21691879.1594
 -23047103.20044 -17958752.95544  20735615.4244   20735617.8684
  -6090072.50344  -4745502.32444  24048197.6874   24048203.1384
 -22401644.20144 -17455797.18944  20707804.0294   20707806.4664
  -8551786.26144  -6663714.92444  23310115.3084   23310117.0074
 96  5 16  3 13  0.0000000  0  8G 6G 3G28G21G17G 1G23G26
   5286396.05644   4119268.53544  23530688.3214   23530692.4324
 -14020940.93444 -10925403.84244  22638741.7344   22638744.7634
 -21331175.670 4 -16621689.596 4  21283986.216    21283984.330
 -20613568.39044 -16062493.31544  21682763.6794   21682766.7454
 -23028466.04644 -17944230.49444  20739161.9324   20739164.5204
  -6200353.05344  -4831435.11744  24027211.9434   24027217.2974
 -22382685.93844 -17441024.51044  20711411.6484   20711414.0204
  -8472464.72744  -6601905.94244  23325209.6104   23325211.3304
 96  5 16  3 13 30.0000000  0  8G 6G 3G28G21G17G 1G23G26
   5397324.06444   4205705.92844  23551797.2644   23551800.3064
 -14102003.25144 -10988569.27644  22623316.0614   22623319.0544
 -21382004.947 4 -16661296.822 4  21274313.712    21274311.872
 -20661192.02944 -16099602.64044  21673701.2244   21673704.1204
 -23009547.30644 -17929488.62144  20742762.0924   20742764.5284
  -6310551.35144  -4917303.82444  24006241.6544   24006246.6344
 -22363433.35844 -17426022.49344  20715075.2824   20715077.6144
  -8392743.06344  -6539785.18344  23340380.1014   23340381.8364
 96  5 16  3 14  0.0000000  0  8G 6G 3G28G21G17G 1G23G26
   5508388.79244   4292249.87144  23572932.1234   23572935.5834
 -14182673.07744 -11051428.87144  22607965.1254   22607968.2264
 -21432332.652 4 -16700513.216 4  21264736.655    21264734.867
 -20708573.82344 -16136523.50344  21664684.6864   21664687.7124
 -22990376.83644 -17914550.59644  20746410.0844   20746412.6284
  -6420708.24344  -5003140.26244  23985279.3764   23985282.7224
 -22343946.15844 -17410837.66044  20718783.5434   20718785.8774
  -8312648.02244  -6477373.46344  23355621.7414   23355623.6604
 96  5 16  3 14 30.0000000  0  8G 6G 3G28G21G17G 1G23G26
   5619617.31044   4378921.43044  23594098.2424   23594102.1224
 -14262946.83744 -11113979.84844  22592689.4654   22592692.2594
 -21482141.312 4 -16739325.159 4  21255258.365    21255256.569
 -20755696.02244 -16173242.08444  21655717.6844   21655720.7684
 -22970924.60744 -17899393.01544  20750111.7164   20750114.2944
  -6530798.39644  -5088924.68244  23964329.9584   23964334.9274
 -22324212.04244 -17395460.42644  20722538.7934   20722541.2064
  -8232175.95044  -6414667.95644  23370935.0774   23370936.9464
 96  5 16  3 15  0.0000000  0  8G 6G 3G28G21G17G 1G23G26
   5731008.19044   4465719.50944  23615295.1594   23615298.1124
 -14342850.49744 -11176242.43744  22577484.3894   22577487.2524
 -21531440.445 4 -16777740.067 4  21245877.043    21245875.244
 -20802565.61044 -16209763.82444  21646798.6704   21646801.6214
 -22951196.66344 -17884020.59344  20753865.8174   20753868.3114
  -6640822.71044  -5174657.82244  23943392.7684   23943396.8314
 -22304229.47444 -17379889.59144  20726341.4114   20726343.8484
  -8151321.21344  -6351664.28644  23386321.4024   23386323.3914
 96  5 16  3 15 30.0000000  0  8G 6G 3G28G21G17G 1G23G26
   5842542.62144   4552629.43944  23636519.5004   23636522.2224
 -14422384.81344 -11238217.22244  22562349.4624   22562352.2524
 -21580224.254 4 -16815753.420 4  21236593.768    21236591.985
 -20849176.34844 -16246083.84844  21637928.8884   21637931.8884
 -22931168.58744 -17868414.30044  20757677.0554   20757679.5774
  -6750773.09444  -5260333.32844  23922469.8334   23922475.0894
 -22283983.23244 -17364113.29944  20730194.1944   20730196.6184
  -8070081.76344  -6288360.81444  23401780.7154   23401782.2814
 96  5 16  3 16  0.0000000  0  8G 6G 3G28G21G17G 1G23G26
   5954196.41644   4639632.38444  23657766.5044   23657769.4254
 -14501558.45344 -11299910.95944  22547283.1624   22547285.8234
 -21628501.288 4 -16853371.884 4  21227406.943    21227405.137
 -20895542.28444 -16282213.12844  21629105.7674   21629108.8424
 -22910858.59844 -17852588.34044  20761541.9344   20761544.3594
  -6860648.44544  -5345950.37044  23901561.1444   23901565.0664
 -22263481.71744 -17348138.09144  20734095.5004   20734097.9624
  -7988501.61444  -6224791.87844  23417304.9244   23417306.4234
 96  5 16  3 16 30.0000000  0  8G 6G 3G28G21G17G 1G23G26
   6065952.06944   4726714.72144  23679032.9084   23679035.3154
 -14580402.92644 -11361348.20144  22532279.6384   22532282.6324
 -21676298.568 4 -16890616.513 4  21218311.426    21218309.619
 -20941699.31544 -16318179.62644  21620322.3604   21620325.4244
 -22890307.34644 -17836574.37744  20765452.6534   20765455.0834
  -6970477.90444  -5431531.66144  23880661.3114   23880664.9934
 -22242736.00544 -17331972.59844  20738043.2844   20738045.7534
  -7906618.21144  -6160986.64144  23432886.7714   23432888.7364
 96  5 16  3 17  0.0000000  0  8G 6G 3G28G21G17G 1G23G26
   6177847.12244   4813905.67344  23700325.8614   23700329.0174
 -14658855.59544 -11422480.14544  22517350.5484   22517353.7244
 -21723567.854 4 -16927449.720 4  21209316.375    21209314.567
 -20987585.86244 -16353935.36944  21611590.4074   21611593.4744
 -22869491.27144 -17820354.05844  20769413.9594   20769416.4144
  -7080233.69844  -5517055.52644  23859775.3024   23859779.3474
 -22221699.28944 -17315580.34744  20742046.3954   20742048.7904
  -7824378.03844  -6096903.38444  23448536.6064   23448538.8364
 96  5 16  3 17 30.0000000  0  8G 6G 3G28G21G17G 1G23G26
   6289889.04144   4901211.06344  23721646.7334   23721649.8194
 -14736886.14844 -11483283.16444  22502501.8114   22502504.5794
 -21770291.719 4 -16963857.927 4  21200425.129    21200423.304
 -21033181.33344 -16389464.28344  21602913.8884   21602916.9214
 -22848406.96644 -17803924.72744  20773426.0674   20773428.5434
  -7189921.04444  -5602526.08344  23838902.4524   23838907.6164
 -22200373.40144 -17298962.76844  20746104.5464   20746106.8284
  -7741795.11244  -6032553.06244  23464251.6054   23464253.4124
 96  5 16  3 18  0.0000000  0  8G 6G 3G28G21G17G 1G23G26
   6402098.92544   4988647.34044  23742999.6024   23743002.8124
 -14814502.76144 -11543763.62944  22487731.9564   22487734.7494
 -21816467.114 4 -16999838.751 4  21191638.231    21191636.394
 -21078484.05844 -16424765.08644  21594293.0044   21594296.0904
 -22827057.13844 -17787288.49744  20777488.8704   20777491.2514
  -7299534.82044  -5687939.30544  23818043.5264   23818048.4724
 -22178769.20944 -17282128.33544  20750215.7404   20750218.1294
  -7658864.57644  -5967931.86844  23480032.6974   23480034.8474
 96  5 16  3 18 30.0000000  0  8G 6G 3G28G21G17G 1G23G26
   6514481.48144   5076218.18144  23764385.1584   23764389.6954
 -14891704.72644 -11603921.00244  22473040.7894   22473043.8904
 -21862097.778 4 -17035395.107 4  21182954.989    21182953.134
 -21123503.28744 -16459844.98344  21585726.0614   21585729.1664
 -22805426.54244 -17770433.48944  20781605.0904   20781607.5594
  -7409089.79244  -5773306.70744  23797195.9674   23797200.4994
 -22156897.43744 -17265085.39444  20754377.7584   20754380.1114
  -7575570.60844  -5903027.48344  23495883.0584   23495884.9934
 96  5 16  3 19  0.0000000  0  8G 6G 3G28G21G17G 1G23G26
   6627020.43244   5163910.86844  23785800.5404   23785804.0534
 -14968489.00244 -11663752.89244  22458429.3074   22458432.2714
 -21907183.445 4 -17070526.789 4  21174375.479    21174373.606
 -21168248.75944 -16494711.55944  21577211.3044   21577214.4994
 -22783497.93644 -17753346.26644  20785777.9024   20785780.2854
  -7518578.90744  -5858622.78944  23776360.7124   23776365.6144
 -22134771.18444 -17247844.15244  20758588.2364   20758590.4884
  -7491927.41344  -5837850.96644  23511799.8264   23511801.8974
 96  5 16  3 19 30.0000000  0  8G 6G 3G28G21G17G 1G23G26
   6739704.46044   5251716.59744  23807243.8584   23807246.5834
 -15044877.91644 -11723276.71444  22443892.9444   22443895.6794
 -21951728.970 4 -17105237.584 4  21165898.731    21165896.894
 -21212746.33944 -16529385.01944  21568743.7724   21568746.8804
 -22761256.11544 -17736014.98144  20790010.3224   20790012.7894
  -7627983.16244  -5943872.77544  23755541.6994   23755547.6404
 -22112399.46944 -17230411.64044  20762845.4094   20762847.6934
  -7407944.11944  -5772409.44044  23527781.3544   23527783.2884
 96  5 16  3 20  0.0000000  0  8G 6G 3G28G21G17G 1G23G26
   6852552.06844   5339649.78744  23828717.9924   23828720.4184
 -15120868.64344 -11782490.25644  22429432.3354   22429435.3744
 -21995723.524 4 -17139519.054 4  21157526.856    21157525.017
 -21256984.84944 -16563856.54144  21560325.3684   21560328.4864
 -22738680.23144 -17718423.35544  20794306.4474   20794308.7644
  -7737262.11544  -6029025.10844  23734746.5224   23734749.7574
 -22089762.16044 -17212772.20044  20767153.0664   20767155.3134
  -7323595.01644  -5706682.86644  23543832.5024   23543833.9904
 96  5 16  3 20 30.0000000  0  8G 6G 3G28G21G17G 1G23G26
   6965531.40644   5427685.64544  23850217.0924   23850220.9084
 -15196444.48044 -11841380.50744  22415050.7334   22415053.5554
 -22039171.866 4 -17173374.902 4  21149258.906    21149257.029
 -21300970.73444 -16598131.25344  21551955.0974   21551958.2314
 -22715780.94444 -17700579.73744  20798663.9974   20798666.3794
  -7846415.65844  -6114079.73444  23713975.1624   23713978.9424
 -22066872.29944 -17194935.94744  20771508.9164   20771511.2474
  -7238893.06544  -5640681.35844  23559950.8544   23559952.1244
 96  5 16  3 21  0.0000000  0  8G 6G 3G28G21G17G 1G23G26
   7078629.76044   5515814.23044  23871739.0614   23871742.8064
 -15271600.11944 -11899943.33344  22400749.1304   22400752.2464
 -22082068.757 4 -17206801.047 4  21141095.904    21141093.986
 -21344701.03544 -16632206.80344  21543633.5044   21543636.5614
 -22692571.37044 -17682494.37444  20803080.6504   20803083.1334
  -7955427.89644  -6199024.25344  23693230.8724   23693236.0254
 -22043737.32544 -17176908.68044  20775911.2954   20775913.5674
  -7153841.81744  -5574407.67244  23576135.4344   23576137.1244
 96  5 16  3 21 30.0000000  0  8G 6G 3G28G21G17G 1G23G26
   7191842.01444   5604031.57244  23893282.6114   23893286.3674
 -15346329.99144 -11958174.39644  22386528.5114   22386530.9014
 -22124416.936 4 -17239799.625 4  21133037.309    21133035.396
 -21388169.87544 -16666078.60144  21535361.5964   21535364.7024
 -22669070.80944 -17664182.24844  20807552.6354   20807554.9844
  -8064305.37744  -6283863.78544  23672512.1364   23672516.7784
 -22020360.32244 -17158692.82944  20780359.8094   20780362.1994
  -7068430.16544  -5507853.14544  23592388.6684   23592390.6424
 96  5 16  3 22  0.0000000  0  8G 6G 3G28G21G17G 1G23G26
   7305155.56244   5692327.84044  23914845.3894   23914848.0034
 -15420624.64844 -12016066.32144  22372390.6274   22372393.6844
 -22166219.278 4 -17272372.876 4  21125082.592    21125080.691
 -21431379.89544 -16699748.71744  21527139.0494   21527142.0844
 -22645292.30944 -17645653.54844  20812077.5094   20812079.9134
  -8173070.32644  -6368615.61744  23651814.6834   23651819.1734
 -21996750.29044 -17140295.39444  20784852.7054   20784855.0684
  -6982656.99344  -5441016.91444  23608710.7054   23608713.0264
 96  5 16  3 22 30.0000000  0  8G 6G 3G28G21G17G 1G23G26
   7418569.07344   5780701.99444  23936427.2304   23936431.8234
 -15494475.22544 -12073612.21944  22358337.3304   22358340.3884
 -22207462.462 4 -17304510.422 4  21117234.268    21117232.360
 -21474331.71244 -16733217.64344  21518965.6074   21518968.6634
 -22621235.37544 -17626907.88144  20816655.2914   20816657.6914
  -8281726.02044  -6453282.33544  23631138.1844   23631143.3514
 -21972896.40244 -17121707.94644  20789392.0334   20789394.2884
  -6896516.51344  -5373894.45844  23625102.7164   23625104.6854
 96  5 16  3 23  0.0000000  0  8G 6G 3G28G21G17G 1G23G26
   7532104.07044   5869170.83044  23958032.3604   23958035.4704
 -15567899.96844 -12130826.28844  22344365.0364   22344368.0834
 -22248143.361 4 -17336209.822 4  21109492.929    21109491.055
 -21517021.61044 -16766482.47944  21510841.9424   21510844.9014
 -22596901.15044 -17607946.14644  20821285.9234   20821288.3694
  -8390270.30544  -6537862.23444  23610482.7634   23610487.0274
 -21948783.30944 -17102918.52044  20793980.5714   20793982.9734
  -6810009.34244  -5306486.27944  23641564.4864   23641565.7524
 96  5 16  3 23 30.0000000  0  8G 6G 3G28G21G17G 1G23G26
   7645728.54144   5957709.37744  23979654.1914   23979657.3234
 -15640936.59844 -12187737.92744  22330466.6214   22330469.8124
 -22288298.180 4 -17367499.291 4  21101851.713    21101849.855
 -21559481.45144 -16799568.04844  21502762.0654   21502765.0674
 -22572326.00944 -17588796.68144  20825962.4984   20825965.0154
  -8498737.81144  -6622382.31444  23589842.1234   23589846.3334
 -21924442.50444 -17083951.65444  20798612.4314   20798614.8484
  -6723189.06044  -5238834.11544  23658085.9844   23658087.7214
 96  5 16  3 24  0.0000000  0  8G 6G 3G28G21G17G 1G23G26
   7759443.65144   6046318.55744  24001293.4994   24001296.6914
 -15713590.72844 -12244351.51544  22316640.9914   22316644.0154
 -22327925.101 4 -17398377.411 4  21094310.960    21094309.143
 -21601711.68344 -16832474.69144  21494725.8774   21494728.8054
 -22547500.41744 -17569452.06244  20830686.6334   20830689.0664
  -8607122.74344  -6706838.05544  23569217.0524   23569220.2134
 -21899880.04344 -17064812.07044  20803286.5104   20803288.8784
  -6636078.61744  -5170955.85844  23674662.5104   23674664.2374
 96  5 16  3 24 30.0000000  0  8G 6G 3G28G21G17G 1G23G26
   7873265.89944   6135011.22744  24022953.2464   24022956.2034
 -15785855.78744 -12300661.93244  22302889.3144   22302892.1584
 -22367018.920 4 -17428840.125 4  21086871.663    21086869.857
 -21643709.63644 -16865200.33944  21486733.8874   21486736.9514
 -22522416.98644 -17549906.52644  20835459.8674   20835462.2444
  -8715399.25244  -6791209.30344  23548612.6454   23548617.7854
 -21875089.42544 -17045494.69944  20808004.0144   20808006.3544
  -6548699.14444  -5102867.94944  23691290.1924   23691292.6754
 96  5 16  3 25  0.0000000  0  8G 6G 3G28G21G17G 1G23G26
   7987209.27344   6223798.28544  24044635.9244   24044640.0004
 -15857707.40544 -12356650.19744  22289216.5394   22289219.5624
 -22405566.297 4 -17458877.042 4  21079536.350    21079534.535
 -21685455.61544 -16897729.65644  21478789.8594   21478792.7824
 -22497060.27544 -17530148.04644  20840285.1364   20840287.4784
  -8823553.26744  -6875485.10544  23528031.6504   23528034.9914
 -21850062.50544 -17025993.19744  20812766.5404   20812768.8274
  -6461046.93644  -5034567.53744  23707969.8934   23707972.1064
 96  5 16  3 25 30.0000000  0  8G 6G 3G28G21G17G 1G23G26
   8101251.26844   6312662.20944  24066337.3584   24066340.5464
 -15929144.99544 -12412315.83644  22275622.4354   22275625.5694
 -22443572.491 4 -17488492.257 4  21072304.015    21072302.196
 -21726958.59044 -16930069.62244  21470892.1394   21470895.1654
 -22471427.96744 -17510174.81444  20845162.8264   20845165.0514
  -8931593.88044  -6959672.54244  23507472.2534   23507475.7234
 -21824813.12344 -17006318.35244  20817571.3244   20817573.7064
  -6373125.18544  -4966057.07744  23724700.8614   23724702.7144
 96  5 16  3 26  0.0000000  0  8G 6G 3G28G21G17G 1G23G26
   8215417.18844   6401622.65444  24088062.5444   24088065.7374
 -16000148.05744 -12467642.87644  22262110.9624   22262113.4934
 -22481018.450 4 -17517670.922 4  21065178.288    21065176.460
 -21768204.92344 -16962209.60244  21463043.2064   21463046.1844
 -22445490.10244 -17489963.48944  20850098.5994   20850100.8984
  -9039494.96344  -7043751.26144  23486939.3564   23486943.6714
 -21799312.46244 -16986447.70144  20822423.9454   20822426.2424
  -6284904.67944  -4897313.83544  23741488.7464   23741491.6684
 96  5 16  3 26 30.0000000  0  8G 6G 3G28G21G17G 1G23G26
   8329712.17944   6490683.71244  24109812.1114   24109815.4454
 -16070699.43144 -12522617.95944  22248685.4014   22248688.3434
 -22517890.104 4 -17546402.078 4  21058161.867    21058160.039
 -21809183.55244 -16994140.97644  21455245.2404   21455248.2284
 -22419232.48144 -17469503.00344  20855095.2234   20855097.6174
  -9147243.07544  -7127710.75044  23466435.4834   23466440.0394
 -21773534.85944 -16966361.25644  20827329.2444   20827331.5534
  -6196354.71644  -4828313.86944  23758339.1794   23758340.7344
 96  5 16  3 27  0.0000000  0  8G 6G 3G28G21G17G 1G23G26
   8444106.80844   6579822.37344  24131580.5124   24131583.6394
 -16140809.99744 -12577249.55044  22235343.7054   22235346.0994
 -22554192.148 4 -17574689.386 4  21051253.794    21051252.008
 -21849894.37944 -17025863.67244  21447498.1044   21447500.9874
 -22392657.31544 -17448795.07844  20860152.3644   20860154.7664
  -9254861.52844  -7211569.24644  23445956.3334   23445960.0344
 -21747486.11644 -16946063.52944  20832286.0954   20832288.5064
  -6107468.45144  -4759051.84644  23775253.6264   23775255.6164
 96  5 16  3 27 30.0000000  0  8G 6G 3G28G21G17G 1G23G26
   8558599.41644   6669037.41444  24153367.7794   24153371.8814
 -16210467.69644 -12631528.26344  22222088.3244   22222091.2924
 -22589917.164 4 -17602527.056 4  21044455.540    21044453.711
 -21890330.87944 -17057372.60944  21439803.3024   21439806.3864
 -22365750.25244 -17427828.53144  20865272.5864   20865274.7894
  -9362333.77544  -7295313.79444  23425504.9994   23425509.4354
 -21721169.34144 -16925556.94644  20837293.9694   20837296.2984
  -6018249.76644  -4689530.78544  23792231.4594   23792233.3144
 96  5 16  3 28  0.0000000  0  8G 6G 3G28G21G17G 1G23G26
   8673200.35744   6758336.86344  24175175.6864   24175178.4624
 -16279641.05144 -12685429.55444  22208925.1384   22208928.2354
 -22625045.913 4 -17629900.106 4  21037770.743    21037768.885
 -21930477.49944 -17088655.66344  21432163.6084   21432166.6554
 -22338496.40444 -17406591.76544  20870458.7884   20870461.1664
  -9469636.32844  -7378926.11644  23405085.8354   23405090.3374
 -21694572.90344 -16904832.44144  20842355.1044   20842357.5414
  -5928693.00644  -4619746.30144  23809273.4664   23809275.4314
 96  5 16  3 28 30.0000000  0  8G 6G 3G28G21G17G 1G23G26
   8787864.96044   6847685.93544  24196995.4654   24196998.2704
 -16348343.41344 -12738963.84544  22195851.4704   22195854.2704
 -22659596.984 4 -17656823.018 4  21031195.905    21031194.015
 -21970355.86244 -17119729.69144  21424575.0074   21424578.0634
 -22310936.62444 -17385116.60544  20875703.2614   20875705.6594
  -9576807.41044  -7462435.99644  23384691.8954   23384695.5644
 -21667736.76444 -16883921.16044  20847461.8794   20847464.2164
  -5838824.51744  -4549718.89944  23826374.9214   23826376.2164
 96  5 16  3 29  0.0000000  0  8G 6G 3G28G21G17G 1G23G26
   8902568.40144   6937065.24544  24218822.9224   24218825.9754
 -16416604.20044 -12792154.05544  22182861.8594   22182864.6654
 -22693602.426 4 -17683320.765 4  21024724.889    21024723.032
 -22010007.82644 -17150627.29844  21417029.5134   21417032.6104
 -22283114.80744 -17363437.26544  20880997.6124   20880999.8784
  -9683878.50544  -7545867.96044  23364316.8204   23364321.2744
 -21640722.77244 -16862871.29144  20852602.4254   20852604.7644
  -5748698.24344  -4479490.65444  23843525.3154   23843526.8574
 96  5 16  3 29 30.0000000  0  8G 6G 3G28G21G17G 1G23G26
   9017343.79544   7026500.63944  24240663.8344   24240666.8454
 -16484392.66344 -12844976.21944  22169962.0754   22169964.4774
 -22727043.472 4 -17709378.723 4  21018361.267    21018359.449
 -22049428.72644 -17181344.83944  21409527.9254   21409530.9434
 -22255019.67544 -17341544.95344  20886343.9464   20886346.3524
  -9790817.68244  -7629197.14044  23343967.0064   23343970.4344
 -21613525.11244 -16841678.30644  20857777.9504   20857780.3604
  -5658294.97044  -4409046.53844  23860728.5304   23860730.5164
 96  5 16  3 30  0.0000000  0  8G 6G 3G28G21G17G 1G23G26
   9132218.59344   7116013.50144  24262523.9954   24262525.8924
 -16551686.05444 -12897412.61244  22157156.6734   22157159.3594
 -22759885.393 4 -17734969.829 4  21012111.636    21012109.830
 -22088595.81144 -17211864.60944  21402074.6094   21402077.5864
 -22226626.68244 -17319420.53944  20891746.9694   20891749.3584
  -9897595.62344  -7712400.66744  23323647.8294   23323652.0124
 -21586108.73944 -16820314.89544  20862995.1194   20862997.4614
  -5567571.77744  -4338353.14944  23877992.6224   23877993.7944
 96  5 16  3 30 30.0000000  0  8G 6G 3G28G21G17G 1G23G26
   9247191.29244   7205602.60944  24284402.3964   24284404.7594
 -16618507.82644 -12949481.51644  22144440.8504   22144443.7294
 -22792139.225 4 -17760102.684 4  21005973.950    21005972.133
 -22127518.81944 -17242194.19844  21394667.7994   21394670.8024
 -22197949.48644 -17297074.66644  20897203.9874   20897206.4004
 -10004226.28044  -7795489.41744  23303356.5624   23303359.7234
 -21558483.76544 -16798788.93644  20868252.0534   20868254.4514
  -5476542.20544  -4267421.03044  23895314.9934   23895316.9494
 96  5 16  3 31  0.0000000  0  8G 6G 3G28G21G17G 1G23G26
   9362245.55644   7295255.31144  24306296.5124   24306298.3214
 -16684890.50844 -13001208.26844  22131808.5994   22131810.9964
 -22823827.782 4 -17784795.068 4  20999943.810    20999941.992
 -22166220.34944 -17272351.21944  21387303.1584   21387306.1654
 -22168992.21144 -17274510.55044  20902714.3484   20902716.6474
 -10110705.04944  -7878459.81444  23283094.2354   23283097.8934
 -21530663.42244 -16777110.74344  20873546.0194   20873548.2864
  -5385235.63144  -4196273.04744  23912690.0954   23912692.2474
 96  5 16  3 31 30.0000000  0  8G 6G 3G28G21G17G 1G23G26
   9477376.94544   7384968.09944  24328205.1384   24328208.5074
 -16750825.03844 -13052585.81444  22119261.6214   22119264.4514
 -22854940.518 4 -17809038.761 4  20994023.238    20994021.438
 -22204671.96744 -17302313.49144  21379986.0444   21379988.9904
 -22139734.61644 -17251712.41944  20908281.8704   20908284.3094
 -10217011.37044  -7961295.84144  23262864.6854   23262869.3064
 -21502609.73244 -16755250.71944  20878884.4784   20878886.8124
  -5293632.55444  -4124894.03444  23930121.5274   23930123.1594
 96  5 16  3 32  0.0000000  0  8G 6G 3G21G 1G26G28G17G23
   9592583.50644   7474739.46244  24350128.1964   24350131.5634
 -16816315.26944 -13103617.15144  22106799.3384   22106801.9974
 -22242852.49544 -17332064.51144  21372720.4634   21372723.4084
 -10323141.05344  -8043994.23244  23242668.8274   23242672.0274
  -5201745.18544  -4053293.49344  23947607.0314   23947608.2034
 -22885473.630 4 -17832830.799 4  20988212.961    20988211.172
 -22110164.75744 -17228670.96844  20913908.7914   20913911.1124
 -21474313.04844 -16733201.34944  20884269.1434   20884271.5844
 96  5 16  3 32 30.0000000  0  8G 6G 3G21G 1G26G28G17G23
   9707853.87944   7564560.54244  24372063.4024   24372066.7884
 -16881362.65044 -13154303.41944  22094421.1504   22094423.7374
 -22280764.26044 -17361606.11444  21365506.0534   21365508.9644
 -10429099.52744  -8126559.21744  23222505.6954   23222509.3464
  -5109596.93344  -3981489.66644  23965142.2644   23965143.7774
 -22915443.175 4 -17856183.692 4  20982509.935    20982508.160
 -22080298.37344 -17205398.45744  20919592.2834   20919594.6034
 -21445794.70544 -16710979.26244  20889695.9744   20889698.3484
 96  5 16  3 33  0.0000000  0  8G 6G 3G21G 1G26G28G17G23
   9823196.43244   7654437.86644  24394012.2454   24394013.5384
 -16945932.99444 -13204617.96244  22082133.8354   22082136.5364
 -22318392.69544 -17390926.95144  21358345.7054   21358348.7314
 -10534853.00244  -8208964.46144  23202381.5194   23202385.1574
  -5017167.99744  -3909467.11744  23982730.9244   23982733.2674
 -22944826.982 4 -17879080.168 4  20976918.382    20976916.596
 -22050117.05644 -17181880.54644  20925335.7174   20925338.0604
 -21417038.56344 -16688571.87644  20895168.1044   20895170.4354
 96  5 16  3 33 30.0000000  0  8G 6G 3G21G 1G26G28G17G23
   9938613.24044   7744373.05244  24415975.4274   24415976.7574
 -17010014.00544 -13254551.20144  22069939.5974   22069942.1434
 -22355737.46444 -17420026.75244  21351239.2344   21351242.0454
 -10640422.79244  -8291226.57244  23182292.0544   23182295.8674
  -4924461.23744  -3837228.08944  24000372.5634   24000374.0584
 -22973622.584 4 -17901518.301 4  20971438.768    20971436.989
 -22019623.88244 -17158119.62544  20931138.3254   20931140.5694
 -21388049.20744 -16665982.76544  20900684.5914   20900686.8754
 96  5 16  3 34  0.0000000  0  8G 6G 3G21G 1G26G28G17G23
  10054090.51744   7834355.35244  24437949.9974   24437951.8574
 -17073611.02944 -13304107.31444  22057837.4494   22057840.3294
 -22392826.08144 -17448926.95844  21344181.4304   21344184.1984
 -10745828.65044  -8373360.93844  23162234.0064   23162238.2464
  -4831500.91744  -3764791.48644  24018062.2044   24018065.3134
 -23001838.381 4 -17923504.639 4  20966069.497    20966067.724
 -21988831.43744 -17134125.50844  20936997.8514   20937000.1154
 -21358848.07444 -16643228.62544  20906241.4094   20906243.8274
 96  5 16  3 34 30.0000000  0  8G 6G 3G21G 1G26G28G17G23
  10169611.14644   7924371.46944  24459932.8974   24459935.7844
 -17136719.26344 -13353282.55044  22045828.3134   22045831.2324
 -22429676.09844 -17477641.25344  21337169.1414   21337172.0534
 -10851077.21244  -8455372.72644  23142205.8704   23142209.1064
  -4738288.15344  -3692158.17544  24035800.0114   24035802.5974
 -23029471.882 4 -17945037.235 4  20960811.022    20960809.252
 -21957754.03144 -17109909.34344  20942911.7184   20942913.8564
 -21329435.99344 -16620310.11044  20911838.3584   20911840.5534
 96  5 16  3 35  0.0000000  0  8G 6G 3G21G 1G26G28G17G23
  10285175.30144   8014421.44444  24481924.0734   24481927.2244
 -17199354.09444 -13402088.90244  22033909.3394   22033912.1774
 -22466303.08844 -17506181.75944  21330199.2044   21330202.0534
 -10956171.41344  -8537264.23244  23122207.0884   23122210.8844
  -4644824.08644  -3619329.01344  24053585.8244   24053588.6694
 -23056522.279 4 -17966115.467 4  20955663.509    20955661.739
 -21926377.53244 -17085460.11944  20948882.4494   20948884.8284
 -21299800.18444 -16597217.26444  20917477.8844   20917480.0974
 96  5 16  3 35 30.0000000  0  8G 6G 3G21G 1G26G28G17G23
  10400800.92044   8104519.34444  24503926.8774   24503929.7184
 -17261506.71644 -13450519.50444  22022082.0734   22022084.5734
 -22502689.10444 -17534534.48044  21323275.1624   21323277.8714
 -11061115.52344  -8619038.80944  23102236.9134   23102240.0724
  -4551097.89744  -3546295.63344  24071421.3754   24071423.9914
 -23082976.051 4 -17986728.798 4  20950629.535    20950627.747
 -21894687.51244 -17060766.59244  20954912.8104   20954915.1134
 -21269932.59444 -16573943.81144  20923161.5244   20923163.7604
 96  5 16  3 36  0.0000000  0  8G 6G 3G21G 1G26G28G17G23
  10516471.47444   8194652.25644  24525938.1644   24525941.3684
 -17323193.26844 -13498586.93544  22010343.5424   22010345.8264
 -22538840.32944 -17562704.25444  21316395.7554   21316398.6694
 -11165890.96744  -8700681.95144  23082298.7714   23082302.0094
  -4457109.53944  -3473057.95144  24089306.7374   24089307.7254
 -23108839.466 4 -18006882.103 4  20945707.880    20945706.079
 -21862688.83644 -17035832.55544  20961001.9484   20961004.3094
 -21239852.76244 -16550504.97444  20928885.5574   20928887.8044
 96  5 16  3 36 30.0000000  0  8G 6G 3G21G 1G26G28G17G23
  10632218.77044   8284844.93844  24547964.2164   24547966.5784
 -17384396.50244 -13546277.74944  21998696.9024   21998699.6224
 -22574732.28844 -17590672.00244  21309565.7244   21309568.5354
 -11270466.28244  -8782169.13544  23062398.6604   23062401.9654
  -4362819.96144  -3399585.53244  24107249.3484   24107250.5154
 -23134089.257 4 -18026557.262 4  20940903.004    20940901.200
 -21830347.91744 -17010631.83744  20967156.2094   20967158.4744
 -21209551.91244 -16526893.91444  20934651.5844   20934653.7204
 96  5 16  3 37  0.0000000  0  8G 6G 3G21G 1G26G28G17G23
  10748049.55944   8375102.69044  24570006.1584   24570010.3064
 -17445121.29344 -13593595.75244  21987141.4274   21987144.4884
 -22610366.77944 -17618439.12644  21302784.7984   21302787.6314
 -11374843.70444  -8863502.11844  23042536.2924   23042539.5164
  -4268224.94544  -3325875.14944  24125249.9924   24125250.9744
 -23158734.121 4 -18045761.048 4  20936213.216    20936211.425
 -21797661.68244 -16985162.04244  20973376.2204   20973378.3724
 -21179043.83044 -16503121.37244  20940457.1134   20940459.2394
 96  5 16  3 37 30.0000000  0  8G 6G 3G21G 1G26G28G17G23
  10863932.30244   8465400.94644  24592057.8664   24592060.3104
 -17505372.72044 -13640544.89744  21975675.9024   21975678.8044
 -22645756.88544 -17646015.81344  21296050.2294   21296053.1434
 -11479043.74944  -8944696.90044  23022707.5234   23022711.1034
  -4173345.65244  -3251943.23644  24143304.9684   24143307.8064
 -23182793.915 4 -18064508.937 4  20931634.802    20931632.968
 -21764659.60644 -16959446.13544  20979656.3024   20979658.4024
 -21148360.98144 -16479212.64944  20946295.7284   20946298.0184
 96  5 16  3 38  0.0000000  0  8G 6G 3G28G21G17G 1G23G26
  10979867.42544   8555739.98144  24614119.5404   24614124.0024
 -17565139.70244 -13687116.55644  21964302.5954   21964305.5174
 -23206263.586 4 -18082796.991 4  20927168.687    20927166.832
 -22680907.93244 -17673406.22344  21289361.2174   21289364.2104
 -21731335.65844 -16933479.42244  20985997.6504   20985999.8634
 -11583043.82644  -9025735.84544  23002917.0254   23002920.7614
 -21117491.51644 -16455158.50944  20952169.9284   20952172.1994
  -4078179.33644  -3177787.66144  24161414.3624   24161416.1104
 96  5 16  3 38 30.0000000  0  8G 6G 3G28G21G17G 1G23G26
  11095859.21544   8646123.18944  24636191.9484   24636195.5274
 -17624401.29644 -13733294.40544  21953025.4894   21953028.1884
 -23229138.565 4 -18100621.652 4  20922815.742    20922813.853
 -22715819.94444 -17700610.38144  21282717.7124   21282720.4864
 -21697698.72744 -16907268.82544  20992398.4804   20992400.7814
 -11686859.70544  -9106631.27644  22983161.4514   22983164.4614
 -21086410.97544 -16430939.89644  20958084.4354   20958086.6624
  -3982741.88344  -3103420.80144  24179575.5454   24179577.8174
 96  5 16  3 39  0.0000000  0  8G 6G 3G28G21G17G 1G23G26
  11211879.11644   8736528.31544  24658269.9204   24658273.1694
 -17683159.71544 -13779080.16944  21941844.1254   21941846.9234
 -23251430.471 4 -18117991.967 4  20918573.718    20918571.852
 -22750499.10744 -17727633.09144  21276118.4184   21276121.2354
 -21663783.29844 -16880841.21744  20998852.4254   20998854.7684
 -11790502.67044  -9187391.96544  22963438.7484   22963442.1354
 -21055120.92344 -16406558.02944  20964038.7054   20964040.9324
  -3887080.00144  -3028879.07244  24197779.4574   24197781.4184
 96  5 16  3 39 30.0000000  0  8G 6G 3G28G21G17G 1G23G26
  11327908.05044   8826940.44844  24680349.6204   24680353.3954
 -17741419.78644 -13824477.60744  21930757.6054   21930760.5244
 -23273135.635 4 -18134905.078 4  20914443.350    20914441.521
 -22784942.63744 -17754472.20044  21269563.9804   21269566.8444
 -21629602.58444 -16854206.89244  21005356.8384   21005359.1034
 -11893963.57944  -9268010.79444  22943750.7104   22943753.7464
 -21023616.11344 -16382008.82044  20970033.8574   20970036.1714
  -3791222.41644  -2954184.85744  24216020.5134   24216021.6774
 96  5 16  3 40  0.0000000  0  8G 6G 3G28G21G17G 1G23G26
  11443936.27444   8917352.00644  24702428.9664   24702432.8394
 -17799177.27544 -13869483.42444  21919766.7284   21919769.3704
 -23294252.801 4 -18151360.009 4  20910424.872    20910423.107
 -22819149.85444 -17781127.17344  21263054.6644   21263057.5464
 -21595168.85244 -16827375.41244  21011909.3384   21011911.5534
 -11997240.55344  -9348486.31044  22924097.6784   22924101.0814
 -20991899.11144 -16357294.26644  20976069.4074   20976071.7094
  -3695184.80244  -2879350.35244  24234296.0484   24234298.6904
 96  5 16  3 40 30.0000000  0  8G 6G 3G28G21G17G 1G23G26
  11559951.97444   9007753.81844  24724505.9634   24724506.1034
 -17856433.18544 -13914098.39844  21908871.3094   21908874.1194
 -23314774.992 4 -18167351.321 4  20906519.640    20906517.833
 -22853101.98444 -17807583.36744  21256593.7324   21256596.6264
 -21560475.52744 -16800341.65444  21018511.1974   21018513.4604
 -12100331.95644  -9428817.21944  22904480.0614   22904483.4224
 -20959968.80144 -16332413.49744  20982145.5734   20982147.7884
  -3598967.85044  -2804376.07944  24252605.6514   24252607.3214
 96  5 16  3 41  0.0000000  0  8G 6G 3G28G21G17G 1G23G26
  11675963.57344   9098152.50544  24746582.2294   24746587.5564
 -17913192.55944 -13958326.46144  21898070.2684   21898072.8064
 -23334691.670 4 -18182870.807 4  20902729.633    20902727.791
 -22886784.62044 -17833829.57344  21250184.1224   21250186.9734
 -21525504.88944 -16773091.80344  21025165.8924   21025168.1734
 -12203201.28844  -9508975.08844  22884904.7514   22884908.5194
 -20927839.14144 -16307377.39244  20988259.6104   20988261.8824
  -3502540.17544  -2729237.63444  24270955.1874   24270956.5984
 96  5 16  3 41 30.0000000  0  8G 6G 3G28G21G17G 1G23G26
  11791975.99644   9188551.77444  24768658.7344   24768664.1394
 -17969464.24644 -14002174.50744  21887362.1144   21887364.7734
 -23354005.222 4 -18197920.327 4  20899054.366    20899052.533
 -22920201.61244 -17859868.78544  21243825.1194   21243827.8964
 -21490235.13244 -16745608.87344  21031877.5254   21031879.8634
 -12305849.14544  -9588960.39044  22865371.4154   22865374.5154
 -20895517.04944 -16282191.33944  20994410.2334   20994412.6354
  -3405871.93044  -2653911.72444  24289350.5504   24289352.6774
 96  5 16  3 42  0.0000000  0  8G 6G 3G28G21G17G 1G23G26
  11908013.43844   9278970.54744  24790739.9614   24790743.2684
 -18025217.93244 -14045618.92244  21876752.5024   21876755.2804
 -23372695.415 4 -18212484.116 4  20895497.743    20895495.902
 -22953336.25744 -17885687.96844  21237519.7694   21237522.6874
 -21454618.17144 -16717855.39744  21038655.1794   21038657.3304
 -12408260.37144  -9668761.27944  22845883.0644   22845886.1884
 -20862992.73344 -16256847.71344  21000599.3984   21000601.6494
  -3308915.61244  -2578361.34644  24307800.6084   24307801.1294
 96  5 16  3 42 30.0000000  0  8G 6G 3G28G21G17G 1G23G26
  12024084.67844   9369415.62844  24812827.4604   24812830.7454
 -18080459.97344 -14088664.64744  21866240.3054   21866243.1404
 -23390764.392 4 -18226563.841 4  20892059.328    20892057.507
 -22986198.15244 -17911294.62044  21231266.2954   21231269.1984
 -21418634.04744 -16689815.82044  21045502.8394   21045504.9994
 -12510427.84944  -9748372.22544  22826441.2474   22826444.8874
 -20830275.87044 -16231354.04644  21006825.2214   21006827.5704
  -3211662.91744  -2502580.01744  24326307.2394   24326309.1784
 96  5 16  3 43  0.0000000  0  8G 6G 3G28G21G17G 1G23G26
  12140183.19644   9459882.01244  24834920.1714   24834924.1134
 -18135200.80144 -14131319.82044  21855823.5364   21855826.1844
 -23408239.048 4 -18240180.454 4  20888733.996    20888732.192
 -23018825.06644 -17936718.18344  21225057.6334   21225060.3624
 -21382303.80344 -16661506.53844  21052416.2474   21052418.4094
 -12612375.02144  -9827811.51344  22807041.3064   22807044.7104
 -20797393.09244 -16205731.09944  21013082.5224   21013084.8674
  -3114146.82444  -2426593.44944  24344864.0374   24344864.7884
 96  5 16  3 43 30.0000000  0  8G 6G 3G28G21G17G 1G23G26
  12256321.62844   9550379.48044  24857020.6634   24857022.9764
 -18189400.21244 -14173553.11344  21845509.5734   21845512.4054
 -23425104.324 4 -18253322.227 4  20885524.644    20885522.823
 -23051211.54544 -17961954.39244  21218894.6414   21218897.5984
 -21345599.38844 -16632905.69344  21059400.8204   21059402.9634
 -12714110.56844  -9907085.90644  22787681.5754   22787684.9524
 -20764308.69344 -16179951.04344  21019378.3114   21019380.8224
  -3016384.58544  -2350415.07444  24363467.5024   24363468.9154
 96  5 16  3 44  0.0000000  0  8G 6G 3G28G21G17G 1G23G26
  12372471.01544   9640885.46544  24879123.2434   24879123.8254
 -18243060.95244 -14215366.66544  21835298.1854   21835301.0904
 -23441377.503 4 -18266002.626 4  20882427.994    20882426.131
 -23083382.62044 -17987022.74844  21212772.6394   21212775.5884
 -21308551.11844 -16604036.91044  21066450.8644   21066453.2414
 -12815650.79144  -9986208.08244  22768359.1374   22768362.0634
 -20731028.37844 -16154018.32544  21025711.4184   21025713.5504
  -2918428.77444  -2274085.85344  24382107.8974   24382110.0064
 96  5 16  3 44 30.0000000  0  8G 6G 3G28G21G17G 1G23G26
  12488655.16244   9731418.49944  24901232.5044   24901235.6804
 -18296173.10644 -14256752.75144  21825191.3674   21825194.1804
 -23457047.504 4 -18278213.016 4  20879446.072    20879444.237
 -23115330.05144 -18011916.83544  21206693.2994   21206696.1284
 -21271175.37344 -16574912.94844  21073563.2334   21073565.5274
 -12916980.55744 -10065166.25244  22749076.6634   22749079.8184
 -20697524.87944 -16127911.69444  21032086.9234   21032089.1874
  -2820293.05044  -2197616.46244  24400782.4954   24400784.3954
 96  5 16  3 45  0.0000000  0  8G 6G 3G28G21G17G 1G23G26
  12604880.00844   9821983.38644  24923349.2504   24923352.7134
 -18348728.74744 -14297705.19144  21815190.4714   21815193.3164
 -23472098.481 4 -18289941.050 4  20876581.964    20876580.147
 -23147031.12744 -18036618.94944  21200660.7484   21200663.5884
 -21233475.05844 -16545536.07844  21080737.4164   21080739.6224
 -13018090.97144 -10143953.50144  22729835.7994   22729839.2794
 -20663769.32544 -16101608.66144  21038510.3704   21038512.6764
  -2721971.96944  -2121002.62244  24419492.3854   24419493.9004
 96  5 16  3 45 30.0000000  0  8G 6G 3G28G21G17G 1G23G26
  12721084.45244   9912532.30944  24945462.2824   24945465.0354
 -18400788.87844 -14338271.51844  21805283.7534   21805286.1794
 -23486574.284 4 -18301220.899 4  20873827.323    20873825.492
 -23178534.35944 -18061166.89944  21194665.8774   21194668.6964
 -21195504.48444 -16515948.61444  21087962.9374   21087965.2434
 -13119023.41344 -10222602.07144  22710628.8954   22710632.1414
 -20629807.44244 -16075144.85144  21044973.1434   21044975.3504
  -2623504.31744  -2044274.57844  24438230.0724   24438232.0814
 96  5 16  3 46  0.0000000  0  8G 6G 3G28G21G17G 1G23G26
  12837311.64444  10003098.93844  24967579.6304   24967580.5734
 -18452323.20444 -14378428.12644  21795477.0444   21795479.4844
 -23500430.134 4 -18312017.667 4  20871190.635    20871188.840
 -23209799.20244 -18085529.11444  21188716.3634   21188719.2534
 -21157240.04344 -16486132.16144  21095244.4034   21095246.7084
 -13219716.04444 -10301063.78744  22691467.6884   22691470.8214
 -20595617.05944 -16048502.98644  21051479.4064   21051481.5714
  -2524830.87244  -1967386.16844  24457006.9124   24457008.5014
 96  5 16  3 46 30.0000000  0  8G 6G 3G28G21G17G 1G23G26
  12953572.23644  10093691.58244  24989703.2144   24989706.6224
 -18503333.02744 -14418176.02944  21785770.0514   21785772.7284
 -23513658.566 4 -18322325.536 4  20868673.342    20868671.557
 -23240823.28844 -18109703.72044  21182812.6444   21182815.5384
 -21118680.17344 -16456085.50444  21102582.1684   21102584.4704
 -13320156.57544 -10379329.06844  22672354.4554   22672357.6324
 -20561222.42844 -16021701.96644  21058024.4454   21058026.6394
  -2425925.74244  -1890317.24644  24475828.0084   24475829.7054
 96  5 16  3 47  0.0000000  0  8G 6G 3G28G21G17G 1G23G26
  13069839.56144  10184289.46044  25011828.2384   25011829.5764
 -18553812.78144 -14457510.88644  21776164.0054   21776166.6294
 -23526261.218 4 -18332145.785 4  20866275.134    20866273.346
 -23271612.38144 -18133695.21244  21176953.6804   21176956.5114
 -21079809.14044 -16425796.38444  21109979.0644   21109981.3254
 -13420337.87644 -10457392.35544  22653290.4384   22653293.6224
 -20526644.40844 -15994758.04944  21064604.3854   21064606.5434
  -2326786.82844  -1813066.13044  24494693.4804   24494694.6754
 96  5 16  3 47 30.0000000  0  8G 6G 3G28G21G17G 1G23G26
  13186086.92144  10274871.85144  25033949.4584   25033953.4754
 -18603763.53444 -14496433.53444  21766658.8474   21766661.3744
 -23538256.986 4 -18341493.137 4  20863992.409    20863990.618
 -23302196.54744 -18157527.01944  21171133.7694   21171136.5944
 -21040639.15644 -16395274.31544  21117432.8344   21117434.9484
 -13520269.53044 -10535261.12044  22634274.1224   22634277.2244
 -20491918.76544 -15967699.10344  21071212.4914   21071214.6294
  -2227432.25744  -1735646.98744  24513600.0604   24513602.5974
 96  5 16  3 48  0.0000000  0  8G 6G 3G28G21G17G 1G23G26
  13302313.74444  10365438.25544  25056066.5194   25056070.4774
 -18653162.20044 -14534925.98944  21757258.6224   21757261.2534
 -23549638.445 4 -18350361.802 4  20861826.605    20861824.816
 -23332557.96544 -18181185.26344  21165356.1254   21165358.9294
 -21001168.92944 -16364518.28644  21124943.8044   21124946.0304
 -13619941.10844 -10612927.22044  22615307.1824   22615310.0464
 -20457050.07344 -15940528.68744  21077847.7604   21077849.7284
  -2127856.96744  -1658055.86344  24532548.5054   24532549.3214
 96  5 16  3 48 30.0000000  0  8G 6G 3G28G21G17G 1G23G26
  13418507.24444  10455978.63544  25078177.4274   25078181.3214
 -18702004.66744 -14572985.03444  21747964.1754   21747967.0684
 -23560405.605 4 -18358751.790 4  20859777.673    20859775.870
 -23362681.81044 -18204658.38044  21159623.7464   21159626.6514
 -20961389.62344 -16333521.41544  21132513.5064   21132515.7444
 -13719352.63444 -10690390.68244  22596389.7454   22596392.9454
 -20422034.60944 -15913243.90044  21084510.9174   21084513.1314
  -2028068.69444  -1580298.75344  24551537.6724   24551540.8004
 96  5 16  3 49  0.0000000  0  8G 6G 3G28G21G17G 1G23G26
  13534660.86844  10546487.96844  25100280.8184   25100283.8634
 -18750291.70844 -14610611.28244  21738775.3954   21738777.9904
 -23570562.745 4 -18366666.441 4  20857844.836    20857843.006
 -23392558.76644 -18227939.11344  21153938.3454   21153941.0664
 -20921290.10444 -16302275.03344  21140144.2044   21140146.3194
 -13818500.59644 -10767648.77744  22577522.5664   22577525.9264
 -20386860.09844 -15885835.17944  21091204.3984   21091206.4194
  -1928076.25844  -1502382.57144  24570565.5624   24570568.7924
 96  5 16  3 49 30.0000000  0  8G 6G 3G28G21G17G 1G23G26
  13650766.79144  10636960.10244  25122375.0224   25122378.5074
 -18798048.73044 -14647824.52844  21729687.5374   21729690.3064
 -23580128.011 4 -18374119.892 4  20856024.595    20856022.801
 -23422194.72344 -18251032.05844  21148298.8034   21148301.6664
 -20880894.18244 -16270797.68944  21147831.1824   21147833.6404
 -13917405.30344 -10844717.32644  22558701.4824   22558704.6644
 -20351538.29144 -15858311.68144  21097926.0094   21097928.1104
  -1827903.01744  -1424325.49544  24589627.9704   24589626.5484
 96  5 16  3 50  0.0000000  0  8G 6G 3G28G21G17G 1G23G26
  13766825.56144  10727395.54644  25144460.1804   25144462.8224
 -18845286.61344 -14684633.24744  21720698.5094   21720701.1024
 -23589102.810 4 -18381113.241 4  20854316.726    20854314.968
 -23451587.50144 -18273935.51444  21142705.5384   21142708.2154
 -20840194.75744 -16239083.84744  21155576.0944   21155578.3124
 -14016070.02844 -10921598.88344  22539926.2204   22539929.4024
 -20316061.38444 -15830667.33044  21104676.9594   21104679.1114
  -1727567.07544  -1346141.65244  24608721.4604   24608722.9774
 96  5 16  3 50 30.0000000  0  8G 6G 3G28G21G17G 1G23G26
  13882854.91444  10817808.03244  25166539.9214
 -18892007.91444 -14721039.43244  21711807.7494   21711810.1044
 -23597477.734 4 -18387639.157 4  20852723.028    20852721.304
 -23480731.18544 -18296644.86144  21137159.6404   21137162.3454
 -20799166.74744 -16207113.96944  21163383.4944   21163385.7984
 -14114484.93544 -10998285.77544  22521198.4284   22521201.6694
 -20280410.02444 -15802887.04544  21111461.1014   21111463.3344
  -1627064.96744  -1267828.32244  24627846.3524   24627848.3504
 96  5 16  3 51  0.0000000  0  8G 6G 3G28G21G17G 1G23G26
  13998873.64944  10908212.24444  25188617.5654   25188623.0174
 -18938208.25044 -14757039.67044  21703016.1764   21703018.6004
 -23605243.842 4 -18393690.668 4  20851245.183    20851243.450
 -23509630.06444 -18319163.45644  21131660.4114   21131663.1524
 -20757803.58244 -16174882.92644  21171254.6194   21171256.7884
 -14212639.64744 -11074769.91544  22502520.1594   22502523.5544
 -20244572.51044 -15774961.70244  21118280.7424   21118282.9444
  -1526399.50244  -1189387.69444  24647002.1784   24647004.0604
 96  5 16  3 51 30.0000000  0  8G 6G 3G28G21G17G 1G23G26
  14114877.47044  10998604.89844  25210692.1344
 -18983889.31844 -14792635.28344  21694323.3924   21694325.8824
 -23612398.400 4 -18399265.642 4  20849883.718    20849881.969
 -23538296.13044 -18341500.63344  21126205.4584   21126208.2334
 -20716114.01344 -16142397.54144  21179187.8544   21179189.9494
 -14310539.28944 -11151055.30144  22483890.5454   22483893.7104
 -20208555.37244 -15746896.39644  21125134.6094   21125136.7754
  -1425588.10844  -1110833.35144  24666185.9234   24666186.6814
 96  5 16  3 52  0.0000000  0  8G 6G 3G28G21G17G 1G23G26
  14230869.30444  11088988.08144  25232764.8384   25232767.3304
 -19029041.75744 -14827818.97644  21685731.1144   21685733.4804
 -23618936.792 4 -18404360.488 4  20848639.473    20848637.719
 -23566733.91644 -18363659.93244  21120793.8494   21120796.5234
 -20674104.97344 -16109663.21844  21187181.7764   21187184.0254
 -14408183.48344 -11227141.64244  22465309.3804   22465312.4664
 -20172366.04644 -15718696.91844  21132021.2574   21132023.5494
  -1324619.41844  -1032156.48844  24685399.7804   24685400.3744
 96  5 16  3 52 30.0000000  0  8G 6G 3G28G21G17G 1G23G26
  14346843.80944  11179357.86844  25254834.0474
 -19073670.92044 -14862594.92844  21677238.3354   21677240.8614
 -23624863.505 4 -18408978.702 4  20847511.665    20847509.918
 -23594946.44844 -18385643.70444  21115425.2644   21115428.0924
 -20631792.51244 -16076692.46544  21195233.5834   21195235.9564
 -14505571.80444 -11303028.59844  22446776.9284   22446780.0284
 -20136019.45644 -15690374.89544  21138937.7584   21138939.8424
  -1223489.69244   -953354.09744  24704644.2594   24704645.1664
 96  5 16  3 53  0.0000000  0  8G 6G 3G28G21G17G 1G23G26
  14462812.81044  11269723.35644  25276902.2984
 -19117744.77244 -14896938.17144  21668851.2884   21668853.9114
 -23630157.792 4 -18413104.117 4  20846504.193    20846502.483
 -23622910.83544 -18407434.12244  21110103.7344   21110106.5474
 -20589164.84344 -16043476.09644  21203345.4394   21203347.6864
 -14602678.96244 -11378696.46544  22428298.0344   22428301.2284
 -20099504.70944 -15661921.83644  21145886.3024   21145888.3764
  -1122179.54844   -874411.12444  24723922.7754   24723924.6034
 96  5 16  3 53 30.0000000  0  8G 6G 3G28G21G17G 1G23G26
  14578752.48044                  25298964.6974
 -19161265.08944 -14930850.08844  21660569.6254   21660572.0644
 -23634833.204 4 -18416747.297 4  20845614.492    20845612.762
 -23650637.57944 -18429039.36044  21104827.3824   21104830.1124
 -20546241.15944 -16010029.06844  21211513.5614   21211515.6614
 -14699529.00744 -11454163.99644  22409868.0314   22409871.1614
 -20062842.18344 -15633353.62444  21152862.9254   21152865.1224
  -1020692.49844   -795330.30444  24743235.0454   24743236.3084
 96  5 16  3 54  0.0000000  0  8G 6G 3G28G21G17G 1G23G26
  14694623.39944                  25321014.3204
 -19204261.15944 -14964353.50044  21652387.7484   21652390.3094
 -23638925.249 4 -18419935.902 4  20844835.778    20844834.076
 -23678159.95644 -18450485.35144  21099590.0614   21099592.9134
 -20503048.17044 -15976372.19144  21219732.8984   21219735.0084
 -14796159.14244 -11529460.16644  22391479.9514   22391483.1154
 -20026054.88144 -15604688.18744  21159863.2994   21159865.3934
   -919055.30344   -716132.50544  24762576.0804   24762578.2014
 96  5 16  3 54 30.0000000  0  8G 6G 3G28G21G17G 1G23G26
  14810480.16244                  25343060.8264
 -19246669.29844 -14997398.78544  21644317.8714   21644320.2614
 -23642373.581 4 -18422622.916 4  20844179.588    20844177.913
 -23705414.26644 -18471722.45844  21094403.7434   21094406.5694
 -20459500.50944 -15942438.94244  21228019.6974   21228021.8144
 -14892498.90244 -11604530.08544  22373146.9354   22373150.0984
 -19989070.58344 -15575869.25044  21166901.2394   21166903.3784
   -817215.05044   -636776.47244  24781955.5454   24781957.5764
 96  5 16  3 55  0.0000000  0  8G 6G 3G28G21G17G 1G23G26
  14926319.22244                  25365104.4624
 -19288484.50744 -15029982.04944  21636360.6294   21636363.0974
 -23645184.969 4 -18424813.611 4  20843644.597    20843642.945
 -23732403.93044 -18492753.34644  21089267.8824   21089270.5424
 -20415601.00744 -15908231.53644  21236373.4764   21236375.7114
 -14988564.07044 -11679386.01544  22354866.3344   22354869.5244
 -19951888.68544 -15546896.34044  21173976.6714   21173978.7414
   -715183.91244   -557271.70544  24801371.3314   24801372.6964
 96  5 16  3 55 30.0000000  0  8G 6G 3G28G21G17G 1G23G26
  15042112.53244                  25387139.2804
 -19329735.92544 -15062125.99644  21628510.6954   21628513.1864
 -23647385.074 4 -18426527.981 4  20843225.953    20843224.270
 -23759162.37244 -18513604.06944  21084175.8754   21084178.6264
 -20371363.45844 -15873760.71544  21244791.7174   21244793.9544
 -15084379.50344 -11754047.32244  22336633.2054   22336636.4674
 -19914525.67544 -15517782.29644  21181086.6504   21181088.6834
   -612991.90144   -477641.58244  24820817.8404   24820820.3474
 96  5 16  3 56  0.0000000  0  8G 6G 3G28G21G17G 1G23G26
  15157846.30044                  25409162.8344
 -19370444.90444 -15093847.26344  21620763.9704   21620766.4874
 -23648990.520 4 -18427778.977 4  20842920.446    20842918.738
 -23785701.35044 -18534283.77744  21079125.6404   21079128.4184
 -20326789.37644 -15839027.65844  21253273.7604   21253275.9804
 -15179944.59944 -11828513.56344  22318447.7184   22318450.9284
 -19876991.42144 -15488534.81444  21188229.2194   21188231.3464
   -510659.41444   -397901.98344  24840291.0154   24840292.2264
 96  5 16  3 56 30.0000000  0  8G 6G 3G28G21G17G 1G23G26
  15273568.61744                  25431183.6974
 -19410557.13744 -15125103.53544  21613130.8994   21613133.4894
 -23649954.342 4 -18428530.004 4  20842737.039    20842735.331
 -23811967.12944 -18554750.59344  21074127.3884   21074130.2314
 -20281846.03444 -15804006.86744  21261826.2954   21261828.4114
 -15275197.40344 -11902736.48244  22300321.6244   22300325.1134
 -19839247.96444 -15459124.31844  21195411.4624   21195413.5164
   -408140.16844   -318016.86744  24859799.7134   24859801.4474
 96  5 16  3 57  0.0000000  0  8G 6G 3G28G21G17G 1G23G26
  15389116.37844                  25453171.8494
 -19450227.77944 -15156015.71044  21605581.8164   21605584.5114
 -23650432.954 4 -18428902.945 4  20842645.956    20842644.256
 -23838129.37644 -18575136.74144  21069148.8664   21069151.5704
 -20236717.23244 -15768841.56644  21270413.9554   21270416.0674
 -15370296.06444 -11976839.29744  22282224.9954   22282228.1304
 -19801458.24244 -15429677.77644  21202602.5794   21202604.6504
   -305600.96644   -238116.19544  24879312.2094   24879314.2074
 96  5 16  3 57 30.0000000  0  8G 6G 3G28G21G17G 1G23G26
  15504576.07544                  25475143.1384
 -19489353.73244 -15186503.45344  21598136.3984   21598138.8294
 -23650320.437 4 -18428815.270 4  20842667.374    20842665.670
 -23864099.50444 -18595373.19144  21064206.9034   21064209.6704
 -20191294.38444 -15733447.13844  21279057.6614   21279059.8714
 -15465119.94244 -12050727.99744  22264180.6654   22264183.8104
 -19763524.19244 -15400118.77744  21209821.1974   21209823.2454
   -202934.53344   -158116.39644  24898848.8574   24898850.4514
 96  5 16  3 58  0.0000000  0  8G 6G 3G28G21G17G 1G23G26
  15620238.35344                  25497153.0984
 -19527645.78344 -15216341.39944  21590849.6384   21590852.2384
 -23649325.708 4 -18428040.156 4  20842856.663    20842854.969
 -23889596.02644 -18615240.59844  21059355.0334   21059357.8934
 -20145302.99144 -15697609.68844  21287809.5024   21287811.7584
 -15559375.87144 -12124174.12644  22246244.3464   22246247.5584
 -19725166.00644 -15370229.27744  21217120.5274   21217122.5884
    -99862.44544    -77800.49644  24918462.9124   24918464.1084
 96  5 16  3 58 30.0000000  0  7G 3G28G21G17G 1G23G26
 -19565313.78244 -15245693.07244  21583681.6084   21583684.2034
 -23647661.197 4 -18426743.134 4  20843173.399    20843171.726
 -23914837.99144 -18634909.64644  21054551.6914   21054554.4074
 -20098967.86944 -15661504.39444  21296626.7834   21296628.9354
 -15653276.92344 -12197343.72044  22228375.5784   22228378.6554
 -19686601.55644 -15340179.04844  21224459.1604   21224461.3044
      3393.80444      2658.90644  24938111.8804   24938113.8224
 96  5 16  3 59  0.0000000  0  7G 3G28G21G17G 1G23G26
 -19602481.63744 -15274655.02944  21576608.9034   21576611.1114
 -23645441.252 4 -18425013.304 4  20843595.807    20843594.180
 -23939946.46244 -18654474.67144  21049773.7734   21049776.2834
 -20052387.86044 -15625208.28244  21305490.6944   21305492.6464
 -15746945.31644 -12270332.02144  22210551.0134   22210554.2824
 -19647946.15844 -15310057.95144  21231815.0424   21231817.0054
    106715.92544     83169.62144  24957773.4324   24957772.9454
 96  5 16  3 59 30.0000000  0  8G31G 3G28G21G17G 1G23G26
        -0.24654         0.48254  23819315.9284   23819319.2504
 -19639130.99144 -15303212.95644  21569634.8294   21569637.1354
 -23642642.515 4 -18422832.470 4  20844128.399    20844126.768
 -23964882.06344 -18673904.99044  21045028.5974   21045031.3324
 -20005518.30644 -15588686.54944  21314409.6964   21314411.8604
 -15840354.68744 -12343118.48844  22192775.7964   22192778.9854
 -19609178.66244 -15279849.50344  21239192.2564   21239194.2594
    210130.15644    163752.12244  24977452.8124   24977454.9784
 96  5 16  4  0  0.0000000  0  8G31G 3G28G21G17G 1G23G26
    -83700.10244    -65220.15544  23803388.3814   23803390.9824
 -19675226.40444 -15331339.24144  21562766.1094   21562768.4864
 -23639232.271 4 -18420175.136 4  20844777.338    20844775.752
 -23989585.98944 -18693154.78544  21040327.5914   21040330.1974
 -19958327.68944 -15551914.63644  21323389.7974   21323391.9624
 -15933470.66644 -12415676.32244  22175056.3294   22175059.2564
 -19570262.16844 -15249524.95444  21246597.7124   21246599.7944
    313671.12244    244433.36744  24997156.0734   24997158.5464
 96  5 16  4  0 30.0000000  0  8G31G 3G28G21G17G 1G23G26
   -167089.99244   -130199.25944  23787519.7604   23787523.1584
 -19710783.55344 -15359046.09744  21555999.7344   21556002.1804
 -23635227.746 4 -18417054.731 4  20845539.374    20845537.761
 -24014056.67044 -18712222.82444  21035671.0264   21035673.6124
 -19910821.49444 -15514896.81844  21332429.9064   21332432.0754
 -16026312.13544 -12488020.26444  22157389.1324   22157391.7644
 -19531212.94444 -15219096.97944  21254028.4654   21254030.5744
    417333.95144    325209.58144  25016882.4764   25016883.8844
 96  5 16  4  1  0.0000000  0  8G31G 3G28G21G17G 1G23G26
   -250170.37444   -194937.19944  23771710.0054   23771715.3664
 -19745823.40444 -15386349.86644  21549331.7714   21549334.2484
 -23630643.128 4 -18413482.305 4  20846411.818    20846410.180
 -24038319.04744 -18731128.54344  21031053.9924   21031056.6734
 -19863004.70344 -15477636.97844  21341529.1244   21341531.2484
 -16118888.86844 -12560157.90444  22139772.3344   22139775.2164
 -19492058.53744 -15188587.04244  21261479.2974   21261481.4504
    521108.58444    406072.90444  25036630.1864   25036633.0704
 96  5 16  4  1 30.0000000  0  8G31G 3G28G21G17G 1G23G26
   -332898.27144   -259400.46944  23755967.4484   23755969.8994
 -19780295.34644 -15413211.10544  21542771.8834   21542774.3634
 -23625439.684 4 -18409427.676 4  20847401.981    20847400.390
 -24062337.03044 -18749843.83244  21026483.4454   21026486.0664
 -19814839.96144 -15440106.01244  21350694.5664   21350696.7664
 -16211144.79044 -12632045.55644  22122216.5654   22122219.4674
 -19452769.87044 -15157972.49244  21268955.7994   21268957.8964
    625032.91244    487052.90044  25056406.4274   25056407.2284
 96  5 16  4  2  0.0000000  0  8G31G 3G28G21G17G 1G23G26
   -415264.99544   -323582.31644  23740293.5034   23740297.7694
 -19814188.36244 -15439621.23744  21536322.3174   21536325.0134
 -23619614.327 4 -18404888.439 4  20848510.530    20848508.892
 -24086119.12244 -18768375.31444  21021957.9044   21021960.5974
 -19766328.74244 -15402305.05544  21359925.9084   21359928.0574
 -16303072.83644 -12703677.74144  22104723.2054   22104726.2374
 -19413339.70844 -15127247.68744  21276459.0634   21276461.1044
    729105.03244    568148.04744  25076210.6234   25076213.0074
 96  5 16  4  2 30.0000000  0  8G31G 3G28G21G17G 1G23G26
   -497281.75644   -387491.45144  23724686.2964   23724691.1284
 -19847510.55044 -15465586.57044  21529981.4474   21529983.5884
 -23613178.688 4 -18399873.656 4  20849735.212    20849733.508
 -24109692.52144 -18786744.18944  21017471.9634   21017474.7244
 -19717480.38044 -15364241.39344  21369221.4794   21369223.6884
 -16394688.53444 -12775066.54944  22087289.1964   22087292.1294
 -19373779.72644 -15096421.71944  21283987.0224   21283989.0554
    833296.06444    649335.86844  25096037.5474   25096039.5374
 96  5 16  4  3  0.0000000  0  8G31G 3G28G21G17G 1G23G26
   -578934.70144   -451117.11244  23709148.2904   23709151.2594
 -19880244.21044 -15491093.31044  21523752.4114   21523754.7334
 -23606125.527 4 -18394377.686 4  20851077.389    20851075.641
 -24133057.51544 -18804950.65644  21013025.7744   21013028.5334
 -19668290.72644 -15325911.79344  21378581.9394   21378584.0744
 -16485977.42644 -12846200.70144  22069917.5024   22069920.4794
 -19334078.77944 -15065485.90544  21291541.9354   21291544.0924
    937604.89344    730615.44944  25115886.9344   25115888.7754
 96  5 16  4  3 30.0000000  0  8G31G 3G28G21G17G 1G23G26
   -660225.96044   -514460.95044  23693679.1664   23693682.9104
 -19912369.76344 -15516126.19844  21517639.1394   21517641.4364
 -23598452.531 4 -18388398.735 4  20852537.520    20852535.762
 -24156189.65044 -18822975.67844  21008623.9284   21008626.5664
 -19618762.91244 -15287318.68844  21388006.7214   21388008.9874
 -16576944.47344 -12917084.06644  22052607.0604   22052610.1424
 -19294210.94944 -15034420.05544  21299128.5194   21299130.7134
   1042023.02444    811980.21844  25135756.9934   25135760.0884
 96  5 16  4  4  0.0000000  0  8G31G 3G28G21G17G 1G23G26
   -741140.13144   -577510.93644  23678281.8834   23678284.2784
 -19943892.09244 -15540689.04244  21511640.6184   21511642.8414
 -23590161.683 4 -18381938.344 4  20854115.244    20854113.480
 -24179088.09744 -18840818.60544  21004266.3974   21004269.0644
 -19568915.15544 -15248476.27244  21397492.4174   21397494.5324
 -16667609.51644 -12987732.11044  22035354.0014   22035356.8764
 -19254162.32244 -15003213.32244  21306749.4064   21306751.3684
   1146538.42544    893420.80744  25155645.6814   25155647.6834
 96  5 16  4  4 30.0000000  0  8G31G 3G28G21G17G 1G23G26
   -821674.73544   -640265.16344  23662956.5334   23662959.7494
 -19974826.80044 -15564794.00544  21505753.9644   21505756.3034
 -23581265.113 4 -18375005.962 4  20855808.198    20855806.461
 -24201767.15844 -18858490.58744  20999950.7044   20999953.2974
 -19518773.06744 -15209404.51044  21407034.1494   21407036.4484
 -16757987.99444 -13058156.85544  22018155.4964   22018158.3994
 -19213958.07444 -14971885.32644  21314400.0334   21314402.1504
   1251145.95944    974933.14544  25175551.8564   25175553.4554
 96  5 16  4  5  0.0000000  0  8G31G 3G28G21G17G 1G23G26
   -901806.95944   -702705.83844  23647707.9484   23647711.3294
 -20005168.64244 -15588436.99044  21499980.0974   21499982.6004
 -23571754.683 4 -18367595.241 4  20857617.958    20857616.248
 -24224216.82144 -18875983.81744  20995678.6704   20995681.2504
 -19468334.53144 -15170101.74944  21416632.3414   21416634.4914
 -16848062.56644 -13128344.79644  22001014.9154   22001017.9934
 -19173590.63944 -14940430.17544  21322081.7954   21322083.8654
   1355866.39044   1056533.47344  25195479.4334   25195479.9524
 96  5 16  4  5 30.0000000  0  8G31G 3G28G21G17G 1G23G26
   -981526.74544   -764825.13644  23632537.6704   23632540.8454
 -20034911.09744 -15611612.91944  21494320.1614   21494322.4294
 -23561617.881 4 -18359696.431 4  20859546.916    20859545.212
 -24246426.85544 -18893290.31544  20991452.2334   20991454.8384
 -19417595.38344 -15130564.74944  21426287.6584   21426289.7874
 -16937818.33644 -13198284.32444  21983934.9284   21983937.6114
 -19133051.85444 -14908841.50244  21329796.0654   21329798.1664
   1460714.22444   1138233.09044  25215431.2334   25215432.9114
 96  5 16  4  6  0.0000000  0  8G31G 3G28G21G17G 1G23G26
  -1060840.79644   -826628.27644  23617444.4914   23617447.6224
 -20064071.69944 -15634335.45244  21488771.0894   21488773.5394
 -23550858.944 4 -18351312.839 4  20861594.254    20861592.539
 -24268421.60044 -18910429.04944  20987266.8464   20987269.5264
 -19366554.61044 -15090792.71644  21436000.3964   21436002.4054
 -17027248.73344 -13267970.31044  21966916.8784   21966919.7634
 -19092368.57944 -14877140.23944  21337537.8654   21337539.9014
   1565691.46444   1220033.52744  25235407.8064   25235408.2774
 96  5 16  4  6 30.0000000  0  8G31G 3G28G21G17G 1G23G26
  -1139784.78944   -888143.06444  23602421.9324   23602425.2394
 -20092671.05644 -15656620.65444  21483328.7654   21483331.0804
 -23539491.682 4 -18342455.228 4  20863757.376    20863755.643
 -24290202.14344 -18927400.88044  20983122.0694   20983124.6414
 -19315201.45244 -15050777.26444  21445772.5714   21445774.8664
 -17116343.43644 -13337394.72944  21949962.7084   21949965.5594
 -19051563.34344 -14845343.94044  21345302.7844   21345304.6814
   1670788.48044   1301927.30244  25255407.0084   25255408.8794
 96  5 16  4  7  0.0000000  0  8G31G 3G28G21G17G 1G23G26
  -1218352.62344   -949364.74344  23587471.1854   23587474.4084
 -20120684.85944 -15678449.58244  21477997.8944   21478000.1674
 -23527498.963 4 -18333110.252 4  20866039.507    20866037.785
 -24311746.50744 -18944188.67444  20979022.3334   20979024.9954
 -19263499.25644 -15010489.83244  21455611.0914   21455613.1824
 -17205065.65344 -13406528.89644  21933079.3914   21933082.3894
 -19010606.45444 -14813429.47144  21353096.5134   21353098.4724
   1776008.32144   1383916.82144  25275429.6424   25275431.2744
 96  5 16  4  7 30.0000000  0  8G31G 3G28G21G17G 1G23G26
  -1296557.27044  -1010303.39744  23572589.2634   23572592.6304
 -20148114.75844 -15699823.52644  21472778.1964   21472780.5754
 -23514889.766 4 -18323284.905 4  20868438.968    20868437.265
 -24333076.43044 -18960809.37844  20974963.3694   20974965.9854
 -19211443.18244 -14969926.65244  21465517.0194   21465519.0644
 -17293426.34544 -13475381.35844  21916264.8214   21916267.7064
 -18969509.94644 -14781406.20944  21360916.8924   21360918.8674
   1881321.03644   1465978.68944  25295469.9214   25295472.0944
 96  5 16  4  8  0.0000000  0  8G31G 3G28G21G17G 1G23G26
  -1374397.38444  -1070958.01844  23557776.7844   23557779.3244
 -20174962.73444 -15720744.02044  21467669.3004   21467671.5494
 -23501669.700 4 -18312983.553 4  20870954.643    20870952.974
 -24354196.92644 -18977266.88944  20970944.2414   20970946.8084
 -19159031.99844 -14929086.76644  21475490.6094   21475492.6854
 -17381422.97844 -13543950.13344  21899519.6014   21899522.4454
 -18928277.36444 -14749276.91144  21368763.2204   21368765.2874
   1986709.10644   1548099.26644  25315524.5954   25315526.7724
 96  5 16  4  8 30.0000000  0  8G31G 3G28G21G17G 1G23G26
  -1451875.49944  -1131330.55344  23543033.2074   23543036.6964
 -20201232.27244 -15741213.77944  21462670.3674   21462672.5484
 -23487854.221 4 -18302218.246 4  20873583.645    20873581.994
 -24375111.64844 -18993564.05144  20966964.3104   20966966.8194
 -19106289.18044 -14887988.46944  21485527.2284   21485529.2034
 -17469073.26244 -13612249.02444  21882840.2624   21882843.0314
 -18886910.29244 -14717042.81644  21376635.1834   21376637.1514
   2092150.78644   1630261.61144  25335589.4384   25335592.3544
 96  5 16  4  9  0.0000000  0  8G31G 3G28G21G17G 1G23G26
  -1528960.96044  -1191397.12044  23528364.2784   23528367.1764
 -20226897.97944 -15761213.03044  21457786.2694   21457788.5314
 -23473431.653 4 -18290979.885 4  20876328.180    20876326.507
 -24395824.59244 -19009703.98744  20963022.6394   20963025.2834
 -19053225.68644 -14846640.28844  21495624.9994   21495627.0004
 -17556382.98344 -13680282.54844  21866225.8154   21866228.6954
 -18845397.12544 -14684694.88944  21384534.7964   21384536.7854
   2197660.60444   1712477.07344  25355667.2354   25355670.0964
 96  5 16  4  9 30.0000000  0  8G31G 3G28G21G17G 1G23G26
  -1605641.45944  -1251148.14144  23513772.5164   23513774.6124
 -20251962.58644 -15780743.88544  21453016.5804   21453018.7464
 -23458395.736 4 -18279263.589 4  20879189.438    20879187.696
 -24416321.06244 -19025675.24244  20959122.3164   20959124.7814
 -18999849.75544 -14805048.65344  21505782.0624   21505784.0314
 -17643366.73544 -13748062.06344  21849673.3594   21849676.2334
 -18803742.07044 -14652236.39144  21392461.4374   21392463.4464
   2303261.06844   1794763.15144  25375762.3114   25375765.6914
 96  5 16  4 10  0.0000000  0  8G31G 3G28G21G17G 1G23G26
  -1681920.62344  -1310586.42944  23499257.1134   23499260.4584
 -20276438.32244 -15799815.87644  21448358.9994   21448361.2544
 -23442754.134 4 -18267075.333 4  20882165.975    20882164.197
 -24436586.74844 -19041466.66444  20955265.8374   20955268.4854
 -18946174.83144 -14763224.03944  21515996.0234   21515997.8084
 -17730030.30244 -13815592.08544  21833181.8024   21833184.6464
 -18761956.43044 -14619676.14144  21400413.0524   21400415.1244
   2408963.73944   1877128.91244  25395876.7474   25395880.8154
 96  5 16  4 10 30.0000000  0  8G31G 3G28G21G17G 1G23G26
  -1757793.04544  -1369707.75944  23484818.9524   23484822.2454
 -20300325.47644 -15818429.23444  21443813.4294   21443815.6624
 -23426509.641 4 -18254417.286 4  20885257.167    20885255.451
 -24456623.01544 -19057079.31944  20951453.0614   20951455.5384
 -18892193.60844 -14721160.74744  21526268.2834   21526270.3454
 -17816387.82644 -13882883.63144  21816748.4814   21816751.4694
 -18720045.47244 -14587018.24044  21408388.4914   21408390.6134
   2514778.64244   1959582.08944  25416012.6684   25416015.3244
 96  5 16  4 11  0.0000000  0  8G31G 3G28G21G17G 1G23G26
  -1833248.71244  -1428504.34444  23470460.1994   23470463.5404
 -20323618.76144 -15836579.83944  21439380.8834   21439383.0014
 -23409651.284 4 -18241280.907 4  20888465.201    20888463.530
 -24476428.24844 -19072511.94444  20947684.2184   20947686.7764
 -18837877.27544 -14678836.32944  21536604.3534   21536606.2714
 -17902416.01444 -13949918.54944  21800377.7864   21800380.6934
 -18678001.24144 -14554256.48844  21416389.2274   21416391.2864
   2620712.11144   2042127.69044  25436171.1674   25436174.2744
 96  5 16  4 11 30.0000000  0  8G31G 3G28G21G17G 1G23G26
  -1908284.73344  -1486973.95244  23456181.4154   23456184.6084
 -20346323.10444 -15854271.52944  21435060.3444   21435062.6224
 -23392183.554 4 -18227669.692 4  20891789.192    20891787.578
 -24496009.53944 -19087770.07444  20943957.9884   20943960.5404
 -18783210.98544 -14636239.22544  21547006.9924   21547009.1414
 -17988098.87644 -14016684.38544  21784072.8524   21784075.4264
 -18635832.68144 -14521397.85844  21424413.6514   21424415.7354
   2726737.95144   2124745.21444  25456347.2664   25456350.3384
 96  5 16  4 12  0.0000000  0  8G31G 3G28G21G17G 1G23G26
  -1982892.48844  -1545109.82944  23441984.1194   23441987.2474
 -20368431.20344 -15871498.61444  21430853.3784   21430855.5254
 -23374108.198 4 -18213585.000 4  20895228.813    20895227.204
 -24515380.81644 -19102864.55944  20940271.7444   20940274.1664
 -18728193.72344 -14593368.63644  21557476.4344   21557478.7234
 -18073422.81044 -14083170.53644  21767836.2384   21767838.9654
 -18593532.30244 -14488436.51544  21432463.1714   21432465.1524
   2832835.92144   2207418.93444  25476537.0684   25476537.5934
 96  5 16  4 12 30.0000000  0  8G31G 3G28G21G17G 1G23G26
  -2057075.23244  -1602914.54744  23427867.4844   23427869.7524
 -20389950.00244 -15888266.50844  21426758.4954   21426760.7384
 -23355430.747 4 -18199031.144 4  20898782.975    20898781.404
 -24534559.79244 -19117809.19944  20936622.1634   20936624.5944
 -18672838.56244 -14550234.74944  21568010.1504   21568012.2254
 -18158383.85244 -14149373.91244  21751668.5914   21751671.4624
 -18551103.97644 -14455375.47344  21440536.9534   21440538.8404
   2938978.09444   2290127.20044  25496735.2274   25496736.4194
 96  5 16  4 13  0.0000000  0  8G31G 3G28G21G17G 1G23G26
  -2130833.95344  -1660388.85644  23413831.6744   23413834.2244
 -20410872.22844 -15904569.54044  21422777.2004   21422779.4594
 -23336148.406 4 -18184005.942 4  20902452.307    20902450.697
 -24553538.80944 -19132598.02744  20933010.5294   20933013.0934
 -18617152.80244 -14506843.24944  21578606.8404   21578608.8414
 -18242967.90244 -14215283.52844  21735572.7734   21735575.5504
 -18508545.50144 -14422213.01144  21448635.5524   21448637.6424
   3045153.33044   2372861.13044  25516939.6364
 96  5 16  4 13 30.0000000  0  8G31G 3G28G21G17G 1G23G26
  -2204160.88544  -1717526.70244  23399878.0204   23399881.1234
 -20431172.89044 -15920388.23844  21418914.0724   21418916.4804
 -23316250.787 4 -18168501.307 4  20906238.716    20906237.139
 -24572290.49644 -19147209.71844  20929442.2264   20929444.6484
 -18561145.65044 -14463201.31544  21589264.6634   21589266.6504
 -18327170.74744 -14280896.10344  21719549.5324   21719552.2704
 -18465847.57544 -14388941.88644  21456760.7044   21456762.7494
   3151382.64844   2455637.21844  25537154.5664   25537151.3784
 96  5 16  4 14  0.0000000  0  8G31G 3G28G21G17G 1G23G26
  -2277064.70744  -1774334.84144  23386004.9014   23386007.8034
 -20450844.37944 -15935716.67544  21415170.6564   21415172.8594
 -23295728.966 4 -18152510.284 4  20910143.896    20910142.283
 -24590789.53244 -19161624.54344  20925921.9654   20925924.5154
 -18504813.52344 -14419306.14944  21599984.3114   21599986.5504
 -18410989.38444 -14346209.29544  21703599.3634   21703602.1804
 -18422999.66444 -14355553.89444  21464914.4014   21464916.3294
   3257698.57744                  25557385.6914
 96  5 16  4 14 30.0000000  0  8G31G 3G28G21G17G 1G23G26
  -2349591.79144  -1830849.42244  23372203.3494   23372206.9734
 -20469914.25744 -15950576.32144  21411541.8244   21411544.1074
 -23274619.008 4 -18136060.974 4  20914161.006    20914159.317
 -24609063.98944 -19175864.36544  20922444.4224   20922446.8394
 -18448182.36244 -14375177.97844  21610760.7934   21610762.8824
 -18494454.74444 -14411247.20844  21687716.4204   21687719.2214
 -18380043.49844 -14322081.55044  21473088.6624   21473090.5264
   3364074.27344   2621371.00144  25577628.4104   25577631.5584
 96  5 16  4 15  0.0000000  0  8G31G 3G28G21G17G 1G23G26
  -2421771.31244  -1887093.18544  23358468.1004   23358471.0524
 -20488410.24944 -15964988.79544  21408022.0954   21408024.4244
 -23252955.070 4 -18119179.984 4  20918283.517    20918281.805
 -24627149.19444 -19189956.72144  20919002.9114   20919005.3644
 -18391274.96044 -14330834.54744  21621589.9634   21621592.2834
 -18577602.54844 -14476037.67644  21671893.8524   21671896.5134
 -18337016.57744 -14288554.06544  21481276.3944   21481278.2214
   3470487.93844   2704290.75344  25597878.3134
 96  5 16  4 15 30.0000000  0  7G31G 3G28G21G17G 1G23
  -2493541.43744  -1943017.93744  23344810.6034   23344813.2924
 -20506285.60344 -15978917.59644  21404620.4944   21404622.9504
 -23230677.323 4 -18101820.702 4  20922522.814    20922521.123
 -24644995.42144 -19203862.87644  20915606.8124   20915609.4694
 -18334033.17844 -14286230.56344  21632482.7124   21632484.7264
 -18660369.13844 -14540531.09244  21656143.8144   21656146.6474
 -18293856.21044 -14254922.60044  21489489.5044   21489491.3874
 96  5 16  4 16  0.0000000  0  8G31G 3G28G21G17G 1G23G 9
  -2564897.49344  -1998620.04144  23331232.0384   23331233.5284
 -20523573.48844 -15992388.71044  21401330.6234   21401333.0794
 -23207800.549 4 -18083994.658 4  20926876.125    20926874.464
 -24662636.22444 -19217608.92644  20912249.8984   20912252.3514
 -18276459.48744 -14241367.94744  21643438.5034   21643440.3964
 -18742772.14344 -14604741.20044  21640462.9944   21640465.7964
 -18250576.49044 -14221198.13544  21497725.2924   21497727.1974
        -1.09954        -0.86054  23916299.8184   23916299.6954
 96  5 16  4 16 30.0000000  0  8G31G 3G28G21G17G 1G23G 9
  -2635790.37544  -2053861.21244  23317741.5894   23317743.7594
 -20540241.62644 -16005376.86944  21398158.7304   21398161.1434
 -23184293.888 4 -18065677.783 4  20931349.312    20931347.593
 -24680055.16344 -19231182.10944  20908935.2044   20908937.6504
 -18218514.93044 -14196216.35044  21654465.0184   21654467.1494
 -18824778.91944 -14668642.55944  21624857.6844   21624860.2274
 -18207139.80044 -14187351.35244  21505991.0764   21505993.0594
    -19112.37644    -14892.75144  23912662.7894   23912665.0194
 96  5 16  4 17  0.0000000  0  8G31G 3G28G21G17G 1G23G 9
  -2706240.93544  -2108757.73244  23304335.2004   23304337.8144
 -20556330.94044 -16017913.99844  21395097.0734   21395099.6624
 -23160188.747 4 -18046894.560 4  20935936.366    20935934.652
 -24697287.98544 -19244610.26344  20905655.8374   20905658.2064
 -18160234.10644 -14150802.72344  21665555.4094   21665557.4904
 -18906416.07644 -14732255.90544  21609322.6684   21609325.1974
 -18163573.28344 -14153403.40744  21514281.4984   21514283.3854
    -37812.54444    -29464.28444  23909104.3174   23909103.1204
 96  5 16  4 17 30.0000000  0  8G31G 3G28G21G17G 1G23G 9
  -2776290.15344  -2163341.52144  23291005.1594   23291008.0024
 -20571869.01844 -16030021.59444  21392140.3644   21392142.7434
 -23135518.581 4 -18027671.057 4  20940630.960    20940629.250
 -24714362.04644 -19257914.70444  20902406.8574   20902409.2784
 -18101656.85044 -14105158.11444  21676702.4904   21676704.5154
 -18987713.52244 -14795604.53944  21593852.2614   21593854.8614
 -18119897.10244 -14119370.00944  21522592.7544   21522594.7604
    -56120.41444    -43730.17144  23905620.1754
 96  5 16  4 18  0.0000000  0  8G31G 3G28G21G17G 1G23G 9
  -2845900.26144  -2217583.13144  23277758.6724   23277761.8684
 -20586795.79844 -16041652.85344  21389299.9654   21389302.4324
 -23110244.977 4 -18007977.343 4  20945440.376    20945438.689
 -24731229.58544 -19271058.22044  20899197.0464   20899199.5414
 -18042740.02444 -14059248.89944  21687913.9904   21687916.0864
 -19068623.63944 -14858651.35944  21578455.4434   21578457.8344
 -18076079.15744 -14085226.14544  21530930.9844   21530933.0594
    -73987.86044                  23902220.0284
 96  5 16  4 18 30.0000000  0  8G31G 3G28G21G17G 1G23G 9
  -2915047.45844  -2271464.02444  23264600.2704   23264603.6324
 -20601063.54944 -16052770.58244  21386584.8724   21386587.2864
 -23084332.522 4 -17987785.823 4  20950371.360    20950369.664
 -24747845.49044 -19284005.66044  20896035.1184   20896037.4854
 -17983452.50044 -14013050.83244  21699196.0294   21699198.1594
 -19149092.20944 -14921354.11744  21563142.8644   21563145.5334
 -18032085.46144 -14050945.33244  21539302.6794   21539304.8244
    -91360.60544                  23898914.3234
 96  5 16  4 19  0.0000000  0  8G31G 3G28G21G17G 1G23G 9
  -2983751.65444  -2324999.73544  23251526.3104   23251528.9254
 -20614697.45444 -16063394.40644  21383990.3954   21383992.7334
 -23057809.389 4 -17967118.458 4  20955418.560    20955416.829
 -24764233.57644 -19296775.57744  20892916.5214   20892918.8554
 -17923834.73544 -13966595.43544  21710540.9544   21710543.0334
 -19229143.19744 -14983731.48244  21547909.6424   21547912.5384
 -17987952.83744 -14016556.26544  21547700.8414   21547702.8454
   -108239.11944    -84344.02444  23895702.5114   23895704.5974
 96  5 16  4 19 30.0000000  0  8G31G 3G28G21G17G 1G23G 9
  -3052025.14944  -2378199.83644  23238534.2914   23238537.5204
 -20627715.04244 -16073537.97844  21381513.2804   21381515.4424
 -23030700.934 4 -17945994.991 4  20960577.149    20960575.390
 -24780420.11744 -19309388.44644  20889836.2784   20889838.6664
 -17863911.95844 -13919902.36544  21721943.8504   21721946.0174
 -19308805.34444 -15045805.86044  21532750.4474   21532753.2084
 -17943709.42944 -13982080.87444  21556120.1604   21556122.2934
   -124636.97244    -97128.91644  23892581.9754   23892584.5504
 96  5 16  4 20  0.0000000  0  8G31G 3G28G21G17G 1G23G 9
  -3119864.74444  -2431061.82844  23225624.9214   23225627.7734
 -20640133.55144 -16083214.73744  21379150.1664   21379152.3694
 -23003019.412 4 -17924424.978 4  20965844.769    20965843.036
 -24796423.89044 -19321858.89344  20886790.8974   20886793.1864
 -17803682.59844 -13872970.39744  21733405.2024   21733407.3014
 -19388095.41544 -15107590.30944  21517662.0684   21517664.5324
 -17899379.64944 -13947538.17644  21564555.8824   21564557.7574
   -140566.92344   -109536.81744  23889550.6004   23889552.9474
 96  5 16  4 20 30.0000000  0  8G31G 3G28G21G17G 1G23G 9
  -3187240.75244  -2483562.58444  23212803.5644   23212806.7224
 -20651940.82644 -16092415.20944  21376903.3794   21376905.4874
 -22974746.795 4 -17902394.374 4  20971224.874    20971223.162
 -24812231.71844 -19334176.65744  20883782.7434   20883785.0314
 -17743119.44944 -13825778.33744  21744929.8824   21744931.8054
 -19467003.69944 -15169077.25744  21502646.2594   21502648.7304
 -17854945.55544 -13912914.19744  21573011.4184   21573013.3014
   -156014.44644   -121570.27444  23886611.2274   23886615.6784
 96  5 16  4 21  0.0000000  0  8G31G 3G28G21G17G 1G23G 9
  -3254165.59344  -2535711.78444  23200068.1654   23200071.7954
 -20663156.12744 -16101154.40444  21374769.0724   21374771.3904
 -22945903.404 4 -17879919.016 4  20976713.601    20976711.870
 -24827862.53544 -19346356.49544  20880808.3014   20880810.6554
 -17682238.50944 -13778338.64944  21756515.2074   21756517.3664
 -19545558.17844 -15230288.51644  21487697.8644   21487700.4074
 -17810420.84444 -13878219.60844  21581484.1534   21581486.1904
   -170998.52044   -133246.32044  23883759.8704
 96  5 16  4 21 30.0000000  0  8G31G 3G28G21G17G 1G23G 9
  -3320658.32844  -2587524.25444  23187415.1244   23187417.8684
 -20673781.87044 -16109434.20144  21372747.0274   21372749.3654
 -22916494.127 4 -17857002.705 4  20982310.009    20982308.278
 -24843312.65044 -19358395.52344  20877868.2314   20877870.5034
 -17621037.00944 -13730649.17244  21768161.3114   21768163.4494
 -19623762.17844 -15291226.67044  21472816.0864   21472818.6954
 -17765798.06344 -13843448.60244  21589975.4654   21589977.5214
   -185529.60844   -144569.29944  23880994.6994   23880997.4464
 96  5 16  4 22  0.0000000  0  8G31G 3G28G21G17G 1G23G 9
  -3386690.85444  -2638978.13844  23174849.3464   23174852.2084
 -20683780.08144 -16117225.01744  21370844.3364   21370846.6634
 -22886479.964 4 -17833615.063 4  20988021.515    20988019.816
 -24858529.86844 -19370253.07244  20874972.4984   20874974.7644
 -17559471.95044 -13682676.39944  21779876.6654   21779878.9664
 -19701564.60444 -15351851.91144  21458010.6624   21458013.2914
 -17721032.72444 -13808566.51144  21598494.0824   21598495.9364
   -199555.04844   -155498.21344  23878325.3474   23878326.8094
 96  5 16  4 22 30.0000000  0  8G31G 3G28G21G17G 1G23G 9
  -3452258.29844  -2690069.62144  23162372.0874   23162374.3264
 -20693156.02044 -16124530.94644  21369060.1934   21369062.6184
 -22855868.286 4 -17809761.819 4  20993846.737    20993845.014
 -24873512.76944 -19381928.03844  20872121.2444   20872123.6494
 -17497558.79944 -13634432.38844  21791658.3534   21791660.5854
 -19778953.70444 -15412155.08144  21443283.9414   21443286.7004
 -17676118.70144 -13773568.56344  21607040.8604   21607042.8744
   -213083.77844   -166040.10144  23875750.9174   23875753.2574
 96  5 16  4 23  0.0000000  0  8G31G 3G28G21G17G 1G23G 9
  -3517347.46344  -2740788.41544  23149986.0854   23149988.6814
 -20701909.16944 -16131351.58644  21367394.5894   21367396.9314
 -22824653.691 4 -17785438.772 4  20999786.663    20999784.936
 -24888247.83144 -19393409.88744  20869317.2204   20869319.4694
 -17435307.41544 -13585924.82144  21803504.4824   21803506.5684
 -19855913.49344 -15472123.72244  21428638.9484   21428641.5194
 -17631039.48144 -13738441.89144  21615619.0524   21615621.2424
   -226094.57544   -176178.35044  23873275.2294   23873276.4674
 96  5 16  4 23 30.0000000  0  8G31G 3G28G21G17G 1G23G 9
  -3581997.30144  -2791164.88644  23137683.5944   23137686.3694
 -20710087.34244 -16137724.18744  21365838.3504   21365840.6404
 -22792875.336 4 -17760676.433 4  21005833.894    21005832.174
 -24902776.55044 -19404730.94544  20866552.4584   20866554.7384
 -17372759.05644 -13537185.84144  21815407.1224   21815409.1334
 -19932468.51944 -15531776.96644  21414071.0194   21414073.6654
 -17585847.04244 -13703226.99144  21624219.0454   21624221.0224
   -238628.25244   -185944.84544  23870890.2534   23870890.9914
 96  5 16  4 24  0.0000000  0  8G31G 3G28G21G17G 1G23G 9
  -3646194.15944  -2841188.37544  23125467.4814   23125470.2264
 -20717697.51344 -16143654.18744  21364390.2414   21364392.4544
 -22760536.132 4 -17735477.065 4  21011987.843    21011986.167
 -24917104.92344 -19415895.88544  20863825.9344   20863828.1994
 -17309918.96944 -13488219.54344  21827365.2164   21827367.1904
 -20008617.55344 -15591113.84944  21399580.3434   21399583.0974
 -17540558.83344 -13667937.46744  21632837.0524   21632838.8954
   -250688.29644   -195342.25244  23868595.0504   23868597.9554
 96  5 16  4 24 30.0000000  0  8G31G 3G28G21G17G 1G23G 9
  -3709918.92444  -2890843.99344  23113341.1664   23113343.2354
 -20724728.23344 -16149132.67844  21363052.3824   21363054.7344
 -22727625.105 4 -17709832.123 4  21018250.638    21018248.958
 -24931233.68944 -19426905.28944  20861137.3004   20861139.5874
 -17246780.87444 -13439021.02844  21839379.9674   21839381.8324
 -20084347.72344 -15650124.34744  21385169.4234   21385171.9564
 -17495173.64144 -13632572.37144  21641473.6154   21641475.4954
   -262283.42344   -204377.37644  23866388.4564   23866390.7964
 96  5 16  4 25  0.0000000  0  8G31G 3G28G21G17G 1G23G 9
  -3773148.66444  -2940113.87444  23101308.8894   23101311.5294
 -20731130.17044 -16154121.20944  21361833.9404   21361836.3154
 -22694098.725 4 -17683707.685 4  21024630.473    21024628.793
 -24945126.79144 -19437731.06144  20858493.4244   20858495.8674
 -17183307.29844 -13389561.10144  21851458.5164   21851460.8794
 -20159620.88044 -15708778.73144  21370845.2924   21370847.9134
 -17449672.17844 -13597116.67944  21650132.2814   21650134.0094
   -273359.14044   -213007.76444  23864280.8654   23864282.9654
 96  5 16  4 25 30.0000000  0  8G31G 3G28G21G17G 1G23G 9
  -3835957.39444  -2989055.70144  23089356.7914   23089358.8894
 -20736958.73244 -16158662.94944  21360724.7884   21360727.0574
 -22660024.076 4 -17657156.019 4  21031114.662    21031112.965
 -24958859.27344 -19448431.68044  20855880.1674   20855882.4214
 -17119557.68044 -13339886.07644  21863589.6364   21863591.8244
 -20234509.61444 -15767133.56644  21356594.4304   21356596.9634
 -17404131.22644 -13561630.21644  21658798.3594   21658800.1394
   -283984.37244   -221287.13344  23862258.9434   23862259.9384
 96  5 16  4 26  0.0000000  0  8G31G 3G28G21G17G 1G23G 9
  -3900996.33244  -3039735.34544  23076980.2544   23076982.5754
 -20744853.07344 -16164814.38744  21359222.5494   21359224.8534
 -22628060.501 4 -17632249.343 4  21037197.164    21037195.477
 -24975089.15844 -19461078.32244  20852791.7674   20852794.1004
 -17058189.42044 -13292066.65944  21875267.7044   21875269.9834
 -20311681.36744 -15827267.37344  21341909.1554   21341911.5274
 -17361201.44544 -13528178.42844  21666967.5574   21666969.5044
   -296805.13344   -231277.30044  23859819.2994   23859819.8904
 96  5 16  4 26 30.0000000  0  8G31G 3G28G21G17G 1G23G 9
  -3965931.63144  -3090334.24044  23064623.5204   23064626.6244
 -20752474.82944 -16170753.42044  21357772.1864   21357774.6854
 -22595875.136 4 -17607169.847 4  21043321.849    21043320.172
 -24991479.87744 -19473850.29544  20849672.7274   20849675.0714
 -16996860.23244 -13244277.68144  21886938.3024   21886940.3694
 -20388803.72644 -15887362.69344  21327233.2754   21327235.7544
 -17318542.08644 -13494937.35644  21675085.4384   21675087.3754
   -309471.15144   -241146.88244  23857409.2634   23857409.4954
 96  5 16  4 27  0.0000000  0  8G31G 3G28G21G17G 1G23G 9
  -4030137.43144  -3140364.68644  23052405.3704   23052408.1534
 -20759209.13744 -16176000.93944  21356490.6274   21356493.0524
 -22562849.602 4 -17581435.676 4  21049606.396    21049604.714
 -25007400.36744 -19486255.85344  20846643.1974   20846645.4034
 -16934943.54244 -13196030.91244  21898720.6454   21898723.1024
 -20465262.74244 -15946941.12244  21312683.6504   21312686.1584
 -17275516.01244 -13461410.53344  21683273.0554   21683274.8984
   -321342.13544   -250396.97444  23855150.2554   23855150.6884
 96  5 16  4 27 30.0000000  0  8G31G 3G28G21G17G 1G23G 9
  -4093271.62944  -3189560.13344  23040391.3364   23040394.2234
 -20764724.66744 -16180298.75744  21355441.1504   21355443.7414
 -22528661.240 4 -17554795.403 4  21056112.223    21056110.562
 -25022515.81844 -19498034.10144  20843766.7384   20843769.2004
 -16872096.09644 -13147058.88144  21910680.1104   21910682.3074
 -20540744.70244 -16005758.21344  21298319.8814   21298322.3074
 -17231773.13244 -13427325.15744  21691596.9984   21691598.7394
   -332101.67044   -258781.00744  23853102.5454   23853104.7364
